[[{"header":{"parameterUnit":"m.s-1","parameterCategory":1,"la1":31.0,"la2":29.5877,"lo1":-88.7671,"lo2":-86.6584,"dy":0.0162,"dx":0.0185,"nx":115,"ny":88,"refTime":"2023-09-23T00:00:00:Z","depth":0,"parameterNumber":2,"parameterNumberName":"U-component_of_WINDS"},"data":[0.0,0.0,0.0,0.0,0.0,0.0,0.0,0.0,0.0,0.0,0.0,0.0,0.0,0.0,0.0,0.0,0.0,0.0,0.0,0.0,0.0,0.0,0.0,0.0,0.0,0.0,0.0,0.0,0.0,0.0,0.0,0.0,0.0,0.0,0.0,0.0,0.0,0.0,0.0,0.0,0.0,0.0,0.0,0.0,0.0,0.0,0.0,0.0,0.0,0.0,0.0,0.0,0.0,0.0,0.0,0.0,0.0,0.0,0.0,0.0,0.0,0.0,0.0,0.0,0.0,0.0,0.0,0.0,0.0,0.0,0.0,0.0,0.0,0.0,0.0,0.0,0.0,0.0,0.0,0.0,0.0,0.0,0.0,0.0,0.0,0.0,0.0,0.0,0.0,0.0,0.0,0.0,0.0,0.0,0.0,0.0,0.0,0.0,0.0,0.0,0.0,0.0,0.0,0.0,0.0,0.0,0.0,0.0,0.0,0.0,0.0,0.0,0.0,0.0,0.0,0.0,0.0,0.0,0.0,0.0,0.0,0.0,0.0,0.0,0.0,0.0,0.0,0.0,0.0,0.0,0.0,0.0,0.0,0.0,0.0,0.0,0.0,0.0,0.0,0.0,0.0,0.0,0.0,0.0,0.0,0.0,0.0,0.0,0.0,0.0,0.0,0.0,0.0,0.0,0.0,0.0,0.0,0.0,0.0,0.0,0.0,0.0,0.0,0.0,0.0,0.0,0.0,0.0,0.0,0.0,0.0,0.0,0.0,0.0,0.0,0.0,0.0,0.0,0.0,0.0,0.0,0.0,0.0,0.0,0.0,0.0,0.0,0.0,0.0,0.0,0.0,0.0,0.0,0.0,0.0,0.0,0.0,0.0,0.0,0.0,0.0,0.0,0.0,0.0,0.0,0.0,0.0,0.0,0.0,0.0,0.0,0.0,0.0,0.0,0.0,0.0,0.0,0.0,0.0,0.0,0.0,0.0,0.0,0.0,0.0,0.0,0.0,0.0,0.0,0.0,0.0,0.0,0.0,0.0,0.0,0.0,0.0,0.0,0.0,0.0,0.0,0.0,0.0,0.0,0.0,0.0,0.0,0.0,0.0,0.0,0.0,0.0,0.0,0.0,0.0,0.0,0.0,0.0,0.0,0.0,0.0,0.0,0.0,0.0,0.0,0.0,0.0,0.0,0.0,0.0,0.0,0.0,0.0,0.0,0.0,0.0,0.0,0.0,0.0,0.0,0.0,0.0,0.0,0.0,0.0,0.0,0.0,0.0,0.0,0.0,0.0,0.0,0.0,0.0,0.0,0.0,0.0,0.0,0.0,0.0,0.0,0.0,0.0,0.0,0.0,0.0,0.0,0.0,0.0,0.0,0.0,0.0,0.0,0.0,0.0,0.0,0.0,0.0,0.0,0.0,0.0,0.0,0.0,0.0,0.0,0.0,0.0,0.0,0.0,0.0,0.0,0.0,0.0,0.0,0.0,0.0,0.0,0.0,0.0,0.0,0.0,0.0,0.0,0.0,0.0,0.0,0.0,0.0,0.0,0.0,0.0,0.0,0.0,0.0,0.0,0.0,0.0,0.0,0.0,0.0,0.0,0.0,0.0,0.0,0.0,0.0,0.0,0.0,0.0,0.0,0.0,0.0,0.0,0.0,0.0,0.0,0.0,0.0,0.0,0.0,0.0,0.0,0.0,0.0,0.0,0.0,0.0,0.0,0.0,0.0,0.0,0.0,0.0,0.0,0.0,0.0,0.0,0.0,0.0,0.0,0.0,0.0,0.0,0.0,0.0,0.0,0.0,0.0,0.0,0.0,0.0,0.0,0.0,0.0,0.0,0.0,0.0,0.0,0.0,0.0,0.0,0.0,0.0,0.0,0.0,0.0,0.0,0.0,0.0,0.0,0.0,0.0,0.0,0.0,0.0,0.0,0.0,0.0,0.0,0.0,0.0,0.0,0.0,0.0,0.0,0.0,0.0,0.0,0.0,0.0,0.0,0.0,0.0,0.0,0.0,0.0,0.0,0.0,0.0,0.0,0.0,0.0,0.0,0.0,0.0,0.0,0.0,0.0,0.0,0.0,0.0,0.0,0.0,0.0,0.0,0.0,0.0,0.0,0.0,0.0,0.0,0.0,0.0,0.0,0.0,0.0,0.0,0.0,0.0,0.0,0.0,0.0,0.0,0.0,0.0,0.0,0.0,0.0,0.0,0.0,0.0,0.0,0.0,0.0,0.0,0.0,0.0,0.0,0.0,0.0,0.0,0.0,0.0,0.0,0.0,0.0,0.0,0.0,0.0,0.0,0.0,0.0,0.0,0.0,0.0,0.0,0.0,0.0,0.0,0.0,0.0,0.0,0.0,0.0,0.0,0.0,0.0,0.0,0.0,0.0,0.0,0.0,0.0,0.0,0.0,0.0,0.0,0.0,0.0,0.0,0.0,0.0,0.0,0.0,0.0,0.0,0.0,0.0,0.0,0.0,0.0,0.0,0.0,0.0,0.0,0.0,0.0,0.0,0.0,0.0,0.0,0.0,0.0,0.0,0.0,0.0,0.0,0.0,0.0,0.0,0.0,0.0,0.0,0.0,0.0,0.0,0.0,0.0,0.0,0.0,0.0,0.0,0.0,0.0,0.0,0.0,0.0,0.0,0.0,0.0,0.0,0.0,0.0,0.0,0.0,0.0,0.0,0.0,0.0,0.0,0.0,0.0,0.0,0.0,0.0,0.0,0.0,0.0,0.0,0.0,0.0,0.0,0.0,0.0,0.0,0.0,0.0,0.0,0.0,0.0,0.0,0.0,0.0,0.0,0.0,0.0,0.0,0.0,0.0,0.0,0.0,0.0,0.0,0.0,0.0,0.0,0.0,0.0,0.0,0.0,0.0,0.0,0.0,0.0,0.0,0.0,0.0,0.0,0.0,0.0,0.0,0.0,0.0,0.0,0.0,0.0,0.0,0.0,0.0,0.0,0.0,0.0,0.0,0.0,0.0,0.0,0.0,0.0,0.0,0.0,0.0,0.0,0.0,0.0,0.0,0.0,0.0,0.0,0.0,0.0,0.0,0.0,0.0,0.0,0.0,0.0,0.0,0.0,0.0,0.0,0.0,0.0,0.0,0.0,0.0,0.0,0.0,0.0,0.0,0.0,0.0,0.0,0.0,0.0,0.0,0.0,0.0,0.0,0.0,0.0,0.0,0.0,0.0,0.0,0.0,0.0,0.0,0.0,0.0,0.0,0.0,0.0,0.0,0.0,0.0,0.0,0.0,0.0,0.0,0.0,0.0,0.0,0.0,0.0,0.0,0.0,0.0,0.0,0.0,0.0,0.0,0.0,0.0,0.0,0.0,0.0,0.0,0.0,0.0,0.0,0.0,0.0,0.0,0.0,0.0,0.0,0.0,0.0,0.0,0.0,0.0,0.0,0.0,0.0,0.0,0.0,0.0,0.0,0.0,0.0,0.0,0.0,0.0,0.0,0.0,0.0,0.0,0.0,0.0,0.0,0.0,0.0,0.0,0.0,0.0,0.0,0.0,0.0,0.0,0.0,0.0,0.0,0.0,0.0,0.0,0.0,0.0,0.0,0.0,0.0,0.0,0.0,0.0,0.0,0.0,0.0,0.0,0.0,0.0,0.0,0.0,0.0,0.0,0.0,0.0,0.0,0.0,0.0,0.0,0.0,0.0,0.0,0.0,0.0,0.0,0.0,0.0,0.0,0.0,0.0,0.0,0.0,0.0,0.0,0.0,0.0,0.0,0.0,0.0,0.0,0.0,0.0,0.0,0.0,0.0,0.0,0.0,0.0,0.0,0.0,0.0,0.0,0.0,0.0,0.0,0.0,0.0,0.0,0.0,0.0,0.0,0.0,0.0,0.0,0.0,0.0,0.0,0.0,0.0,0.0,0.0,0.0,0.0,0.0,0.0,0.0,0.0,0.0,0.0,0.0,0.0,0.0,0.0,0.0,0.0,0.0,0.0,0.0,0.0,0.0,0.0,0.0,0.0,0.0,0.0,0.0,0.0,0.0,0.0,0.0,0.0,0.0,0.0,0.0,0.0,0.0,0.0,0.0,0.0,0.0,0.0,0.0,0.0,0.0,0.0,0.0,0.0,0.0,0.0,0.0,0.0,0.0,0.0,0.0,0.0,0.0,0.0,0.0,0.0,0.0,0.0,0.0,0.0,0.0,0.0,0.0,0.0,0.0,0.0,0.0,0.0,0.0,0.0,0.0,0.0,0.0,0.0,0.0,0.0,0.0,0.0,0.0,0.0,0.0,0.0,0.0,0.9938,0.0,0.0,0.0,0.0,0.0,0.0,0.0,0.0,0.0,0.0,0.0,0.0,0.0,0.0,0.0,0.0,0.0,0.0,0.0,0.0,0.0,0.0,0.0,0.0,0.0,0.0,0.0,0.0,0.0,0.0,0.0,0.0,0.0,0.0,0.0,0.0,0.0,0.0,0.0,0.0,0.0,0.0,0.0,0.0,0.0,0.0,0.0,0.0,0.0,0.0,0.0,0.0,0.0,0.0,0.0,0.0,0.0,0.0,0.0,0.0,0.0,0.0,0.0,0.0,0.0,0.0,0.0,0.0,0.0,0.0,0.0,0.0,0.0,0.0,0.0,0.0,0.0,0.0,0.0,0.0,0.0,0.0,0.0,0.0,0.0,0.0,0.0,0.0,0.0,0.0,0.0,0.0,0.0,0.0,0.0,0.0,0.0,0.0,0.0,0.0,0.0,0.0,0.0,0.0,0.0,0.0,0.0,0.0,0.0,0.0,1.0095,1.0095,1.0095,1.0095,1.0091,0.0,0.0,0.0,0.0,0.0,0.0,0.0,0.0,0.0,0.0,0.0,0.0,0.0,0.0,0.0,0.0,0.0,0.0,0.0,0.0,0.0,0.0,0.0,0.0,0.0,0.0,0.0,0.0,0.0,0.0,0.0,0.0,0.0,0.0,0.0,0.0,0.0,0.0,0.0,0.0,0.0,0.0,0.0,0.0,0.0,0.0,0.0,0.0,0.0,0.0,0.0,0.0,0.0,0.0,0.0,0.0,0.0,0.0,0.0,0.0,0.0,0.0,0.0,0.0,0.0,0.0,0.0,0.0,0.0,0.0,0.0,0.0,0.0,0.0,0.0,0.0,0.0,0.0,0.0,0.0,0.0,0.0,0.0,0.0,0.0,0.0,0.0,0.0,0.0,0.0,0.0,0.0,0.0,0.0,0.0,0.0,0.0,0.0,0.0,0.0,0.0,0.0,0.0,0.0,0.0,0.0,0.0,0.0,0.0,0.0,0.0,0.0,1.0958,1.0949,1.0902,0.0,0.0,0.0,0.0,0.0,0.0,0.0,0.0,0.0,0.0,0.0,0.0,0.0,0.0,0.0,0.0,0.0,0.0,0.0,0.0,0.0,0.0,0.0,0.0,0.0,0.0,0.0,0.0,0.0,0.0,0.0,0.0,0.0,0.0,0.0,0.0,0.0,0.0,0.0,0.0,0.0,0.0,0.0,0.0,0.0,0.0,0.0,0.0,0.0,0.0,0.0,0.0,0.0,0.0,0.0,0.0,0.0,0.0,0.0,0.0,0.0,0.0,0.0,0.0,0.0,0.0,0.0,0.0,0.0,0.0,0.0,0.0,0.0,0.0,0.0,0.0,0.0,0.0,0.0,0.0,0.0,0.0,0.0,0.0,0.0,0.0,0.0,0.0,0.0,0.0,0.0,0.0,0.0,0.0,0.0,0.0,0.0,0.0,0.0,0.0,0.0,0.0,0.0,0.0,0.0,0.0,0.0,0.0,0.0,0.0,1.1207,1.3477,1.3533,0.0,1.3285,0.0,0.0,0.0,0.0,0.0,0.0,0.0,0.0,0.0,0.0,0.0,0.0,0.0,0.0,0.0,0.0,0.0,0.0,0.0,0.0,0.0,0.0,0.0,0.0,0.0,0.0,0.0,0.0,0.0,0.0,0.0,0.0,0.0,0.0,0.0,0.0,0.0,0.0,0.0,0.0,0.0,0.0,0.0,0.0,0.0,0.0,0.0,0.0,0.0,0.0,0.0,0.0,0.0,0.0,0.0,0.0,0.0,0.0,0.0,0.0,0.0,0.0,0.0,0.0,0.0,0.0,0.0,0.0,0.0,0.0,0.0,0.0,0.0,0.0,0.0,0.0,0.0,0.0,0.0,0.0,0.0,0.0,0.0,0.0,0.0,0.0,0.0,0.0,0.0,0.0,0.0,0.0,0.0,0.0,0.0,0.0,0.0,0.0,0.0,0.0,0.0,0.0,0.0,0.0,0.0,0.0,0.0,0.0,0.0,0.0,1.1846,1.3859,1.3878,1.3387,0.0,0.0,0.0,0.0,0.0,0.0,0.0,0.0,0.0,0.0,0.0,0.0,0.0,0.0,0.0,0.0,0.0,0.0,0.0,0.0,0.0,0.0,0.0,0.0,0.0,0.0,0.0,0.0,0.0,0.0,0.0,0.0,0.0,0.0,0.0,0.0,0.0,0.0,0.0,0.0,0.0,0.0,0.0,0.0,0.0,0.0,0.0,0.0,0.0,0.0,0.0,0.0,0.0,0.0,0.0,0.0,0.0,0.0,0.0,0.0,0.0,0.0,0.0,0.0,0.0,0.0,0.0,0.0,0.0,0.0,0.0,0.0,0.0,0.0,0.0,0.0,0.0,0.0,0.0,0.0,0.0,0.0,0.0,0.0,0.0,0.0,0.0,0.0,0.0,0.0,0.0,0.0,0.0,0.0,0.0,0.0,0.0,0.0,0.0,0.0,0.0,0.0,0.0,0.0,0.0,0.0,0.0,0.0,0.0,0.0,1.2136,1.3001,1.4766,1.4056,1.3073,1.2002,0.0,0.0,0.0,0.0,0.0,0.0,0.0,0.0,0.0,0.0,0.0,0.0,0.0,0.0,0.0,0.0,0.0,0.0,0.0,0.0,0.0,0.0,0.0,0.0,0.0,0.0,0.0,0.0,0.0,0.0,0.0,0.0,0.0,0.0,0.0,0.0,0.0,0.0,0.0,0.0,0.0,0.0,0.0,0.0,0.0,0.0,0.0,0.0,0.0,0.0,0.0,0.0,0.0,0.0,0.0,0.0,0.0,0.0,0.0,0.0,0.0,0.0,0.0,0.0,0.0,0.0,0.0,0.0,0.0,0.0,0.0,0.0,0.0,0.0,0.0,0.0,0.0,0.0,0.0,0.0,0.0,0.0,0.0,0.0,0.0,0.0,0.0,0.0,0.0,0.0,0.0,0.0,0.0,0.0,0.0,0.0,0.0,0.0,0.0,0.0,0.0,0.0,0.0,0.0,0.0,0.0,0.0,0.0,1.6928,1.4942,1.4981,1.7293,1.4431,1.3059,0.0,0.0,0.0,0.0,0.0,0.0,0.0,0.0,0.0,0.0,0.0,0.0,0.0,0.0,0.0,0.0,0.0,0.0,0.0,0.0,0.0,0.0,0.0,0.0,0.0,0.0,0.0,0.0,0.0,0.0,0.0,0.0,0.0,0.0,0.0,0.0,0.0,0.0,0.0,0.0,0.0,0.0,0.0,0.0,0.0,0.0,0.0,0.0,0.0,0.0,0.0,0.0,0.0,0.0,0.0,0.0,0.0,0.0,0.0,0.0,0.0,0.0,0.0,0.0,0.0,0.0,0.0,0.0,0.0,0.0,0.0,0.0,0.0,0.0,0.0,0.0,0.0,0.0,0.0,0.0,0.0,0.0,0.0,0.0,0.0,0.0,0.0,0.0,0.0,0.0,0.0,0.0,0.0,0.0,0.0,0.0,0.0,0.0,0.0,0.0,0.0,0.0,0.0,0.0,0.0,0.0,0.0,0.0,0.0,1.2754,1.3514,1.4864,1.6756,1.4674,1.3842,0.0,0.0,0.0,0.0,0.0,0.0,0.0,0.0,0.0,0.0,0.0,0.0,0.0,0.0,0.0,0.0,0.0,0.0,0.0,0.0,0.0,0.0,0.0,0.0,0.0,0.0,0.0,0.0,0.0,0.0,0.0,0.0,0.0,0.0,0.0,0.0,0.0,0.0,0.0,0.0,0.0,0.0,0.0,0.0,0.0,0.0,0.0,0.0,0.0,0.0,0.0,0.0,0.0,0.0,0.0,0.0,0.0,0.0,0.0,0.0,0.0,0.0,0.0,0.0,0.0,0.0,0.0,0.0,0.0,0.0,0.0,0.0,0.0,0.0,0.0,0.0,0.0,0.0,0.0,0.0,0.0,0.0,0.0,0.0,0.0,0.0,0.0,0.0,0.0,0.0,0.0,0.0,0.0,0.0,0.0,0.0,0.0,0.0,0.0,0.0,0.0,0.0,0.0,0.0,0.0,0.0,0.0,0.0,0.0,1.1767,0.0,1.5575,1.6369,1.4808,1.4005,0.0,0.0,0.0,0.0,0.0,0.0,0.0,0.0,0.0,0.0,0.0,0.0,0.0,0.0,0.0,0.0,0.0,0.0,0.0,0.0,0.0,0.0,0.0,0.0,0.0,0.0,0.0,0.0,0.0,0.0,0.0,0.0,0.0,0.0,0.0,0.0,0.0,0.0,0.0,0.0,0.0,0.0,0.0,0.0,0.0,0.0,0.0,0.0,0.0,0.0,0.0,0.0,0.0,0.0,0.0,0.0,0.0,0.0,0.0,0.0,0.0,0.0,0.0,0.0,0.0,0.0,0.0,0.0,0.0,0.0,0.0,0.0,0.0,0.0,0.0,0.0,0.0,0.0,0.0,0.0,0.0,0.0,0.0,0.0,0.0,0.0,0.0,0.0,0.0,0.0,0.0,0.0,0.0,0.0,0.0,0.0,0.0,0.0,0.0,0.0,0.0,0.0,0.0,0.0,0.0,0.0,0.0,0.0,1.1765,1.4978,1.6614,1.7074,1.6521,1.4778,1.3472,0.0,0.0,0.0,0.0,0.0,0.0,0.0,0.0,0.0,0.0,0.0,0.0,0.0,0.0,0.0,0.0,0.0,0.0,0.0,0.0,0.0,0.0,0.0,0.0,0.0,0.0,0.0,0.0,0.0,0.0,0.0,0.0,0.0,0.0,0.0,0.0,0.0,0.0,0.0,0.0,0.0,0.0,0.0,0.0,0.0,0.0,0.0,0.0,0.0,0.0,0.0,0.0,0.0,0.0,0.0,0.0,0.0,0.0,0.0,0.0,0.0,0.0,0.0,0.0,0.0,0.0,0.0,0.0,0.0,0.0,0.0,0.0,0.0,0.0,0.0,0.0,0.0,0.0,0.0,0.0,0.0,0.0,0.0,0.0,0.0,0.0,0.0,0.0,0.0,0.0,0.0,0.0,0.0,0.0,0.0,0.0,0.0,0.0,0.0,0.0,0.0,0.0,0.0,0.0,0.0,0.0,0.0,0.0,0.0,1.333,1.3756,1.5293,1.7797,1.4119,1.3412,0.0,0.0,0.0,0.0,0.0,0.0,0.0,0.0,0.0,0.0,0.0,0.0,0.0,0.0,0.0,0.0,0.0,0.0,0.0,0.0,0.0,0.0,0.0,0.0,0.0,0.0,0.0,0.0,0.0,0.0,0.0,0.0,0.0,0.0,0.0,0.0,0.0,0.0,0.0,0.0,0.0,0.0,0.0,0.0,0.0,0.0,0.0,0.0,0.0,0.0,0.0,0.0,0.0,0.0,0.0,0.0,0.0,0.0,0.0,0.0,0.0,0.0,0.0,0.0,0.0,0.0,0.0,0.0,0.0,0.0,0.0,0.0,0.0,0.0,0.0,0.0,0.0,0.0,0.0,0.0,0.0,0.0,0.0,0.0,0.0,0.0,0.0,0.0,0.0,0.0,0.0,0.0,0.0,0.0,0.0,0.0,0.0,0.0,0.0,0.0,0.0,0.0,0.0,0.0,0.0,0.0,0.0,0.0,0.0,1.3648,1.3829,1.4951,1.7065,1.423,1.3849,1.6204,0.0,0.0,0.0,0.0,0.0,0.0,0.0,0.0,0.0,0.0,0.0,0.0,0.0,0.0,0.0,0.0,0.0,0.0,0.0,0.0,0.0,0.0,0.0,0.0,0.0,0.0,0.0,0.0,0.0,0.0,0.0,0.0,0.0,0.0,0.0,0.0,0.0,0.0,0.0,0.0,0.0,0.0,0.0,0.0,0.0,0.0,0.0,0.0,0.0,0.0,0.0,0.0,0.0,0.0,0.0,0.0,0.0,0.0,0.0,0.0,0.0,0.0,0.0,0.0,0.0,0.0,0.0,0.0,0.0,0.0,0.0,0.0,0.0,0.0,0.0,0.0,0.0,0.0,0.0,0.0,0.0,0.0,0.0,0.0,0.0,0.0,0.0,0.0,0.0,0.0,0.0,0.0,0.0,0.0,0.0,0.0,0.0,0.0,0.0,0.0,0.0,0.0,0.0,0.0,0.0,0.0,0.0,0.0,1.5429,1.627,1.6058,1.4781,1.5171,1.4723,0.0,0.0,0.0,0.0,0.0,0.0,0.0,0.0,0.0,0.0,0.0,0.0,0.0,0.0,0.0,0.0,0.0,0.0,0.0,0.0,0.0,0.0,0.0,0.0,0.0,0.0,0.0,0.0,0.0,0.0,0.0,0.0,0.0,0.0,0.0,0.0,0.0,0.0,0.0,0.0,0.0,0.0,0.0,0.0,0.0,0.0,0.0,0.0,0.0,0.0,0.0,0.0,0.0,0.0,0.0,0.0,0.0,0.0,0.0,0.0,0.0,0.0,0.0,0.0,0.0,0.0,0.0,0.0,0.0,0.0,0.0,0.0,0.0,0.0,0.0,0.0,0.0,0.0,0.0,0.0,0.0,0.0,0.0,0.0,0.0,0.0,0.0,0.0,0.0,0.0,0.0,0.0,0.0,0.0,0.0,0.0,0.0,0.0,0.0,0.0,0.0,0.0,0.0,0.0,0.0,0.0,0.0,0.0,0.0,1.5814,1.6629,1.7535,1.8415,1.6578,1.5941,0.0,0.0,0.0,0.0,0.0,0.0,0.0,0.0,0.0,0.0,0.0,0.0,0.0,0.0,0.0,0.0,0.0,0.0,0.0,0.0,0.0,0.0,0.0,0.0,0.0,0.0,0.0,0.0,0.0,0.0,0.0,0.0,0.0,0.0,0.0,0.0,0.0,0.0,0.0,0.0,0.0,0.0,0.0,0.0,0.0,0.0,0.0,0.0,0.0,0.0,0.0,0.0,0.0,0.0,0.0,0.0,0.0,0.0,0.0,0.0,0.0,0.0,0.0,0.0,0.0,0.0,0.0,0.0,0.0,0.0,0.0,0.0,0.0,0.0,0.0,0.0,0.0,0.0,0.0,0.0,0.0,0.0,0.0,0.0,0.0,0.0,0.0,0.0,0.0,0.0,0.0,0.0,0.0,0.0,0.0,0.0,0.0,0.0,0.0,0.0,0.0,0.0,0.0,0.0,0.0,0.0,0.0,0.0,1.6284,1.5925,1.723,1.8568,1.9923,1.7675,1.6331,0.0,0.0,0.0,0.0,0.0,0.0,0.0,0.0,0.0,0.0,0.0,0.0,0.0,0.0,0.0,0.0,0.0,0.0,0.0,0.0,0.0,0.0,0.0,0.0,0.0,0.0,0.0,0.0,0.0,0.0,0.0,0.0,0.0,0.0,0.0,0.0,0.0,0.0,0.0,0.0,0.0,0.0,0.0,0.0,0.0,0.0,0.0,0.0,0.0,0.0,0.0,0.0,0.0,0.0,0.0,0.0,0.0,0.0,0.0,0.0,0.0,0.0,0.0,0.0,0.0,0.0,0.0,0.0,0.0,0.0,0.0,0.0,0.0,0.0,0.0,0.0,0.0,0.0,0.0,0.0,0.0,0.0,0.0,0.0,0.0,0.0,0.0,0.0,0.0,0.0,0.0,0.0,0.0,0.0,0.0,0.0,0.0,0.0,0.0,0.0,0.0,0.0,0.0,0.0,0.0,0.0,0.0,0.0,1.6326,1.6024,1.7923,1.9207,1.9687,1.8364,1.642,0.0,0.0,0.0,0.0,0.0,0.0,0.0,0.0,0.0,0.0,0.0,0.0,0.0,0.0,0.0,0.0,0.0,0.0,0.0,0.0,0.0,0.0,0.0,0.0,0.0,0.0,0.0,0.0,0.0,0.0,0.0,0.0,0.0,0.0,0.0,0.0,0.0,0.0,0.0,0.0,0.0,0.0,0.0,0.0,0.0,0.0,0.0,0.0,0.0,0.0,0.0,0.0,0.0,0.0,0.0,0.0,0.0,0.0,0.0,0.0,0.0,0.0,0.0,0.0,0.0,0.0,0.0,0.0,0.0,0.0,0.0,0.0,0.0,0.0,0.0,0.0,0.0,0.0,0.0,0.0,0.0,0.0,0.0,0.0,0.0,0.0,0.0,0.0,0.0,0.0,0.0,0.0,0.0,0.0,0.0,0.0,0.0,0.0,0.0,0.0,0.0,0.0,0.0,0.0,0.0,0.0,0.0,0.0,1.6457,1.6566,1.8246,1.9047,1.8875,1.8094,1.7137,0.0,0.0,0.0,0.0,0.0,0.0,0.0,0.0,0.0,0.0,0.0,0.0,0.0,0.0,0.0,0.0,0.0,0.0,0.0,0.0,0.0,0.0,0.0,0.0,0.0,0.0,0.0,0.0,0.0,0.0,0.0,0.0,0.0,0.0,0.0,0.0,0.0,0.0,0.0,0.0,0.0,0.0,0.0,0.0,0.0,0.0,0.0,0.0,1.3396,0.0,0.0,0.0,0.0,0.0,0.0,0.0,0.0,0.0,0.0,0.0,0.0,0.0,0.0,0.0,0.0,0.0,0.0,0.0,0.0,0.0,0.0,0.0,0.0,0.0,0.0,0.0,0.0,0.0,0.0,0.0,0.0,0.0,0.0,0.0,0.0,0.0,0.0,0.0,0.0,0.0,0.0,0.0,0.0,0.0,0.0,0.0,0.0,0.0,0.0,0.0,0.0,0.0,0.0,0.0,0.0,0.0,0.0,0.0,1.6451,1.6739,1.7935,1.8639,1.8696,1.7459,1.6529,0.0,0.0,0.0,0.0,0.0,0.0,0.0,0.0,0.0,0.0,0.0,0.0,0.0,0.0,0.0,0.0,0.0,0.0,0.0,0.0,0.0,0.0,0.0,0.0,0.0,0.0,0.0,0.0,0.0,0.0,0.0,0.0,0.0,0.0,0.0,0.0,0.0,0.0,0.0,0.0,0.0,0.0,0.0,0.0,0.0,0.0,0.0,0.0,0.0,0.0,0.0,0.0,0.0,0.0,0.0,0.0,0.0,0.0,0.0,0.0,0.0,0.0,0.0,0.0,0.0,0.0,0.0,0.0,0.0,0.0,0.0,0.0,0.0,0.0,0.0,0.0,0.0,0.0,0.0,0.0,0.0,0.0,0.0,0.0,0.0,0.0,0.0,0.0,0.0,0.0,0.0,0.0,0.0,0.0,0.0,0.0,0.0,0.0,0.0,0.0,0.0,0.0,0.0,0.0,0.0,0.0,0.0,1.6211,1.6332,1.6744,1.7522,1.8128,1.8489,1.6682,1.5515,1.5151,0.0,0.0,0.0,0.0,0.0,0.0,0.0,0.0,0.0,0.0,0.0,0.0,0.0,0.0,0.0,0.0,0.0,0.0,0.0,0.0,0.0,0.0,0.0,0.0,0.0,0.0,0.0,0.0,0.0,0.0,0.0,0.0,0.0,0.0,0.0,0.0,0.0,0.0,1.0941,1.1698,0.0,0.0,0.0,0.0,0.0,0.0,0.0,0.0,1.3553,0.0,0.0,0.0,0.0,0.0,0.0,0.0,0.0,0.0,0.0,0.0,0.0,0.0,0.0,0.0,0.0,0.0,0.0,0.0,0.0,0.0,0.0,0.0,0.0,0.0,0.0,0.0,0.0,0.0,0.0,0.0,0.0,0.0,0.0,0.0,0.0,0.0,0.0,0.0,0.0,0.0,0.0,0.0,0.0,0.0,0.0,0.0,0.0,0.0,0.0,0.0,0.0,0.0,0.0,0.0,0.0,1.7018,1.5952,1.5847,1.6848,1.7651,1.7693,1.6909,1.6106,1.5256,1.4356,0.0,0.0,0.0,0.0,0.0,0.0,0.0,0.0,0.0,0.0,0.0,0.0,0.0,0.0,0.0,0.0,0.0,0.0,0.0,0.0,0.0,0.0,0.0,0.0,0.0,0.0,0.0,0.0,0.0,0.0,0.0,0.0,0.0,0.0,0.0,0.0,0.0,0.0,0.0,1.2952,1.3586,0.0,0.0,0.0,0.0,0.0,0.0,0.0,0.0,1.5093,0.0,0.0,0.0,0.0,0.0,0.0,0.0,0.0,0.0,0.0,0.0,0.0,0.0,0.0,0.0,0.0,0.0,0.0,0.0,0.0,0.0,0.0,0.0,0.0,0.0,0.0,0.0,0.0,0.0,0.0,0.0,0.0,0.0,0.0,0.0,0.0,0.0,0.0,0.0,0.0,0.0,0.0,0.0,0.0,0.0,0.0,0.0,0.0,0.0,0.0,0.0,0.0,0.0,0.0,0.0,1.6298,1.5527,1.5576,1.655,1.7026,1.7024,1.6486,1.4876,1.404,0.0,0.0,0.0,0.0,0.0,0.0,0.0,0.0,0.0,0.0,0.0,0.0,0.0,0.0,0.0,0.0,0.0,0.0,0.0,0.0,0.0,0.0,0.0,0.0,0.0,0.0,0.0,0.0,0.0,0.0,0.0,0.0,0.0,0.0,0.0,0.0,0.0,0.0,0.0,0.0,1.3299,1.3998,1.3856,0.0,0.0,0.0,0.0,0.0,0.0,1.4218,1.4783,0.0,0.0,0.0,0.0,0.0,0.0,0.0,0.0,0.0,0.0,0.0,0.0,0.0,0.0,0.0,0.0,0.0,0.0,0.0,0.0,0.0,0.0,0.0,0.0,0.0,0.0,0.0,0.0,0.0,0.0,0.0,0.0,0.0,0.0,0.0,0.0,0.0,0.0,0.0,0.0,0.0,0.0,0.0,0.0,0.0,0.0,0.0,0.0,0.0,0.0,0.0,0.0,0.0,0.0,0.0,1.5776,1.5134,1.5165,1.5948,1.6099,1.6123,1.5976,1.3757,1.3002,0.0,0.0,0.0,0.0,0.0,0.0,0.0,0.0,0.0,0.0,0.0,0.0,0.0,0.0,0.0,0.0,0.0,0.0,0.0,0.0,0.0,0.0,0.0,0.0,0.0,0.0,0.0,0.0,0.0,0.0,0.0,0.0,0.0,0.0,0.0,0.0,0.0,0.0,0.0,0.0,0.0,1.4703,1.4812,1.4661,0.0,0.0,0.0,0.0,1.4493,1.4719,0.0,0.0,0.0,0.0,0.0,0.0,0.0,0.0,0.0,0.0,0.0,0.0,0.0,0.0,0.0,0.0,0.0,0.0,0.0,0.0,0.0,0.0,0.0,0.0,0.0,0.0,0.0,0.0,0.0,0.0,0.0,0.0,0.0,0.0,0.0,0.0,0.0,0.0,0.0,0.0,0.0,0.0,0.0,0.0,0.0,0.0,0.0,0.0,0.0,0.0,0.0,0.0,0.0,0.0,0.0,0.0,1.6398,1.485,1.4298,1.4862,1.5013,1.486,1.4397,1.3556,1.316,0.0,0.0,0.0,0.0,0.0,0.0,0.0,0.0,0.0,0.0,0.0,0.0,0.0,0.0,0.0,0.0,0.0,0.0,0.0,0.0,0.0,0.0,0.0,0.0,0.0,0.0,0.0,0.0,0.0,0.0,0.0,0.0,0.0,0.0,0.0,0.0,0.0,0.0,0.0,0.0,0.0,1.6665,1.6017,1.56,1.5266,0.0,0.0,1.7585,1.6078,1.7061,0.0,0.0,0.0,0.0,0.0,0.0,0.0,0.0,0.0,0.0,0.0,0.0,0.0,0.0,0.0,0.0,0.0,0.0,0.0,0.0,0.0,0.0,0.0,0.0,0.0,0.0,0.0,0.0,0.0,0.0,0.0,0.0,0.0,0.0,0.0,0.0,0.0,0.0,0.0,0.0,0.0,0.0,0.0,0.0,0.0,0.0,0.0,0.0,0.0,0.0,0.0,0.0,0.0,0.0,0.0,1.5916,1.5931,1.4229,1.3658,1.4323,1.4113,1.4032,1.4097,1.2353,1.2123,0.0,0.0,0.0,0.0,0.0,0.0,0.0,0.0,0.0,0.0,0.0,0.0,0.0,0.0,0.0,0.0,0.0,0.0,0.0,0.0,0.0,0.0,0.0,0.0,0.0,0.0,0.0,0.0,0.0,0.0,0.0,0.0,0.0,0.0,0.0,0.0,0.0,0.0,0.0,0.0,0.0,0.0,1.5235,1.5382,0.0,0.0,0.0,1.7517,1.8112,0.0,0.0,0.0,0.0,0.0,0.0,0.0,0.0,0.0,0.0,0.0,0.0,0.0,0.0,0.0,0.0,0.0,0.0,0.0,0.0,0.0,0.0,0.0,0.0,0.0,0.0,0.0,0.0,0.0,0.0,0.0,0.0,0.0,0.0,0.0,0.0,0.0,0.0,0.0,0.0,0.0,0.0,0.0,0.0,0.0,0.0,0.0,0.0,0.0,0.0,0.0,0.0,0.0,0.0,0.0,0.0,0.0,1.5708,1.3648,1.2988,1.3824,1.338,1.3289,1.3609,1.1407,0.0,0.0,0.0,0.0,0.0,0.0,0.0,0.0,0.0,0.0,0.0,0.0,0.0,0.0,0.0,0.0,0.0,0.0,0.0,0.0,0.0,0.0,0.0,0.0,0.0,0.0,0.0,1.4816,0.0,0.0,0.0,0.0,0.0,0.0,0.0,0.0,0.0,0.0,0.0,0.0,0.0,0.0,1.6181,1.5008,1.5464,1.5989,0.0,0.0,1.7329,1.8986,1.8026,1.7088,0.0,0.0,0.0,0.0,0.0,0.0,0.0,0.0,0.0,0.0,0.0,0.0,0.0,0.0,0.0,0.0,0.0,0.0,0.0,0.0,0.0,0.0,0.0,0.0,0.0,0.0,0.0,0.0,0.0,0.0,0.0,0.0,0.0,0.0,0.0,0.0,0.0,0.0,0.0,0.0,0.0,0.0,0.0,0.0,0.0,0.0,0.0,0.0,0.0,0.0,0.0,0.0,0.0,0.0,1.6195,1.6313,1.33,1.2222,1.321,1.2799,1.253,1.2489,1.1351,1.1536,0.0,0.0,0.0,0.0,0.0,0.0,0.0,0.0,0.0,0.0,0.0,0.0,0.0,0.0,0.0,0.0,0.0,0.0,0.0,0.0,0.0,0.0,0.0,0.0,0.0,0.0,0.0,0.0,0.0,0.0,0.0,0.0,0.0,0.0,0.0,0.0,0.0,0.0,0.0,0.0,0.0,1.7568,1.6509,1.641,1.6925,0.0,1.7825,1.7434,1.7699,1.8201,1.764,1.5008,0.0,0.0,0.0,0.0,0.0,0.0,0.0,0.0,0.0,0.0,0.0,0.0,0.0,0.0,0.0,0.0,0.0,0.0,0.0,0.0,0.0,0.0,0.0,0.0,0.0,0.0,0.0,0.0,0.0,0.0,0.0,0.0,0.0,0.0,0.0,0.0,0.0,0.0,0.0,0.0,0.0,0.0,0.0,0.0,0.0,0.0,0.0,0.0,0.0,0.0,0.0,0.0,0.0,1.5983,1.6438,1.3256,1.2294,1.3656,1.2946,1.2475,1.2392,1.1363,1.1552,0.0,0.0,0.0,0.0,0.0,0.0,0.0,0.0,0.0,0.0,0.0,0.0,0.0,0.0,0.0,0.0,0.0,0.0,0.0,0.0,0.0,0.0,0.0,0.0,0.0,0.0,0.0,0.0,1.4435,1.3986,1.3103,0.0,0.0,0.0,0.0,0.0,0.0,0.0,0.0,0.0,0.0,1.7458,1.7224,1.7118,0.0,0.0,1.7669,1.7272,1.6977,1.774,1.7777,1.5948,1.5586,0.0,0.0,0.0,0.0,0.0,0.0,0.0,0.0,0.0,0.0,0.0,0.0,0.0,0.0,0.0,0.0,0.0,0.0,0.0,0.0,0.0,0.0,0.0,0.0,0.0,0.0,0.0,0.0,0.0,0.0,0.0,0.0,0.0,0.0,0.0,0.0,0.0,0.0,0.0,0.0,0.0,0.0,0.0,0.0,0.0,0.0,0.0,0.0,0.0,0.0,0.0,0.0,1.5754,1.6228,1.3167,1.2255,1.3589,1.2887,1.2389,1.2189,1.1288,1.156,0.0,0.0,0.0,0.0,0.0,0.0,0.0,0.0,0.0,0.0,0.0,0.0,0.0,0.0,0.0,0.0,0.0,0.0,0.0,0.0,0.0,0.0,0.0,0.0,0.0,0.0,0.0,0.0,1.4976,1.4513,1.3441,0.0,0.0,0.0,0.0,0.0,0.0,0.0,0.0,0.0,0.0,1.7374,1.771,1.756,1.7539,1.7957,1.7803,1.7485,1.708,1.7402,1.7307,1.6174,0.0,0.0,0.0,0.0,0.0,0.0,0.0,0.0,0.0,0.0,0.0,0.0,0.0,0.0,0.0,0.0,0.0,0.0,0.0,0.0,0.0,0.0,0.0,0.0,0.0,0.0,0.0,1.8859,0.0,0.0,1.7793,0.0,0.0,0.0,0.0,0.0,0.0,0.0,0.0,0.0,0.0,0.0,0.0,0.0,0.0,0.0,0.0,0.0,0.0,0.0,0.0,0.0,0.0,1.5562,1.5677,1.3,1.1913,1.2553,1.2517,1.225,1.1735,1.114,1.1552,1.316,0.0,0.0,0.0,0.0,0.0,0.0,0.0,0.0,0.0,0.0,0.0,0.0,0.0,0.0,0.0,0.0,0.0,0.0,0.0,0.0,0.0,0.0,0.0,0.0,0.0,0.0,1.6734,1.5779,1.4898,0.0,0.0,0.0,0.0,0.0,0.0,0.0,0.0,0.0,1.743,1.7335,1.7492,1.8097,1.7745,1.776,1.877,1.8469,1.8143,1.8091,1.7239,1.6145,0.0,0.0,0.0,0.0,0.0,0.0,0.0,0.0,0.0,0.0,0.0,0.0,0.0,0.0,0.0,0.0,0.0,0.0,0.0,0.0,0.0,0.0,0.0,0.0,0.0,0.0,0.0,1.9574,1.9771,0.0,0.0,0.0,0.0,0.0,0.0,0.0,0.0,0.0,0.0,0.0,1.9845,1.9672,0.0,0.0,0.0,0.0,0.0,0.0,0.0,0.0,0.0,0.0,0.0,0.0,1.5258,1.5556,1.2989,1.2066,1.2988,1.2675,1.2229,1.171,1.1516,1.2136,1.3684,0.0,0.0,0.0,0.0,0.0,0.0,0.0,0.0,0.0,0.0,0.0,0.0,0.0,0.0,0.0,0.0,0.0,0.0,0.0,0.0,0.0,0.0,0.0,0.0,0.0,1.7978,0.0,0.0,0.0,0.0,0.0,0.0,0.0,0.0,0.0,0.0,1.7028,1.6957,1.7287,1.7363,1.7448,1.7647,1.7513,1.7529,0.0,0.0,0.0,0.0,0.0,0.0,0.0,0.0,0.0,0.0,0.0,0.0,0.0,0.0,1.6581,1.6454,1.6435,1.6395,1.6301,0.0,0.0,0.0,0.0,0.0,0.0,0.0,0.0,0.0,0.0,0.0,0.0,0.0,0.0,1.9887,2.0636,2.0042,0.0,0.0,0.0,0.0,0.0,0.0,0.0,0.0,1.9927,1.9577,1.9752,1.9822,1.9945,0.0,2.1009,2.1355,0.0,0.0,0.0,0.0,0.0,0.0,0.0,0.0,1.5002,1.5313,1.327,1.2612,1.3514,1.3237,1.2803,1.2282,1.2238,1.2672,1.3624,1.4262,1.5382,0.0,0.0,0.0,0.0,0.0,0.0,0.0,0.0,0.0,0.0,0.0,0.0,0.0,0.0,0.0,0.0,0.0,0.0,0.0,0.0,0.0,0.0,0.0,1.7846,0.0,0.0,0.0,0.0,0.0,0.0,0.0,0.0,0.0,1.8492,1.7491,1.7029,1.8037,1.7548,1.7236,1.7625,0.0,0.0,0.0,0.0,0.0,0.0,0.0,1.6209,1.5881,1.5367,1.5271,1.6065,1.6374,1.6417,1.6069,0.0,0.0,1.6346,1.6318,1.6329,1.6282,1.6156,1.6079,1.6054,1.5716,1.5365,0.0,0.0,0.0,0.0,0.0,0.0,0.0,0.0,1.9301,1.9866,0.0,2.0351,0.0,0.0,0.0,0.0,2.1014,2.0572,0.0,0.0,1.9736,1.9405,1.8965,2.0148,2.0393,1.9876,2.1439,2.1559,2.041,2.0099,0.0,0.0,0.0,0.0,0.0,0.0,1.4836,1.4887,1.3788,1.3495,1.4065,1.4078,1.3828,1.3304,1.3247,1.3145,1.3061,1.4156,1.5495,1.6992,1.7693,0.0,0.0,0.0,0.0,0.0,0.0,0.0,0.0,0.0,0.0,0.0,0.0,0.0,0.0,0.0,0.0,0.0,0.0,0.0,0.0,1.8481,0.0,0.0,0.0,0.0,0.0,0.0,0.0,0.0,0.0,1.7133,1.9358,1.8285,1.7924,1.9523,0.0,0.0,0.0,0.0,1.7578,1.8076,1.8007,1.7844,1.7805,1.6779,1.5806,1.5217,0.0,0.0,1.6555,1.6226,1.5988,1.598,1.599,1.5979,1.5972,1.6028,1.6007,1.597,1.5971,1.5989,1.5949,1.5838,1.5698,2.0502,0.0,0.0,0.0,0.0,2.0578,2.0603,2.1034,2.0773,2.0517,2.0288,2.0368,0.0,0.0,0.0,0.0,0.0,0.0,2.1177,2.145,2.1241,2.1021,2.0857,2.1231,2.1306,2.1136,2.114,2.1118,2.0952,1.9703,1.9778,2.1102,0.0,0.0,0.0,0.0,1.4827,1.4856,1.4211,1.3933,1.4084,1.4091,1.384,1.3312,1.3649,1.3638,1.317,1.415,1.5149,1.6077,1.7291,0.0,0.0,0.0,0.0,0.0,0.0,0.0,0.0,0.0,0.0,0.0,0.0,0.0,0.0,0.0,0.0,0.0,0.0,0.0,2.013,1.9468,1.8756,0.0,0.0,0.0,0.0,0.0,0.0,0.0,0.0,0.0,1.8391,1.7992,1.7937,0.0,0.0,1.6901,1.8053,1.7743,1.7437,1.7599,1.746,0.0,1.6485,1.6102,1.5741,1.5371,1.5577,1.5771,1.5746,1.564,1.5555,1.5559,1.559,1.5578,1.5597,1.5887,1.5926,1.5532,1.562,1.5669,1.5273,1.5145,1.5121,2.2607,2.2012,2.155,2.1563,2.1908,2.1474,2.1331,2.144,2.1453,2.1502,2.1596,2.1717,2.1651,2.1424,2.1315,0.0,0.0,0.0,2.2064,2.2462,2.2455,2.2333,2.2124,2.2338,2.2333,2.2089,2.169,2.1335,2.1042,1.9994,1.9699,2.0107,0.0,1.7829,1.732,1.5887,1.5174,1.5205,1.4906,1.4835,1.5039,1.4835,1.4491,1.3972,1.4231,1.423,1.3901,1.4461,1.5172,1.5998,1.6861,1.781,0.0,0.0,0.0,0.0,0.0,0.0,0.0,0.0,0.0,0.0,0.0,1.988,1.9606,0.0,0.0,0.0,1.907,1.8836,2.0124,1.958,0.0,0.0,0.0,0.0,0.0,0.0,0.0,1.7473,1.6532,1.6262,1.7377,1.7715,1.8205,1.9196,1.8079,1.7502,1.8393,0.0,1.7684,1.7613,1.7251,1.6823,1.6316,1.59,1.5601,1.5438,1.542,1.5498,1.5654,1.5537,1.542,1.542,1.542,1.542,1.542,1.5672,1.5771,1.5311,1.5444,1.5486,1.5095,1.5029,1.5038,2.5084,2.4406,2.3191,2.2695,2.2679,2.2511,2.2175,2.1785,2.1769,2.2719,2.4244,2.3891,2.4285,2.5139,2.3511,0.0,2.2842,2.2853,2.2897,2.2942,2.3505,2.346,2.2972,2.3445,2.337,2.2842,2.2706,2.1993,2.0834,2.065,2.0038,1.8913,1.779,1.7006,1.6503,1.5971,1.5683,1.5693,1.5731,1.5996,1.6475,1.6009,1.5492,1.4981,1.4969,1.4944,1.4884,1.4944,1.5417,1.6366,1.651,1.7266,1.8722,0.0,0.0,0.0,0.0,0.0,0.0,0.0,0.0,0.0,0.0,0.0,0.0,0.0,0.0,1.9468,1.9266,0.0,1.9573,1.9075,0.0,0.0,0.0,1.7349,1.8212,1.717,1.6788,1.7859,0.0,0.0,1.6369,1.7265,1.8311,1.9382,1.8684,1.8258,1.8846,1.8423,1.8031,1.7744,1.7213,1.6817,1.6678,1.5971,1.5429,1.541,1.542,1.5551,1.5888,1.5693,1.5434,1.542,1.542,1.542,1.542,1.5429,1.541,1.5415,1.541,1.5415,1.5381,1.5381,1.5357,2.771,2.7932,2.6436,2.5239,2.4293,2.3807,2.3751,2.4001,2.4026,2.4154,2.4398,2.4694,2.4788,2.4728,2.3791,2.3655,2.4141,2.4152,2.4421,2.4885,2.5076,2.5061,2.4896,2.4541,2.4291,2.4059,2.264,2.1773,2.1424,2.048,1.9667,1.9001,1.8689,1.7861,1.6533,1.5951,1.5683,1.5683,1.6097,1.6362,1.6498,1.6385,1.607,1.5527,1.5502,1.5311,1.4919,1.5289,1.5626,1.5883,1.6664,1.7468,1.8249,1.8669,0.0,0.0,0.0,0.0,0.0,0.0,0.0,0.0,0.0,2.1666,2.0756,0.0,2.1434,0.0,1.997,1.9364,1.8902,1.8857,0.0,0.0,1.8025,1.7738,1.7582,1.726,1.7023,1.6885,1.6659,1.614,1.5242,1.5372,1.5962,1.7034,1.6954,1.7111,1.7976,1.7777,1.7334,1.6882,1.6794,1.671,1.628,1.5759,1.542,1.542,1.542,1.5434,1.5537,1.5473,1.542,1.542,1.542,1.542,1.542,1.542,1.542,1.542,1.542,1.542,1.542,1.542,1.542,2.916,2.8552,2.8051,2.6977,2.5566,2.525,2.5121,2.5168,2.5435,2.5662,2.5936,2.6682,2.6788,2.6353,2.5689,2.5581,2.5929,2.5932,2.5989,2.6063,2.6348,2.6195,2.5573,2.4907,2.4743,2.4967,2.2764,2.1858,2.2052,2.0555,1.9519,1.9021,1.9009,1.8415,1.7278,1.6731,1.6559,1.681,1.6609,1.6513,1.6513,1.6513,1.6486,1.6457,1.6195,1.6032,1.6015,1.6032,1.6057,1.607,1.6845,1.7544,1.8086,1.8626,1.9352,0.0,0.0,0.0,0.0,0.0,0.0,0.0,0.0,0.0,0.0,0.0,2.1047,1.983,1.9249,1.8769,1.819,1.84,1.8429,1.8135,1.7874,1.7639,1.7346,1.6862,1.6523,1.6498,1.6513,1.5832,1.4153,1.3895,1.4293,1.5357,1.5482,1.5889,1.6994,1.7316,1.7029,1.607,1.6018,1.6068,1.5752,1.5533,1.542,1.542,1.542,1.542,1.542,1.542,1.542,1.542,1.542,1.542,1.542,1.542,1.5308,1.4903,1.4569,1.4614,1.525,1.542,1.542,3.0302,2.8511,2.9059,2.8438,2.7092,2.6773,2.6354,2.592,2.643,2.7179,2.8093,2.904,2.9226,2.8788,2.8141,2.7867,2.7854,2.7867,2.754,2.7033,2.7572,2.7183,2.5977,2.5292,2.5213,2.5465,2.3117,2.2198,2.2594,2.0866,1.9769,1.9321,1.9233,1.902,1.8618,1.794,1.779,1.8191,1.7215,1.6701,1.6724,1.6651,1.6873,1.7336,1.681,1.6737,1.7236,1.6785,1.6513,1.6522,1.7013,1.7558,1.8072,1.8602,1.9542,0.0,2.1135,0.0,0.0,0.0,0.0,0.0,0.0,0.0,0.0,2.0656,1.9796,1.8181,1.7943,1.7797,1.7575,1.7827,1.7977,1.7874,1.7409,1.7081,1.704,1.6134,1.5699,1.6205,1.6227,1.5321,1.3284,1.2915,1.3275,1.407,1.4245,1.463,1.5719,1.6429,1.6346,1.5158,1.4948,1.4969,1.5342,1.542,1.542,1.542,1.542,1.542,1.542,1.542,1.542,1.5396,1.5294,1.522,1.525,1.5308,1.5103,1.4228,1.3334,1.322,1.4551,1.4952,1.5094,3.2802,3.2315,3.122,3.06,3.0163,2.8287,2.7406,2.7311,2.7432,2.8347,2.9801,3.0133,3.0218,3.0088,2.9503,2.9232,2.9217,2.9232,2.9159,2.9052,2.9159,2.8815,2.8023,2.7348,2.6483,2.5466,2.3958,2.2972,2.2432,2.1608,2.1125,2.103,2.059,2.0553,2.0778,0.0,0.0,0.0,1.799,1.7877,1.7866,1.7462,1.7274,1.7385,1.6823,0.0,1.6661,1.6574,1.6513,1.6522,1.7024,0.0,0.0,0.0,0.0,0.0,0.0,0.0,0.0,0.0,0.0,0.0,1.9617,1.9618,2.0348,2.0087,1.9266,1.7837,1.716,1.6961,1.7322,1.7425,1.7271,1.6858,1.6265,1.5929,1.5895,1.5287,1.4926,1.5017,1.4767,1.4154,1.3128,1.2915,1.2983,1.3196,1.3196,1.3287,1.3583,1.4175,1.4332,1.4072,1.3748,1.3915,1.5195,1.5371,1.541,1.542,1.542,1.542,1.542,1.5381,1.5396,1.5352,1.4874,1.4436,1.4436,1.4947,1.4874,1.3524,1.2097,1.1547,1.3097,1.3464,1.3453,3.3833,3.2819,3.238,3.1578,0.0,2.9342,2.8893,2.8923,2.8068,2.8684,3.0315,3.0791,3.1002,3.0972,3.0328,3.0057,3.0028,3.0042,2.9699,2.9144,2.9744,2.952,2.8577,2.7929,2.7214,2.6424,2.4522,2.3349,2.2878,2.1969,2.1481,2.1481,2.1231,2.1232,2.1457,2.0402,1.9296,1.8216,1.8192,1.8192,1.8167,1.7677,1.7525,1.7763,1.695,0.0,0.0,0.0,0.0,0.0,0.0,0.0,0.0,1.8602,0.0,2.0131,2.0379,2.0552,2.0661,2.0333,2.0137,2.0172,1.9684,1.9413,1.9612,1.9193,1.8638,1.7949,1.7046,1.6605,1.6869,1.6629,1.6362,1.6061,1.5522,1.5152,1.5084,1.4606,1.4387,1.4549,1.4001,1.3334,1.2966,1.2915,1.2915,1.2915,1.2915,1.2915,1.2935,1.3128,1.3313,1.3361,1.3128,1.3201,1.4023,1.4957,1.5259,1.5098,1.5225,1.5376,1.542,1.5065,1.4815,1.4756,1.4154,1.3614,1.3636,1.3951,1.3822,1.265,1.1445,1.0841,1.1727,1.2442,1.2996,3.4431,3.2835,3.3258,3.2405,3.0789,3.0499,3.0496,3.054,2.9022,0.0,0.0,3.1397,3.1675,3.163,3.1106,3.0777,3.0687,3.0687,3.0104,2.919,3.0179,3.0044,2.8921,2.8222,2.7746,2.7338,2.5018,2.3744,2.3474,2.245,2.1934,2.1934,2.1832,2.1694,2.1495,2.1055,2.0126,1.8706,1.853,1.8468,1.8468,1.7953,1.784,1.818,1.7201,1.6837,1.7211,1.676,1.6549,1.666,1.7065,1.7547,1.8098,1.8738,1.9464,2.0293,2.0586,2.0897,2.131,2.0448,2.0032,2.0391,1.9953,1.9443,1.8958,1.8601,1.8306,1.8087,1.712,1.6468,1.6346,1.5908,1.5565,1.5454,1.4892,1.4549,1.4503,1.3991,1.3814,1.4177,1.3501,1.2915,1.2915,1.2915,1.2915,1.2915,1.2915,1.2915,1.2915,1.2935,1.2954,1.2964,1.2929,1.2935,1.3074,1.3599,1.4489,1.4441,1.4794,1.5085,1.5003,1.4597,1.4204,1.3995,1.3334,1.2887,1.2772,1.2673,1.2366,1.1717,1.1076,1.0586,1.0697,1.1632,1.2452,3.5303,3.4999,3.4523,3.4163,3.3766,3.2449,3.1905,3.189,3.1245,3.1427,3.2214,3.2318,3.2377,3.2348,3.2273,3.1899,3.1376,3.1361,3.1256,3.1107,3.1271,3.0957,3.0209,2.9437,2.8407,2.7177,2.5654,2.4538,2.3966,2.3727,2.3653,2.3577,2.3135,2.2433,2.1583,2.1419,2.1042,2.0352,1.9849,1.9572,1.9572,1.907,1.8569,1.8192,1.76,1.7049,1.6649,1.6574,1.6748,1.7234,1.7275,1.7557,1.8179,1.9163,1.9592,1.9244,2.0128,2.0516,2.0102,1.9906,1.9642,1.9268,1.9158,1.9061,1.9006,1.9336,1.8989,1.7672,1.6895,1.627,1.5809,1.5644,1.5332,1.4869,1.4295,1.3921,1.3909,1.3442,1.3113,1.3222,1.3027,1.2915,1.2915,1.2915,1.2915,1.2915,1.2915,1.2915,1.2915,1.2915,1.2915,1.2915,1.2915,1.2915,1.2771,1.1955,1.2344,1.3606,1.3907,1.4008,1.3935,1.3935,1.3763,1.3274,1.2504,1.2035,1.1958,1.1382,1.1083,1.0863,1.0681,1.0586,1.0586,1.0895,1.105,3.5489,3.5459,3.5175,3.4832,3.4411,3.335,3.2898,3.29,3.269,3.2751,3.302,3.3051,3.2841,3.2542,3.2886,3.2677,3.2048,3.2048,3.1854,3.1511,3.1496,3.1137,3.0523,3.0111,2.9174,2.7739,2.6734,2.563,2.4523,2.4428,2.4443,2.4415,2.4164,2.3625,2.2887,2.2521,2.1943,2.1143,2.0578,2.0138,1.9785,1.9284,1.887,1.8644,1.8116,1.7703,1.7427,1.7427,1.7551,1.7815,1.7802,1.8031,1.8602,1.9027,1.9297,1.9397,1.9908,2.0111,1.9828,1.9802,1.9578,1.9075,1.926,1.9425,1.9426,1.911,1.8753,1.8228,1.6646,1.5674,1.5945,1.52,1.4515,1.4236,1.3671,1.3334,1.3298,1.3091,1.2915,1.2915,1.2915,1.2915,1.2915,1.2915,1.2915,1.2915,1.2915,1.2915,1.2915,1.2915,1.2915,1.2915,1.2903,1.2664,1.223,1.1434,1.1375,1.2376,1.2715,1.2907,1.2955,1.2953,1.2574,1.2364,1.1695,1.1226,1.1163,1.0879,1.0634,1.0586,1.0586,1.0586,1.0586,1.0586,1.0749,3.5489,3.5489,3.5489,3.519,3.4651,3.3993,3.3814,3.3918,3.3784,3.3799,3.3918,3.3814,3.3425,3.3036,3.3515,3.3365,3.2796,3.2721,3.2452,3.1989,3.1944,3.166,3.1165,3.0849,3.0003,2.873,2.7678,2.6461,2.5299,2.5055,2.498,2.498,2.498,2.4716,2.418,2.36,2.2822,2.1895,2.1331,2.0666,1.9823,1.9384,1.9121,1.8983,1.8606,1.833,1.8205,1.8192,1.8255,1.8355,1.8255,1.8442,1.8953,1.9004,1.9188,1.9593,1.993,1.9989,1.9827,1.9801,1.9628,1.9221,1.956,1.9811,1.9736,1.9058,1.8533,1.8363,1.6479,1.5381,1.551,1.4642,1.3755,1.36,1.319,1.2954,1.2915,1.2915,1.2915,1.2915,1.2915,1.2915,1.2915,1.2915,1.2915,1.2915,1.2915,1.2915,1.2915,1.2915,1.2915,1.2915,1.2915,1.2581,1.1705,1.0804,1.0701,1.1178,1.1617,1.1895,1.2023,1.167,1.1428,1.152,1.1071,1.0721,1.0618,1.0602,1.0553,1.0499,1.0519,1.0586,1.0586,1.0508,1.0793,3.5489,3.5489,3.5489,3.5474,3.531,3.4682,3.4727,3.516,3.4667,3.4756,3.516,3.4682,3.4369,3.4308,3.4368,3.4039,3.3455,3.341,3.3365,3.329,3.332,3.3275,3.3006,3.1811,3.0945,3.0264,2.8189,2.6892,2.6282,2.5804,2.5536,2.5523,2.5523,2.5285,2.4745,2.4205,2.3602,2.2942,2.242,2.1393,1.9911,1.9761,1.9484,1.902,1.897,1.8694,1.828,1.8192,1.843,1.8832,1.8468,1.8454,1.8991,1.9543,1.9623,1.9201,2.0253,2.0664,1.9914,1.98,1.9774,1.9748,1.9761,1.9785,1.9773,1.9685,1.8983,1.7676,1.6703,1.5538,1.4278,1.3923,1.3623,1.3175,1.3005,1.2915,1.2944,1.2915,1.2915,1.2915,1.2974,1.2915,1.2925,1.2915,1.2915,1.2915,1.2915,1.2915,1.2915,1.2915,1.2915,1.2915,1.2915,1.2571,1.1724,1.0128,0.9786,1.0573,1.0924,1.0986,1.0992,1.1301,1.1572,1.0959,1.0662,1.0521,1.0586,1.0579,1.0457,1.0301,1.0367,1.0573,1.0568,1.0385,1.0602,3.5489,3.5489,3.5489,3.5489,3.5444,3.519,3.5235,3.5459,3.5205,3.525,3.5459,3.5205,3.4877,3.4518,3.4922,3.4742,3.4113,3.4099,3.4084,3.4054,3.3694,3.3499,3.3409,3.2898,3.2002,3.082,2.9686,2.843,2.7156,2.6721,2.6461,2.6206,2.6444,2.6163,2.5335,2.5059,2.4352,2.3145,2.2882,2.2132,2.0941,2.0477,2.0226,2.0,1.9673,1.9384,1.9171,1.9145,1.9258,1.9434,1.9258,1.9233,1.9472,1.9735,1.9759,1.9522,2.0003,2.0335,2.0327,2.0012,1.9962,2.0301,1.9987,1.9631,1.9215,1.9553,1.8898,1.6794,1.5587,1.4951,1.4941,1.4399,1.3773,1.3361,1.3252,1.3264,1.3252,1.3252,1.3281,1.3356,1.3366,1.3232,1.2993,1.2915,1.2915,1.2915,1.2915,1.2915,1.2915,1.2915,1.2915,1.2915,1.2915,1.24,1.1388,0.9891,0.9263,0.9456,0.9646,0.9672,1.0122,1.0093,1.0248,1.0506,1.0334,1.0311,1.0559,1.0396,1.0241,1.0112,0.9974,1.0093,1.0214,1.0169,1.0587,3.5489,3.5489,3.5489,3.5489,3.5489,3.5489,3.5489,3.5489,3.5489,3.5489,3.5489,3.5489,3.525,3.4876,3.5295,3.522,3.4817,3.4772,3.4772,3.4712,3.4262,3.4068,3.4037,3.3838,3.3032,3.1769,3.1041,2.9632,2.7723,2.7525,2.7324,2.7047,2.7324,2.703,2.6168,2.5954,2.5172,2.3926,2.3659,2.311,2.2246,2.1631,2.1218,2.093,2.0502,2.0263,2.025,2.0263,2.0201,2.0049,2.0037,1.9962,1.9811,1.9811,1.9811,1.9811,1.9811,1.9987,2.044,2.005,1.9974,2.0365,2.0024,1.9488,1.8939,1.9018,1.8245,1.6422,1.5079,1.4868,1.5124,1.4606,1.3991,1.3685,1.3669,1.3656,1.3669,1.3646,1.3695,1.3792,1.3704,1.3568,1.3216,1.3135,1.3152,1.3103,1.2971,1.2915,1.2915,1.2893,1.2835,1.262,1.2449,1.1965,1.1049,0.9744,0.8982,0.8824,0.8944,0.9207,0.9512,0.9365,0.9408,1.0106,0.9892,0.9877,1.0152,1.0082,1.0047,0.9967,0.9809,0.9725,1.0033,1.0068,1.0466,3.5489,3.5489,3.5489,3.5489,3.5489,3.5489,3.5489,3.5489,3.5489,3.5489,3.5489,3.5489,3.5474,3.5413,3.5474,3.5474,3.5444,3.54,3.54,3.5385,3.534,3.5385,3.537,3.4771,3.4214,3.3467,3.1782,2.9938,2.8163,2.8053,2.8041,2.8021,2.8034,2.7783,2.716,2.6658,2.6147,2.5347,2.4879,2.4402,2.3813,2.3221,2.2458,2.162,2.1432,2.133,2.1369,2.1407,2.1168,2.068,2.0654,2.0402,1.9924,1.9836,1.9836,1.9811,1.9811,1.9823,1.9899,1.9849,1.9849,1.9886,1.9874,1.9462,1.8661,1.8167,1.7448,1.6511,1.5666,1.5042,1.4509,1.439,1.4182,1.4104,1.4085,1.4062,1.4071,1.4088,1.4085,1.4104,1.3997,1.3893,1.3714,1.3656,1.3581,1.3441,1.3154,1.2932,1.291,1.2913,1.2657,1.2061,1.1525,1.1015,1.1162,0.993,0.8962,0.8818,0.8931,0.915,0.9291,0.9432,0.9605,0.9764,0.9786,0.9778,0.9791,0.9818,0.9864,0.9749,0.9506,0.9499,0.9956,1.0053,1.0373,3.5489,3.5489,3.5489,3.5489,3.5489,3.5489,3.5489,3.5489,3.5489,3.5489,3.5489,3.5489,3.5489,3.5489,3.5489,3.5489,3.5489,3.5489,3.5489,3.5489,3.5489,3.5489,3.5474,3.5235,3.4704,3.3861,3.2601,3.078,2.8822,2.8587,2.843,2.8204,2.8442,2.8197,2.7412,2.7128,2.6557,2.569,2.5385,2.4895,2.4104,2.3775,2.3298,2.2546,2.1845,2.1481,2.1481,2.1481,2.1407,2.1206,2.1206,2.1105,2.0878,2.0565,2.0201,1.9874,1.9811,1.9962,2.0263,2.0025,1.9987,2.0314,2.0025,1.9267,1.8234,1.7704,1.7107,1.6065,1.5599,1.521,1.504,1.4923,1.482,1.4596,1.4537,1.4537,1.4551,1.4561,1.4639,1.4839,1.4839,1.4791,1.46,1.4306,1.3949,1.389,1.3743,1.3429,1.2997,1.29,1.2826,1.2367,1.1359,1.0547,1.0986,0.9808,0.8811,0.8811,0.8891,0.9017,0.9171,0.9098,0.9207,0.9496,0.9594,0.9567,0.9524,0.9483,0.9552,0.9528,0.9262,0.9492,0.9915,1.0037,1.026,3.5489,3.5489,3.5489,3.5489,3.5489,3.5489,3.5489,3.5489,3.5489,3.5489,3.5489,3.5489,3.5489,3.5489,3.5489,3.5489,3.5489,3.5489,3.5489,3.5489,3.5489,3.5489,3.5489,3.5489,3.5149,3.4361,3.3171,3.1527,2.9804,2.9322,2.9001,2.8712,2.9019,2.8618,2.7745,2.7738,2.7193,2.6168,2.6067,2.5611,2.4644,2.434,2.4076,2.36,2.2774,2.2196,2.2019,2.202,2.192,2.1782,2.1757,2.1608,2.1257,2.0905,2.0427,1.9911,2.0,2.0163,2.0326,2.0037,2.0062,2.0603,2.0137,1.9238,1.8045,1.7709,1.687,1.5835,1.542,1.542,1.542,1.54,1.5293,1.5053,1.498,1.499,1.499,1.4995,1.5107,1.5303,1.5342,1.5381,1.5323,1.4741,1.4278,1.4011,1.403,1.3731,1.2897,1.3062,1.3167,1.2867,1.1658,1.0599,1.0239,0.925,0.8811,0.8811,0.8811,0.8931,0.8971,0.8871,0.8905,0.9198,0.9305,0.9265,0.9231,0.9191,0.9198,0.9225,0.9383,0.956,0.9838,1.0038,1.0241,3.5489,3.5489,3.5489,3.5489,3.5489,3.5489,3.5489,3.5489,3.5489,3.5489,3.5489,3.5489,3.5489,3.5489,3.5489,3.5489,3.5489,3.5489,3.5489,3.5489,3.5489,3.5489,3.5489,3.5504,3.5392,3.5133,3.3498,3.2164,3.1138,3.0291,2.9807,2.9793,2.9717,2.9151,2.8104,2.8455,2.8028,2.6922,2.6927,2.6603,2.5674,2.5042,2.4766,2.4637,2.4155,2.3625,2.3133,2.3083,2.2822,2.2372,2.2257,2.1782,2.0993,2.083,2.0503,2.0088,2.0377,2.0377,1.9962,1.9874,2.0062,2.0603,2.0201,1.9495,1.8525,1.7891,1.6996,1.5734,1.542,1.542,1.542,1.542,1.5386,1.5376,1.5342,1.5342,1.5347,1.5391,1.541,1.542,1.542,1.5381,1.5274,1.4863,1.4309,1.3812,1.3768,1.3741,1.2928,1.3259,1.3493,1.3032,1.1839,1.0618,0.9664,0.8824,0.8818,0.8818,0.8804,0.8838,0.8851,0.8798,0.8804,0.9025,0.9125,0.9091,0.9078,0.9045,0.8938,0.9005,0.9261,0.9512,0.9704,0.992,1.0187,3.5489,3.5489,3.5489,3.5489,3.5489,3.5489,3.5489,3.5489,3.5489,3.5489,3.5489,3.5489,3.5489,3.5489,3.5489,3.5489,3.5489,3.5489,3.5489,3.5489,3.5489,3.5489,3.5489,3.5489,3.5133,3.4478,3.3891,3.3084,3.2141,3.1199,3.0758,3.0677,3.0101,2.9434,2.8693,2.8775,2.8254,2.7236,2.7198,2.6746,2.5728,2.5435,2.5184,2.4829,2.4628,2.444,2.4277,2.3913,2.3449,2.2882,2.2495,2.197,2.1457,2.1594,2.1355,2.0578,2.0592,2.0667,2.0415,2.0088,2.0276,2.0917,2.0742,1.9803,1.8657,1.7949,1.6964,1.5661,1.542,1.542,1.542,1.542,1.542,1.542,1.542,1.542,1.542,1.542,1.542,1.542,1.542,1.4962,1.4148,1.3878,1.3867,1.331,1.3294,1.3345,1.3977,1.311,1.2812,1.2763,1.1561,1.0785,1.0296,0.9574,0.9085,0.8991,0.8911,0.8804,0.8791,0.8791,0.8791,0.8818,0.8911,0.8951,0.8931,0.8898,0.8824,0.8858,0.9126,0.9347,0.9553,0.984,1.0209,3.5489,3.5489,3.5489,3.5489,3.5489,3.5489,3.5489,3.5489,3.5489,3.5489,3.5489,3.5489,3.5489,3.5489,3.5489,3.5489,3.5489,3.5489,3.5489,3.5489,3.5489,3.5489,3.5489,3.5489,3.523,3.4593,3.4163,3.3705,3.3084,3.1852,3.1185,3.1031,3.026,2.9503,2.8988,2.9082,2.8637,2.7537,2.7469,2.706,2.613,2.5728,2.5565,2.5394,2.5218,2.4992,2.4804,2.4465,2.4026,2.3424,2.2721,2.2144,2.1857,2.2069,2.1893,2.1243,2.1182,2.1231,2.1006,2.0691,2.0804,2.152,2.1294,2.0374,1.904,1.8123,1.6975,1.5705,1.542,1.542,1.542,1.542,1.542,1.542,1.542,1.542,1.542,1.542,1.542,1.5337,1.5035,1.4243,1.3496,1.3212,1.3222,1.2751,1.283,1.2753,1.3485,1.2826,1.27,1.2418,1.1586,1.118,1.1216,1.0449,0.947,0.9212,0.9051,0.8891,0.8791,0.8791,0.8791,0.8791,0.8858,0.8865,0.8851,0.8838,0.8804,0.8918,0.9044,0.9251,0.9526,1.0028,1.035,3.5489,3.5489,3.5489,3.5489,3.5489,3.5489,3.5489,3.5489,3.5489,3.5489,3.5489,3.5489,3.5489,3.5489,3.5489,3.5489,3.5489,3.5489,3.5489,3.5489,3.5489,3.5489,3.5489,3.5489,3.5424,3.5231,3.456,3.416,3.3993,3.2464,3.1315,3.1296,3.0488,2.9579,2.9246,2.9528,2.8988,2.7808,2.7883,2.7507,2.6545,2.5996,2.5904,2.6348,2.5917,2.546,2.5118,2.4842,2.4453,2.3825,2.2849,2.237,2.2282,2.232,2.2146,2.1681,2.2058,2.1934,2.1658,2.1382,2.1631,2.2194,2.1626,2.0917,1.9526,1.8492,1.7272,1.5782,1.5693,1.5674,1.5605,1.5571,1.5552,1.5469,1.5459,1.5391,1.5308,1.5288,1.5273,1.5137,1.4442,1.3379,1.2704,1.2683,1.2382,1.2073,1.2251,1.205,1.1662,1.175,1.2364,1.1989,1.122,1.1159,1.1056,1.0574,0.9706,0.9733,0.946,0.9118,0.8878,0.8831,0.8791,0.8791,0.8791,0.8791,0.8818,0.8825,0.8865,0.8958,0.9091,0.9251,0.9613,1.0107,1.037,3.5489,3.5489,3.5489,3.5489,3.5489,3.5489,3.5489,3.5489,3.5489,3.5489,3.5489,3.5489,3.5489,3.5489,3.5489,3.5489,3.5489,3.5489,3.5489,3.5489,3.5489,3.5489,3.5489,3.5489,3.5489,3.5424,3.5166,3.5116,3.5003,3.3722,3.2837,3.2213,3.1217,3.0355,2.975,2.9704,2.9365,2.8543,2.8154,2.7795,2.7123,2.6532,2.6336,2.6436,2.6336,2.6172,2.5954,2.5234,2.4114,2.2884,2.2895,2.2604,2.2243,2.2569,2.2744,2.2633,2.2395,2.2284,2.2056,2.1744,2.1958,2.261,2.1606,2.0584,2.0313,1.9387,1.7997,1.6718,1.6728,1.6904,1.6299,1.6205,1.6186,1.5923,1.5629,1.5176,1.4751,1.4608,1.4833,1.5057,1.311,1.1925,1.1459,1.1379,1.1291,1.1113,1.1145,1.1269,1.0942,1.085,1.1486,1.1236,1.0773,1.0836,1.0743,1.0336,1.0095,1.0236,0.9941,0.9433,0.9152,0.8931,0.8851,0.8791,0.8791,0.8791,0.8871,0.8931,0.8984,0.8971,0.9318,0.9559,0.9785,1.018,1.0356,3.5489,3.5489,3.5489,3.5489,3.5489,3.5489,3.5489,3.5489,3.5489,3.5489,3.5489,3.5489,3.5489,3.5489,3.5489,3.5489,3.5489,3.5489,3.5489,3.5489,3.5489,3.5489,3.5489,3.5489,3.5489,3.5489,3.5489,3.5473,3.5295,3.4493,3.3533,3.2554,3.1651,3.072,2.9812,2.9767,2.9496,2.8957,2.8555,2.8097,2.7336,2.6997,2.6713,2.6562,2.6474,2.6411,2.6042,2.5243,2.4214,2.3298,2.3073,2.2895,2.2569,2.2844,2.3095,2.3083,2.2797,2.2646,2.2581,2.2332,2.2282,2.2392,2.1476,2.0653,1.9916,1.9307,1.8318,1.6694,1.7194,1.7191,1.6846,1.6677,1.6586,1.6321,1.5758,1.511,1.4478,1.4256,1.4336,1.4141,1.31,1.1379,1.0792,1.0723,1.0693,1.0665,1.0681,1.0703,1.0618,1.0586,1.0586,1.0586,1.0586,1.0674,1.0737,1.0423,1.0283,1.0439,1.0216,0.9727,0.9392,0.9071,0.8931,0.8851,0.8818,0.8838,0.8938,0.8984,0.8918,0.9058,0.9492,0.978,0.996,1.014,1.0316,3.5489,3.5489,3.5489,3.5489,3.5489,3.5489,3.5489,3.5489,3.5489,3.5489,3.5489,3.5489,3.5489,3.5488,3.5654,3.5623,3.5639,3.5848,3.5744,3.5729,3.5684,3.5699,3.5699,3.5549,3.5504,3.5489,3.5489,3.5489,3.5311,3.4576,3.3722,3.289,3.1906,3.0927,3.0203,2.9914,2.9515,2.9145,2.8907,2.8442,2.772,2.7374,2.7022,2.6738,2.6524,2.6281,2.5841,2.5218,2.4641,2.4177,2.3584,2.3296,2.3183,2.3108,2.3145,2.3108,2.3058,2.2987,2.2919,2.2729,2.2555,2.1981,2.1611,2.07,1.8987,1.8464,1.7978,1.6682,1.6908,1.7249,1.7184,1.6941,1.6644,1.6345,1.5686,1.503,1.4544,1.4047,1.3711,1.3614,1.3312,1.2383,1.1485,1.0851,1.0914,1.062,1.0586,1.0586,1.0586,1.0586,1.0586,1.0586,1.0586,1.0586,1.0602,1.0559,1.0533,1.0539,1.0267,0.9885,0.9585,0.9298,0.9065,0.8971,0.9126,0.9132,0.9071,0.9038,0.9018,0.9225,0.9705,0.9833,0.9928,1.0122,1.0311,3.5489,3.5489,3.5489,3.5489,3.5489,3.5489,3.5489,3.5489,3.5489,3.5489,3.5489,3.5489,3.5489,3.5534,3.5983,3.6299,3.6297,3.6611,3.6761,3.6314,3.6284,3.6284,3.6133,3.5789,3.5549,3.5534,3.5504,3.5489,3.5375,3.5166,3.4643,3.3636,3.2642,3.1829,3.0908,3.0101,2.9767,2.9541,2.9157,2.8831,2.8392,2.772,2.7324,2.7097,2.6751,2.6474,2.6248,2.5753,2.5398,2.5159,2.4732,2.4114,2.3449,2.3512,2.3441,2.3092,2.302,2.2793,2.2307,2.2125,2.1959,2.1393,2.0268,1.8786,1.7676,1.756,1.7481,1.7178,1.7532,1.7744,1.7688,1.7122,1.6631,1.6085,1.5136,1.4189,1.3597,1.332,1.2907,1.2351,1.2242,1.2145,1.1897,1.1226,1.1012,1.07,1.0586,1.0586,1.0586,1.0586,1.0586,1.0586,1.0586,1.0586,1.0586,1.057,1.0532,1.0532,1.031,1.0102,0.9798,0.9672,0.952,0.9483,0.9533,0.947,0.9319,0.9489,0.9559,0.975,0.9878,0.9993,1.0102,1.0231,1.0327,3.5789,3.5504,3.5489,3.5489,3.5489,3.5489,3.5489,3.5489,3.5489,3.5489,3.5489,3.5489,3.5489,3.5549,3.6179,3.6493,3.6643,3.709,3.706,3.6671,3.6686,3.6567,3.6133,3.6028,3.5953,3.5923,3.5624,3.5504,3.5489,3.5424,3.4922,3.3993,3.3066,3.2069,3.1199,3.0279,2.9837,2.9741,2.9503,2.9208,2.8806,2.838,2.7871,2.762,2.7173,2.6876,2.6821,2.6331,2.6055,2.5942,2.5703,2.4933,2.375,2.3547,2.3216,2.2669,2.2522,2.2125,2.1549,2.1254,2.1026,2.0467,1.942,1.8584,1.7797,1.7532,1.7561,1.7686,1.7852,1.7998,1.7944,1.7182,1.6546,1.6042,1.4838,1.3811,1.3381,1.2851,1.2375,1.1912,1.2087,1.2179,1.1997,1.1536,1.1072,1.074,1.0593,1.0586,1.0586,1.0586,1.0586,1.0586,1.0586,1.0586,1.0586,1.0555,1.0462,1.0455,1.0398,1.0223,1.0027,1.0005,1.0037,0.9927,0.9789,0.9679,0.9609,0.9829,0.9925,0.986,0.9908,1.0129,1.0276,1.0318,1.0405,3.6119,3.5489,3.5489,3.5489,3.5489,3.5489,3.5489,3.5489,3.5489,3.5489,3.5489,3.5489,3.5489,3.5639,3.6209,3.6508,3.6823,3.724,3.7345,3.6851,3.712,3.6941,3.6462,3.6402,3.6493,3.6523,3.5848,3.5534,3.5489,3.5457,3.5133,3.4194,3.3084,3.2303,3.1402,3.0355,2.9779,2.9767,2.9729,2.9534,2.912,2.8907,2.853,2.8034,2.767,2.7336,2.7185,2.6839,2.6524,2.6386,2.6268,2.5361,2.4156,2.3322,2.2705,2.1956,2.1831,2.127,2.0606,2.0349,2.0058,1.921,1.9067,1.875,1.8155,1.7922,1.793,1.7949,1.8008,1.8008,1.793,1.7157,1.6608,1.6044,1.4702,1.3799,1.3324,1.2457,1.215,1.2196,1.2198,1.2251,1.2091,1.1713,1.1246,1.0804,1.068,1.0586,1.0586,1.0586,1.0586,1.0586,1.0586,1.0586,1.0586,1.0586,1.05,1.0471,1.0436,1.0357,1.0253,1.0289,1.0271,1.009,0.9943,0.9903,0.9912,1.0025,1.0026,0.9878,0.9997,1.0291,1.0385,1.0399,1.0466,3.6104,3.5489,3.5489,3.5489,3.5489,3.5489,3.5489,3.5489,3.5489,3.5489,3.5489,3.5489,3.5489,3.5669,3.6193,3.6763,3.7285,3.7808,3.7823,3.733,3.7464,3.736,3.7345,3.6821,3.6793,3.6821,3.6178,3.5594,3.5504,3.5457,3.5328,3.4856,3.3429,3.2429,3.1883,3.0771,2.9779,2.9779,2.9779,2.9679,2.9528,2.917,2.8794,2.831,2.8084,2.777,2.7412,2.7185,2.6733,2.5824,2.5318,2.4332,2.3248,2.271,2.2106,2.1698,2.1112,2.043,1.9694,1.9507,1.9061,1.8462,1.8303,1.8286,1.8059,1.8008,1.8008,1.8008,1.8008,1.8008,1.7974,1.7052,1.6227,1.5464,1.4432,1.3382,1.2755,1.2378,1.2171,1.2291,1.2305,1.2164,1.1844,1.1617,1.1283,1.0885,1.0693,1.0613,1.0586,1.0586,1.0586,1.0586,1.0586,1.0586,1.0586,1.0586,1.0555,1.0555,1.0541,1.0541,1.0478,1.0532,1.0466,1.0298,1.0285,1.0332,1.0332,1.0295,1.0289,1.0249,1.0365,1.0472,1.0466,1.0452,1.0434,3.6088,3.5504,3.5489,3.5489,3.5489,3.5489,3.5489,3.5489,3.5489,3.5489,3.5489,3.5489,3.5489,3.5669,3.6193,3.6971,3.7793,3.8197,3.8197,3.7928,3.7928,3.7599,3.7644,3.7045,3.6701,3.6492,3.6058,3.5774,3.5519,3.5489,3.5489,3.5034,3.3564,3.2611,3.2177,3.0746,2.9921,2.9779,2.9779,2.9779,2.9779,2.9446,2.917,2.9001,2.8637,2.8242,2.777,2.7369,2.6922,2.5936,2.4505,2.3606,2.2702,2.1384,2.0352,2.0448,2.0155,1.9562,1.8821,1.863,1.8411,1.8117,1.8008,1.8008,1.8008,1.8008,1.8008,1.8008,1.8008,1.8008,1.7974,1.6741,1.5781,1.5092,1.3936,1.2915,1.247,1.2323,1.2305,1.2305,1.2305,1.2017,1.136,1.1206,1.1162,1.0985,1.0734,1.064,1.0593,1.0586,1.0586,1.0586,1.0586,1.0586,1.0586,1.0586,1.0586,1.0586,1.0586,1.0586,1.0586,1.0586,1.0586,1.0512,1.0573,1.0586,1.0564,1.0451,1.0541,1.0586,1.0559,1.0526,1.0519,1.0499,1.0521,3.6207,3.5503,3.5654,3.5624,3.5519,3.5489,3.5489,3.5489,3.5489,3.5489,3.5489,3.5489,3.5489,3.5669,3.6222,3.7047,3.8065,3.817,3.8347,3.8332,3.8317,3.7823,3.7479,3.6956,3.6821,3.6432,3.5998,3.6028,3.5594,3.5489,3.5489,3.497,3.355,3.2593,3.2213,3.0727,3.0056,2.9779,2.9779,2.9779,2.9779,2.9779,2.9779,2.9779,2.9308,2.8781,2.8066,2.772,2.7035,2.5845,2.4312,2.286,2.2533,2.0087,1.864,1.8944,1.9027,1.863,1.8269,1.8059,1.81,1.8008,1.8008,1.8008,1.8008,1.8008,1.8008,1.8008,1.8008,1.8008,1.7777,1.6324,1.5429,1.4835,1.3593,1.2305,1.2323,1.2305,1.2305,1.2305,1.2305,1.1991,1.1447,1.1059,1.1076,1.0985,1.0747,1.0633,1.0586,1.0586,1.0586,1.0586,1.0586,1.0586,1.0586,1.0586,1.0586,1.0586,1.0586,1.0586,1.0586,1.0586,1.0586,1.0586,1.0586,1.0586,1.0586,1.0593,1.0586,1.0586,1.0586,1.0633,1.07,1.0756,1.077,3.6596,3.5564,3.6134,3.6043,3.5549,3.5489,3.5489,3.5489,3.5489,3.5489,3.5489,3.5489,3.5489,3.5639,3.6149,3.6568,3.7047,3.7719,3.8215,3.8245,3.8272,3.8422,3.8556,3.7195,3.7045,3.6686,3.6086,3.5654,3.5504,3.5489,3.5424,3.5003,3.3619,3.254,3.2213,3.0671,2.9837,2.9779,2.9779,2.9779,2.9779,2.9779,2.9779,2.9767,2.9628,2.9126,2.8254,2.7896,2.727,2.5685,2.4262,2.2854,2.1686,2.0413,1.9062,1.8462,1.8144,1.8127,1.8025,1.8008,1.8008,1.8008,1.8008,1.8008,1.8008,1.8008,1.8008,1.8008,1.8008,1.8008,1.7708,1.6289,1.5464,1.4575,1.3502,1.2556,1.2305,1.2305,1.2305,1.2258,1.2245,1.2078,1.171,1.1323,1.1019,1.0891,1.078,1.0667,1.0586,1.0586,1.0586,1.0586,1.0586,1.0586,1.0586,1.0586,1.0586,1.0586,1.0586,1.0586,1.0586,1.0586,1.0586,1.0586,1.0586,1.0626,1.068,1.0673,1.0613,1.0667,1.0744,1.0838,1.0932,1.0975,1.1031,3.6342,3.5534,3.5804,3.5774,3.5519,3.5489,3.5489,3.5489,3.5489,3.5489,3.5489,3.5489,3.5489,3.5594,3.5848,3.6148,3.6553,3.7122,3.7524,3.7838,3.7898,3.8015,3.8093,3.7764,3.7569,3.6911,3.6641,3.6178,3.5818,3.5454,3.531,3.4543,3.3359,3.2236,3.196,3.0514,2.9921,2.9779,2.9779,2.9779,2.9779,2.9779,2.9779,2.9779,2.9779,2.9151,2.8398,2.8084,2.7122,2.5507,2.4128,2.277,2.1146,1.9676,1.8445,1.8168,1.8025,1.8025,1.8008,1.8008,1.8018,1.8018,1.8018,1.8008,1.8008,1.8008,1.8008,1.8008,1.8008,1.8008,1.7681,1.6263,1.5552,1.4665,1.343,1.2769,1.2305,1.2305,1.2291,1.2238,1.2196,1.2064,1.1917,1.1577,1.1162,1.0878,1.0787,1.0693,1.062,1.0586,1.0586,1.0586,1.0586,1.0586,1.0586,1.0586,1.0586,1.0586,1.0586,1.0586,1.0586,1.0586,1.0586,1.0586,1.0586,1.0653,1.0754,1.0754,1.07,1.0811,1.0949,1.1085,1.1216,1.1286,1.1326,3.5953,3.5534,3.5684,3.5669,3.5488,3.5489,3.5489,3.5489,3.5489,3.5489,3.5489,3.5489,3.5489,3.5504,3.5579,3.5908,3.6477,3.6508,3.6881,3.7255,3.7569,3.7716,3.7958,3.808,3.7856,3.6958,3.718,3.6731,3.6088,3.5709,3.537,3.4324,3.3255,3.2379,3.1494,3.0495,2.9779,2.9779,2.9779,2.9779,2.9779,2.9779,2.9779,2.9779,2.9666,2.9264,2.8279,2.7742,2.6676,2.5283,2.3594,2.216,2.0843,1.9219,1.8241,1.8008,1.8008,1.8008,1.8008,1.8018,1.8066,1.8118,1.8144,1.8174,1.8008,1.8008,1.8008,1.8008,1.8008,1.8008,1.763,1.6298,1.5464,1.4575,1.3484,1.2824,1.2305,1.2293,1.2305,1.2271,1.2231,1.2204,1.2024,1.1764,1.139,1.0958,1.0771,1.0711,1.0673,1.0646,1.064,1.0653,1.0613,1.0606,1.0586,1.0586,1.0586,1.0586,1.0586,1.0586,1.0586,1.0586,1.0586,1.0586,1.0586,1.0727,1.0838,1.0804,1.0798,1.1022,1.1229,1.14,1.1515,1.1597,1.1744,3.5549,3.5564,3.6148,3.6028,3.5489,3.5489,3.5489,3.5489,3.5489,3.5489,3.5489,3.5489,3.5489,3.5489,3.5549,3.5833,3.6449,3.6493,3.6806,3.736,3.7975,3.8123,3.8257,3.8335,3.8365,3.8035,3.7689,3.703,3.6508,3.6103,3.5844,3.5255,3.3647,3.2855,3.1942,3.0846,2.996,2.9837,2.9779,2.9702,2.9663,2.9624,2.9605,2.9585,2.9607,2.9258,2.8105,2.7286,2.6122,2.4776,2.3061,2.1546,2.0447,1.9043,1.8218,1.8027,1.8079,1.8088,1.8115,1.8059,1.8186,1.842,1.8508,1.8332,1.803,1.8008,1.8008,1.8008,1.8008,1.8008,1.7476,1.649,1.5432,1.474,1.3807,1.2852,1.2405,1.2293,1.2293,1.2298,1.2278,1.2245,1.2211,1.1971,1.1637,1.1219,1.1089,1.1029,1.0818,1.0751,1.0738,1.0717,1.0657,1.0633,1.0593,1.0586,1.0586,1.0586,1.0586,1.0586,1.0586,1.0586,1.0586,1.0586,1.0606,1.0764,1.0909,1.0935,1.1042,1.1316,1.1536,1.1765,1.2041,1.2223,1.2397,3.5489,3.5519,3.5789,3.5744,3.5489,3.5489,3.5489,3.5489,3.5489,3.5489,3.5489,3.5489,3.5489,3.5489,3.5488,3.5609,3.5863,3.5878,3.6329,3.6866,3.7419,3.7958,3.8287,3.8661,3.8808,3.8347,3.7719,3.709,3.6523,3.6222,3.5833,3.5062,3.409,3.3223,3.2321,3.1323,3.0457,2.9837,2.9702,2.9534,2.8806,2.8708,2.845,2.7799,2.8557,2.7889,2.6795,2.6674,2.538,2.3936,2.2624,2.1403,2.0211,1.9019,1.8423,1.8127,1.8225,1.8322,1.8303,1.8166,1.8079,1.8205,1.841,1.8479,1.8137,1.8027,1.8008,1.8008,1.8018,1.8008,1.7762,1.6528,1.5373,1.4971,1.4159,1.302,1.2591,1.2498,1.2386,1.2438,1.2358,1.2291,1.2258,1.2204,1.1844,1.149,1.1412,1.1326,1.1149,1.0969,1.0982,1.0982,1.0935,1.0751,1.0691,1.066,1.06,1.0613,1.062,1.0586,1.0586,1.0586,1.0586,1.0586,1.0653,1.0825,1.0975,1.1086,1.1299,1.161,1.1911,1.2203,1.2485,1.2779,1.2916,3.5489,3.5489,3.5489,3.5489,3.5489,3.5489,3.5489,3.5489,3.5489,3.5489,3.5489,3.5489,3.5489,3.5489,3.5504,3.5488,3.5549,3.5579,3.5835,3.6282,3.6851,3.7479,3.8138,3.8586,3.8706,3.8317,3.7943,3.7389,3.6492,3.6013,3.5744,3.5368,3.4791,3.3976,3.2996,3.1792,3.0752,2.9998,2.9334,2.9028,2.8176,2.7755,2.7452,2.6862,2.7663,2.762,2.6709,2.6314,2.5317,2.3801,2.2408,2.1206,2.0068,1.915,1.873,1.8488,1.8403,1.8588,1.8549,1.8664,1.8486,1.8633,1.8879,1.8801,1.8496,1.8203,1.8057,1.8318,1.8184,1.8069,1.8056,1.675,1.5678,1.5204,1.3958,1.2926,1.2892,1.2799,1.2665,1.2585,1.2512,1.249,1.2425,1.2392,1.2131,1.1817,1.1697,1.1683,1.1663,1.1472,1.1346,1.1339,1.1306,1.1069,1.0815,1.0724,1.0673,1.0768,1.0742,1.0613,1.0586,1.0586,1.0586,1.0586,1.07,1.0891,1.1069,1.1232,1.1563,1.1928,1.2231,1.2513,1.2827,1.3081,1.3207,3.5444,3.5489,3.5459,3.5443,3.5348,3.5488,3.5489,3.5489,3.5489,3.5489,3.5489,3.5489,3.5489,3.5489,3.5489,3.5489,3.5489,3.5488,3.5639,3.5938,3.6432,3.6926,3.7507,3.806,3.8357,3.8407,3.7988,3.7283,3.6508,3.6224,3.5923,3.5639,3.5231,3.4741,3.3825,3.2123,3.079,2.9831,2.8912,2.8426,2.7775,2.7107,2.6678,2.6522,2.7258,2.7305,2.6906,2.6174,2.5245,2.4067,2.2224,2.1015,2.0075,1.9512,1.9064,1.8676,1.8625,1.8646,1.8695,1.9405,1.9473,1.9199,1.9318,1.9405,1.9102,1.8662,1.832,1.8709,1.8611,1.8516,1.7958,1.7098,1.6183,1.534,1.4158,1.3233,1.3206,1.3106,1.2979,1.2799,1.2797,1.2777,1.2672,1.2553,1.2371,1.2151,1.2009,1.1969,1.1971,1.1933,1.1753,1.1719,1.1693,1.1577,1.1283,1.0865,1.0744,1.0859,1.0839,1.0664,1.0586,1.0586,1.0586,1.0593,1.0673,1.0814,1.1102,1.1406,1.1777,1.2134,1.2481,1.2796,1.3115,1.336,1.3466,3.4173,3.4218,3.4652,3.448,3.4116,3.5083,3.5489,3.5489,3.5489,3.5489,3.5489,3.5489,3.5489,3.5489,3.5489,3.5489,3.5489,3.5519,3.5609,3.61,3.6276,3.6851,3.7293,3.7451,3.7697,3.7607,3.7385,3.7101,3.6508,3.6164,3.5818,3.5519,3.5424,3.4937,3.3959,3.2664,3.1683,3.072,2.9723,2.8641,2.7209,2.6657,2.6182,2.5588,2.6584,2.7074,2.6838,2.6127,2.5332,2.4196,2.2322,2.1065,2.0381,1.9902,1.9425,1.9074,1.8975,1.9209,1.9658,2.0214,1.998,1.9735,1.9658,1.9756,1.9287,1.91,1.9051,1.9247,1.9442,1.9393,1.8928,1.7441,1.6473,1.6056,1.5071,1.3967,1.3574,1.344,1.3293,1.3086,1.2972,1.2718,1.2565,1.25,1.2365,1.2305,1.2151,1.2029,1.2009,1.2144,1.2093,1.2093,1.2091,1.2024,1.1797,1.1283,1.0962,1.1026,1.0889,1.064,1.0586,1.0613,1.0638,1.066,1.0685,1.0743,1.1189,1.1614,1.1971,1.2331,1.2558,1.2895,1.3245,1.3479,1.3647,3.3331,3.3112,3.3512,3.3179,3.272,3.4242,3.4986,3.5036,3.5326,3.5489,3.5489,3.5489,3.5489,3.5489,3.5489,3.5489,3.5489,3.5519,3.5189,3.5705,3.5606,3.5895,3.6286,3.6625,3.6761,3.6792,3.6722,3.6438,3.6103,3.5714,3.5534,3.5504,3.5457,3.4889,3.3993,3.2999,3.2055,3.0962,2.9775,2.8199,2.7046,2.6359,2.5933,2.5651,2.6119,2.6982,2.6546,2.6038,2.5444,2.4103,2.2726,2.1387,2.083,2.0322,1.9873,1.9551,1.9443,1.9745,2.0293,2.0517,2.0253,1.9941,2.0029,1.999,1.9804,1.9793,1.9783,1.9979,2.0331,1.9792,1.8986,1.7465,1.662,1.6186,1.5229,1.4104,1.3848,1.3714,1.3661,1.344,1.322,1.2893,1.2498,1.2392,1.2311,1.2305,1.2291,1.2158,1.2056,1.2178,1.2305,1.2291,1.2285,1.2198,1.1991,1.1613,1.1359,1.1222,1.0986,1.0747,1.066,1.0687,1.0708,1.0719,1.0734,1.09,1.1421,1.1841,1.2129,1.2296,1.2422,1.2814,1.3293,1.3511,1.3668,3.2932,3.2209,3.2176,3.171,3.133,3.2868,3.375,3.4011,3.4884,3.5305,3.5429,3.5385,3.5415,3.5474,3.5489,3.5408,3.5279,3.5295,3.4752,3.4249,3.4166,3.4525,3.4833,3.5096,3.5568,3.6124,3.6304,3.6037,3.5578,3.5534,3.5504,3.5489,3.5489,3.5003,3.4211,3.3171,3.2195,3.1018,2.9679,2.8247,2.7148,2.6719,2.6337,2.6181,2.6676,2.7128,2.6828,2.6309,2.545,2.4315,2.3065,2.212,2.1386,2.084,2.04,2.0068,1.9922,2.0214,2.0468,2.0586,2.0576,2.0351,2.0468,2.0566,2.0498,2.0361,2.0321,2.0341,2.0488,1.9552,1.8594,1.7478,1.6408,1.5627,1.4711,1.4212,1.4098,1.4036,1.4029,1.3874,1.3694,1.3347,1.2786,1.2545,1.2357,1.2398,1.2392,1.2285,1.2191,1.2211,1.2305,1.2305,1.2298,1.2305,1.2073,1.1833,1.1566,1.1362,1.1192,1.0978,1.0878,1.0774,1.0837,1.0846,1.0792,1.1011,1.1528,1.1913,1.2211,1.2348,1.2392,1.2622,1.306,1.3384,1.3575,3.1574,3.0921,3.1309,3.061,2.9477,3.0342,3.1496,3.2673,3.3074,3.3677,3.4803,3.4787,3.4981,3.5458,3.5489,3.5021,3.466,3.431,3.3756,3.3328,3.3013,3.3125,3.3462,3.3942,3.4395,3.4926,3.5346,3.5771,3.5563,3.5489,3.5489,3.5489,3.5375,3.5133,3.4409,3.3394,3.2195,3.1068,2.9723,2.8565,2.7755,2.7441,2.7044,2.7064,2.6748,2.7066,2.7075,2.5943,2.5071,2.4493,2.3202,2.2218,2.1768,2.1045,2.0478,2.0458,2.04,2.0478,2.0566,2.0596,2.0596,2.0596,2.0596,2.0596,2.0586,2.0596,2.0596,2.0596,2.0527,1.9762,1.8694,1.7553,1.6396,1.5349,1.4559,1.4216,1.4109,1.4109,1.4109,1.4055,1.3887,1.36,1.3046,1.2599,1.2436,1.2509,1.249,1.2365,1.2305,1.2305,1.2305,1.2305,1.2305,1.2305,1.2291,1.2079,1.1779,1.1513,1.1363,1.1146,1.087,1.0819,1.0941,1.1095,1.1266,1.1407,1.1606,1.1959,1.2291,1.2305,1.2343,1.2564,1.2807,1.314,1.3451,3.0307,2.981,2.9791,2.8783,2.7291,2.7132,2.8179,2.9899,3.1496,3.28,3.3583,3.3943,3.4322,3.4572,3.449,3.4196,3.3686,3.3468,3.2929,3.2249,3.2051,3.2078,3.2376,3.2999,3.3659,3.416,3.4856,3.5548,3.5489,3.5489,3.5489,3.5455,3.523,3.4706,3.3905,3.2678,3.1573,3.0752,2.9877,2.8897,2.8219,2.7804,2.7663,2.7003,2.6431,2.6789,2.6685,2.5199,2.4734,2.4232,2.2963,2.2482,2.1904,2.1094,2.0625,2.0576,2.0576,2.0556,2.0596,2.0596,2.0596,2.0596,2.0596,2.0596,2.0596,2.0596,2.0596,2.0586,2.045,2.0041,1.882,1.7617,1.6388,1.5192,1.4671,1.4145,1.4109,1.4109,1.4109,1.4109,1.3935,1.3707,1.33,1.2805,1.2471,1.245,1.2423,1.2351,1.2305,1.2305,1.2305,1.2305,1.2305,1.2305,1.2285,1.2218,1.1891,1.1657,1.163,1.1377,1.0984,1.1341,1.1925,1.2009,1.1929,1.1959,1.1873,1.2059,1.2305,1.2362,1.2444,1.2496,1.2726,1.2989,1.3291,2.9302,2.8909,2.792,2.6589,2.4945,2.4182,2.4785,2.6543,3.0052,3.1933,3.2246,3.2933,3.3392,3.3704,3.3619,3.3229,3.2824,3.2541,3.1928,3.1127,3.1082,3.1082,3.1402,3.2113,3.3048,3.3973,3.4824,3.5489,3.5489,3.5489,3.5488,3.5439,3.4591,3.399,3.3325,3.2087,3.1124,3.0539,2.9671,2.868,2.7606,2.7258,2.7084,2.5703,2.5672,2.5985,2.5189,2.4564,2.4189,2.3454,2.2996,2.2654,2.1826,2.1192,2.0811,2.0664,2.0684,2.0654,2.0674,2.0684,2.0644,2.0625,2.0596,2.0596,2.0596,2.0596,2.0596,2.0596,2.0489,1.952,1.831,1.7536,1.6519,1.5241,1.4349,1.4109,1.4109,1.4109,1.4109,1.4109,1.4063,1.3821,1.3661,1.3207,1.294,1.2649,1.2498,1.2498,1.2445,1.2445,1.2351,1.2345,1.2305,1.2298,1.2258,1.2151,1.1891,1.1744,1.1804,1.183,1.1628,1.2246,1.3112,1.2807,1.2376,1.2202,1.2163,1.2363,1.2584,1.2812,1.2794,1.2535,1.2671,1.3047,1.3154,3.0099,2.8798,2.6578,2.5135,2.4373,2.3756,2.4169,2.5463,2.7599,2.9757,3.1243,3.1747,3.2428,3.3242,3.3266,3.2755,3.1693,3.183,3.0842,3.0397,3.0225,3.0752,3.0671,3.21,3.2761,3.3388,3.4361,3.5489,3.5489,3.5489,3.5457,3.5375,3.4459,3.3602,3.3307,3.1997,3.0833,3.0241,2.9018,2.8267,2.7501,2.6883,2.6431,2.5755,2.5755,2.5168,2.4457,2.3898,2.3551,2.3091,2.3091,2.2537,2.1592,2.121,2.0898,2.0723,2.0779,2.0751,2.0801,2.084,2.084,2.0664,2.0596,2.0596,2.0596,2.0596,2.0596,2.0596,2.0167,1.9036,1.8121,1.7516,1.6662,1.5345,1.4166,1.4166,1.4145,1.4109,1.4109,1.4109,1.4109,1.399,1.3836,1.3642,1.343,1.3222,1.3072,1.2999,1.2866,1.2818,1.2531,1.247,1.2325,1.2291,1.2258,1.2211,1.2011,1.2004,1.2084,1.2151,1.2231,1.2546,1.2936,1.2968,1.2756,1.2533,1.2469,1.2729,1.2955,1.3318,1.3428,1.3272,1.3217,1.3503,1.3389,2.9287,2.8096,2.5479,2.4178,2.3783,2.3146,2.3654,2.5093,2.6405,2.8363,3.0615,3.1441,3.2168,3.2751,3.2766,3.2365,3.1143,3.1422,3.1198,3.0611,3.0531,3.1109,3.1714,3.2424,3.3076,3.3719,3.4691,3.5489,3.5489,3.5489,3.5457,3.5246,3.431,3.3394,3.3136,3.1646,3.0348,2.9718,2.8211,2.7328,2.6889,2.6109,2.5368,2.4967,2.4489,2.4092,2.3898,2.3387,2.3266,2.2754,2.2408,2.1845,2.0915,2.0168,2.0051,2.0236,2.046,2.0723,2.0884,2.1025,2.1055,2.0791,2.0596,2.0596,2.0596,2.0596,2.0596,2.0596,2.0596,1.9638,1.9294,1.8749,1.7192,1.5732,1.5082,1.4831,1.4447,1.4109,1.4109,1.4109,1.4021,1.3854,1.3679,1.3445,1.3239,1.3059,1.3028,1.3194,1.3127,1.3146,1.2858,1.2604,1.2478,1.2351,1.2291,1.2285,1.2238,1.2278,1.2305,1.2597,1.2749,1.2599,1.2621,1.2992,1.3063,1.274,1.2769,1.3094,1.3652,1.4141,1.4178,1.4112,1.4054,1.3915,1.3617,2.7913,2.7078,2.4612,2.3552,2.3427,2.2462,2.3265,2.5134,2.6135,2.7919,3.0351,3.2043,3.2215,3.2089,3.1942,3.1588,3.144,3.1632,3.1542,3.1515,3.2042,3.2042,3.2518,3.3363,3.3822,3.4327,3.5133,3.5408,3.5489,3.5489,3.5375,3.505,3.3939,3.2611,3.2046,3.0852,2.9548,2.8533,2.7279,2.6057,2.5294,2.4649,2.4092,2.3517,2.3101,2.3101,2.3101,2.3101,2.3101,2.2775,2.2148,2.1658,2.1119,2.0402,1.9893,2.0116,2.0672,2.0959,2.1172,2.1327,2.1113,2.084,2.0684,2.0605,2.0605,2.0596,2.0615,2.0596,2.0596,2.0528,2.0157,1.9449,1.7784,1.6162,1.5693,1.5216,1.4656,1.4143,1.4109,1.4109,1.3968,1.3801,1.3621,1.3371,1.315,1.2962,1.2956,1.3099,1.3217,1.3273,1.3186,1.2919,1.2711,1.2552,1.2358,1.2305,1.2305,1.2305,1.2378,1.2897,1.3237,1.3104,1.3139,1.3437,1.3403,1.2954,1.3159,1.3541,1.4169,1.4881,1.4446,1.4306,1.477,1.4533,1.3864,2.7694,2.5841,2.416,2.3738,2.3839,2.2638,2.3531,2.5921,2.6989,2.8705,3.0952,3.2567,3.3287,3.3153,3.2648,3.2147,3.1619,3.1863,3.1467,3.1156,3.2423,3.2639,3.3031,3.3942,3.4509,3.4986,3.5344,3.5424,3.5489,3.5489,3.5473,3.5344,3.3547,3.2554,3.2249,3.0857,2.9236,2.8148,2.7177,2.613,2.4946,2.4242,2.3452,2.3144,2.3101,2.3101,2.3101,2.3101,2.3101,2.2974,2.2635,2.2119,2.1519,2.0981,2.0627,2.0366,2.093,2.1421,2.165,2.1707,2.1505,2.1025,2.0879,2.0684,2.0664,2.0625,2.0625,2.0615,2.0644,2.0752,2.0428,1.9817,1.8438,1.6565,1.5508,1.5056,1.4529,1.4249,1.4109,1.4109,1.4069,1.3981,1.3939,1.3681,1.3413,1.3319,1.338,1.351,1.3669,1.3619,1.35,1.3233,1.2966,1.2631,1.2383,1.2318,1.2305,1.2305,1.2378,1.2739,1.3127,1.3531,1.3659,1.3548,1.3395,1.3055,1.3382,1.3968,1.4777,1.5297,1.457,1.4386,1.4995,1.5031,1.4262]},{"header":{"parameterUnit":"m.s-1","parameterCategory":1,"la1":31.0,"la2":29.5877,"lo1":-88.7671,"lo2":-86.6584,"dy":0.0162,"dx":0.0185,"nx":115,"ny":88,"refTime":"2023-09-23T00:00:00:Z","depth":0,"parameterNumber":3,"parameterNumberName":"V-component_of_WINDS"},"data":[0.0,0.0,0.0,0.0,0.0,0.0,0.0,0.0,0.0,0.0,0.0,0.0,0.0,0.0,0.0,0.0,0.0,0.0,0.0,0.0,0.0,0.0,0.0,0.0,0.0,0.0,0.0,0.0,0.0,0.0,0.0,0.0,0.0,0.0,0.0,0.0,0.0,0.0,0.0,0.0,0.0,0.0,0.0,0.0,0.0,0.0,0.0,0.0,0.0,0.0,0.0,0.0,0.0,0.0,0.0,0.0,0.0,0.0,0.0,0.0,0.0,0.0,0.0,0.0,0.0,0.0,0.0,0.0,0.0,0.0,0.0,0.0,0.0,0.0,0.0,0.0,0.0,0.0,0.0,0.0,0.0,0.0,0.0,0.0,0.0,0.0,0.0,0.0,0.0,0.0,0.0,0.0,0.0,0.0,0.0,0.0,0.0,0.0,0.0,0.0,0.0,0.0,0.0,0.0,0.0,0.0,0.0,0.0,0.0,0.0,0.0,0.0,0.0,0.0,0.0,0.0,0.0,0.0,0.0,0.0,0.0,0.0,0.0,0.0,0.0,0.0,0.0,0.0,0.0,0.0,0.0,0.0,0.0,0.0,0.0,0.0,0.0,0.0,0.0,0.0,0.0,0.0,0.0,0.0,0.0,0.0,0.0,0.0,0.0,0.0,0.0,0.0,0.0,0.0,0.0,0.0,0.0,0.0,0.0,0.0,0.0,0.0,0.0,0.0,0.0,0.0,0.0,0.0,0.0,0.0,0.0,0.0,0.0,0.0,0.0,0.0,0.0,0.0,0.0,0.0,0.0,0.0,0.0,0.0,0.0,0.0,0.0,0.0,0.0,0.0,0.0,0.0,0.0,0.0,0.0,0.0,0.0,0.0,0.0,0.0,0.0,0.0,0.0,0.0,0.0,0.0,0.0,0.0,0.0,0.0,0.0,0.0,0.0,0.0,0.0,0.0,0.0,0.0,0.0,0.0,0.0,0.0,0.0,0.0,0.0,0.0,0.0,0.0,0.0,0.0,0.0,0.0,0.0,0.0,0.0,0.0,0.0,0.0,0.0,0.0,0.0,0.0,0.0,0.0,0.0,0.0,0.0,0.0,0.0,0.0,0.0,0.0,0.0,0.0,0.0,0.0,0.0,0.0,0.0,0.0,0.0,0.0,0.0,0.0,0.0,0.0,0.0,0.0,0.0,0.0,0.0,0.0,0.0,0.0,0.0,0.0,0.0,0.0,0.0,0.0,0.0,0.0,0.0,0.0,0.0,0.0,0.0,0.0,0.0,0.0,0.0,0.0,0.0,0.0,0.0,0.0,0.0,0.0,0.0,0.0,0.0,0.0,0.0,0.0,0.0,0.0,0.0,0.0,0.0,0.0,0.0,0.0,0.0,0.0,0.0,0.0,0.0,0.0,0.0,0.0,0.0,0.0,0.0,0.0,0.0,0.0,0.0,0.0,0.0,0.0,0.0,0.0,0.0,0.0,0.0,0.0,0.0,0.0,0.0,0.0,0.0,0.0,0.0,0.0,0.0,0.0,0.0,0.0,0.0,0.0,0.0,0.0,0.0,0.0,0.0,0.0,0.0,0.0,0.0,0.0,0.0,0.0,0.0,0.0,0.0,0.0,0.0,0.0,0.0,0.0,0.0,0.0,0.0,0.0,0.0,0.0,0.0,0.0,0.0,0.0,0.0,0.0,0.0,0.0,0.0,0.0,0.0,0.0,0.0,0.0,0.0,0.0,0.0,0.0,0.0,0.0,0.0,0.0,0.0,0.0,0.0,0.0,0.0,0.0,0.0,0.0,0.0,0.0,0.0,0.0,0.0,0.0,0.0,0.0,0.0,0.0,0.0,0.0,0.0,0.0,0.0,0.0,0.0,0.0,0.0,0.0,0.0,0.0,0.0,0.0,0.0,0.0,0.0,0.0,0.0,0.0,0.0,0.0,0.0,0.0,0.0,0.0,0.0,0.0,0.0,0.0,0.0,0.0,0.0,0.0,0.0,0.0,0.0,0.0,0.0,0.0,0.0,0.0,0.0,0.0,0.0,0.0,0.0,0.0,0.0,0.0,0.0,0.0,0.0,0.0,0.0,0.0,0.0,0.0,0.0,0.0,0.0,0.0,0.0,0.0,0.0,0.0,0.0,0.0,0.0,0.0,0.0,0.0,0.0,0.0,0.0,0.0,0.0,0.0,0.0,0.0,0.0,0.0,0.0,0.0,0.0,0.0,0.0,0.0,0.0,0.0,0.0,0.0,0.0,0.0,0.0,0.0,0.0,0.0,0.0,0.0,0.0,0.0,0.0,0.0,0.0,0.0,0.0,0.0,0.0,0.0,0.0,0.0,0.0,0.0,0.0,0.0,0.0,0.0,0.0,0.0,0.0,0.0,0.0,0.0,0.0,0.0,0.0,0.0,0.0,0.0,0.0,0.0,0.0,0.0,0.0,0.0,0.0,0.0,0.0,0.0,0.0,0.0,0.0,0.0,0.0,0.0,0.0,0.0,0.0,0.0,0.0,0.0,0.0,0.0,0.0,0.0,0.0,0.0,0.0,0.0,0.0,0.0,0.0,0.0,0.0,0.0,0.0,0.0,0.0,0.0,0.0,0.0,0.0,0.0,0.0,0.0,0.0,0.0,0.0,0.0,0.0,0.0,0.0,0.0,0.0,0.0,0.0,0.0,0.0,0.0,0.0,0.0,0.0,0.0,0.0,0.0,0.0,0.0,0.0,0.0,0.0,0.0,0.0,0.0,0.0,0.0,0.0,0.0,0.0,0.0,0.0,0.0,0.0,0.0,0.0,0.0,0.0,0.0,0.0,0.0,0.0,0.0,0.0,0.0,0.0,0.0,0.0,0.0,0.0,0.0,0.0,0.0,0.0,0.0,0.0,0.0,0.0,0.0,0.0,0.0,0.0,0.0,0.0,0.0,0.0,0.0,0.0,0.0,0.0,0.0,0.0,0.0,0.0,0.0,0.0,0.0,0.0,0.0,0.0,0.0,0.0,0.0,0.0,0.0,0.0,0.0,0.0,0.0,0.0,0.0,0.0,0.0,0.0,0.0,0.0,0.0,0.0,0.0,0.0,0.0,0.0,0.0,0.0,0.0,0.0,0.0,0.0,0.0,0.0,0.0,0.0,0.0,0.0,0.0,0.0,0.0,0.0,0.0,0.0,0.0,0.0,0.0,0.0,0.0,0.0,0.0,0.0,0.0,0.0,0.0,0.0,0.0,0.0,0.0,0.0,0.0,0.0,0.0,0.0,0.0,0.0,0.0,0.0,0.0,0.0,0.0,0.0,0.0,0.0,0.0,0.0,0.0,0.0,0.0,0.0,0.0,0.0,0.0,0.0,0.0,0.0,0.0,0.0,0.0,0.0,0.0,0.0,0.0,0.0,0.0,0.0,0.0,0.0,0.0,0.0,0.0,0.0,0.0,0.0,0.0,0.0,0.0,0.0,0.0,0.0,0.0,0.0,0.0,0.0,0.0,0.0,0.0,0.0,0.0,0.0,0.0,0.0,0.0,0.0,0.0,0.0,0.0,0.0,0.0,0.0,0.0,0.0,0.0,0.0,0.0,0.0,0.0,0.0,0.0,0.0,0.0,0.0,0.0,0.0,0.0,0.0,0.0,0.0,0.0,0.0,0.0,0.0,0.0,0.0,0.0,0.0,0.0,0.0,0.0,0.0,0.0,0.0,0.0,0.0,0.0,0.0,0.0,0.0,0.0,0.0,0.0,0.0,0.0,0.0,0.0,0.0,0.0,0.0,0.0,0.0,0.0,0.0,0.0,0.0,0.0,0.0,0.0,0.0,0.0,0.0,0.0,0.0,0.0,0.0,0.0,0.0,0.0,0.0,0.0,0.0,0.0,0.0,0.0,0.0,0.0,0.0,0.0,0.0,0.0,0.0,0.0,0.0,0.0,0.0,0.0,0.0,0.0,0.0,0.0,0.0,0.0,0.0,0.0,0.0,0.0,0.0,0.0,0.0,0.0,0.0,0.0,0.0,0.0,0.0,0.0,0.0,0.0,0.0,0.0,0.0,0.0,0.0,0.0,0.0,0.0,0.0,0.0,0.0,0.0,0.0,0.0,0.0,0.0,0.0,0.0,0.0,0.0,0.0,0.0,0.0,0.0,0.0,0.0,0.0,0.0,0.0,0.0,0.0,0.0,0.0,0.0,0.0,0.0,0.0,0.0,0.0,0.0,0.0,0.0,0.0,0.0,0.0,0.0,0.0,0.0,0.0,0.0,0.0,0.0,0.0,0.0,0.0,0.0,0.0,0.0,0.1786,0.0,0.0,0.0,0.0,0.0,0.0,0.0,0.0,0.0,0.0,0.0,0.0,0.0,0.0,0.0,0.0,0.0,0.0,0.0,0.0,0.0,0.0,0.0,0.0,0.0,0.0,0.0,0.0,0.0,0.0,0.0,0.0,0.0,0.0,0.0,0.0,0.0,0.0,0.0,0.0,0.0,0.0,0.0,0.0,0.0,0.0,0.0,0.0,0.0,0.0,0.0,0.0,0.0,0.0,0.0,0.0,0.0,0.0,0.0,0.0,0.0,0.0,0.0,0.0,0.0,0.0,0.0,0.0,0.0,0.0,0.0,0.0,0.0,0.0,0.0,0.0,0.0,0.0,0.0,0.0,0.0,0.0,0.0,0.0,0.0,0.0,0.0,0.0,0.0,0.0,0.0,0.0,0.0,0.0,0.0,0.0,0.0,0.0,0.0,0.0,0.0,0.0,0.0,0.0,0.0,0.0,0.0,0.0,0.0,0.0,0.1797,0.1797,0.1797,0.1797,0.1819,0.0,0.0,0.0,0.0,0.0,0.0,0.0,0.0,0.0,0.0,0.0,0.0,0.0,0.0,0.0,0.0,0.0,0.0,0.0,0.0,0.0,0.0,0.0,0.0,0.0,0.0,0.0,0.0,0.0,0.0,0.0,0.0,0.0,0.0,0.0,0.0,0.0,0.0,0.0,0.0,0.0,0.0,0.0,0.0,0.0,0.0,0.0,0.0,0.0,0.0,0.0,0.0,0.0,0.0,0.0,0.0,0.0,0.0,0.0,0.0,0.0,0.0,0.0,0.0,0.0,0.0,0.0,0.0,0.0,0.0,0.0,0.0,0.0,0.0,0.0,0.0,0.0,0.0,0.0,0.0,0.0,0.0,0.0,0.0,0.0,0.0,0.0,0.0,0.0,0.0,0.0,0.0,0.0,0.0,0.0,0.0,0.0,0.0,0.0,0.0,0.0,0.0,0.0,0.0,0.0,0.0,0.0,0.0,0.0,0.0,0.0,0.0,0.1963,0.2017,0.2156,0.0,0.0,0.0,0.0,0.0,0.0,0.0,0.0,0.0,0.0,0.0,0.0,0.0,0.0,0.0,0.0,0.0,0.0,0.0,0.0,0.0,0.0,0.0,0.0,0.0,0.0,0.0,0.0,0.0,0.0,0.0,0.0,0.0,0.0,0.0,0.0,0.0,0.0,0.0,0.0,0.0,0.0,0.0,0.0,0.0,0.0,0.0,0.0,0.0,0.0,0.0,0.0,0.0,0.0,0.0,0.0,0.0,0.0,0.0,0.0,0.0,0.0,0.0,0.0,0.0,0.0,0.0,0.0,0.0,0.0,0.0,0.0,0.0,0.0,0.0,0.0,0.0,0.0,0.0,0.0,0.0,0.0,0.0,0.0,0.0,0.0,0.0,0.0,0.0,0.0,0.0,0.0,0.0,0.0,0.0,0.0,0.0,0.0,0.0,0.0,0.0,0.0,0.0,0.0,0.0,0.0,0.0,0.0,0.0,0.0,0.2014,0.2414,0.2432,0.0,0.3144,0.0,0.0,0.0,0.0,0.0,0.0,0.0,0.0,0.0,0.0,0.0,0.0,0.0,0.0,0.0,0.0,0.0,0.0,0.0,0.0,0.0,0.0,0.0,0.0,0.0,0.0,0.0,0.0,0.0,0.0,0.0,0.0,0.0,0.0,0.0,0.0,0.0,0.0,0.0,0.0,0.0,0.0,0.0,0.0,0.0,0.0,0.0,0.0,0.0,0.0,0.0,0.0,0.0,0.0,0.0,0.0,0.0,0.0,0.0,0.0,0.0,0.0,0.0,0.0,0.0,0.0,0.0,0.0,0.0,0.0,0.0,0.0,0.0,0.0,0.0,0.0,0.0,0.0,0.0,0.0,0.0,0.0,0.0,0.0,0.0,0.0,0.0,0.0,0.0,0.0,0.0,0.0,0.0,0.0,0.0,0.0,0.0,0.0,0.0,0.0,0.0,0.0,0.0,0.0,0.0,0.0,0.0,0.0,0.0,0.0,0.2102,0.2498,0.2502,0.2579,0.0,0.0,0.0,0.0,0.0,0.0,0.0,0.0,0.0,0.0,0.0,0.0,0.0,0.0,0.0,0.0,0.0,0.0,0.0,0.0,0.0,0.0,0.0,0.0,0.0,0.0,0.0,0.0,0.0,0.0,0.0,0.0,0.0,0.0,0.0,0.0,0.0,0.0,0.0,0.0,0.0,0.0,0.0,0.0,0.0,0.0,0.0,0.0,0.0,0.0,0.0,0.0,0.0,0.0,0.0,0.0,0.0,0.0,0.0,0.0,0.0,0.0,0.0,0.0,0.0,0.0,0.0,0.0,0.0,0.0,0.0,0.0,0.0,0.0,0.0,0.0,0.0,0.0,0.0,0.0,0.0,0.0,0.0,0.0,0.0,0.0,0.0,0.0,0.0,0.0,0.0,0.0,0.0,0.0,0.0,0.0,0.0,0.0,0.0,0.0,0.0,0.0,0.0,0.0,0.0,0.0,0.0,0.0,0.0,0.0,0.2147,0.23,0.2637,0.2502,0.2452,0.2531,0.0,0.0,0.0,0.0,0.0,0.0,0.0,0.0,0.0,0.0,0.0,0.0,0.0,0.0,0.0,0.0,0.0,0.0,0.0,0.0,0.0,0.0,0.0,0.0,0.0,0.0,0.0,0.0,0.0,0.0,0.0,0.0,0.0,0.0,0.0,0.0,0.0,0.0,0.0,0.0,0.0,0.0,0.0,0.0,0.0,0.0,0.0,0.0,0.0,0.0,0.0,0.0,0.0,0.0,0.0,0.0,0.0,0.0,0.0,0.0,0.0,0.0,0.0,0.0,0.0,0.0,0.0,0.0,0.0,0.0,0.0,0.0,0.0,0.0,0.0,0.0,0.0,0.0,0.0,0.0,0.0,0.0,0.0,0.0,0.0,0.0,0.0,0.0,0.0,0.0,0.0,0.0,0.0,0.0,0.0,0.0,0.0,0.0,0.0,0.0,0.0,0.0,0.0,0.0,0.0,0.0,0.0,0.0,0.2975,0.2652,0.2658,0.304,0.2512,0.242,0.0,0.0,0.0,0.0,0.0,0.0,0.0,0.0,0.0,0.0,0.0,0.0,0.0,0.0,0.0,0.0,0.0,0.0,0.0,0.0,0.0,0.0,0.0,0.0,0.0,0.0,0.0,0.0,0.0,0.0,0.0,0.0,0.0,0.0,0.0,0.0,0.0,0.0,0.0,0.0,0.0,0.0,0.0,0.0,0.0,0.0,0.0,0.0,0.0,0.0,0.0,0.0,0.0,0.0,0.0,0.0,0.0,0.0,0.0,0.0,0.0,0.0,0.0,0.0,0.0,0.0,0.0,0.0,0.0,0.0,0.0,0.0,0.0,0.0,0.0,0.0,0.0,0.0,0.0,0.0,0.0,0.0,0.0,0.0,0.0,0.0,0.0,0.0,0.0,0.0,0.0,0.0,0.0,0.0,0.0,0.0,0.0,0.0,0.0,0.0,0.0,0.0,0.0,0.0,0.0,0.0,0.0,0.0,0.0,0.2242,0.2429,0.2646,0.2936,0.2596,0.2589,0.0,0.0,0.0,0.0,0.0,0.0,0.0,0.0,0.0,0.0,0.0,0.0,0.0,0.0,0.0,0.0,0.0,0.0,0.0,0.0,0.0,0.0,0.0,0.0,0.0,0.0,0.0,0.0,0.0,0.0,0.0,0.0,0.0,0.0,0.0,0.0,0.0,0.0,0.0,0.0,0.0,0.0,0.0,0.0,0.0,0.0,0.0,0.0,0.0,0.0,0.0,0.0,0.0,0.0,0.0,0.0,0.0,0.0,0.0,0.0,0.0,0.0,0.0,0.0,0.0,0.0,0.0,0.0,0.0,0.0,0.0,0.0,0.0,0.0,0.0,0.0,0.0,0.0,0.0,0.0,0.0,0.0,0.0,0.0,0.0,0.0,0.0,0.0,0.0,0.0,0.0,0.0,0.0,0.0,0.0,0.0,0.0,0.0,0.0,0.0,0.0,0.0,0.0,0.0,0.0,0.0,0.0,0.0,0.0,0.2101,0.0,0.2773,0.2886,0.2628,0.2675,0.0,0.0,0.0,0.0,0.0,0.0,0.0,0.0,0.0,0.0,0.0,0.0,0.0,0.0,0.0,0.0,0.0,0.0,0.0,0.0,0.0,0.0,0.0,0.0,0.0,0.0,0.0,0.0,0.0,0.0,0.0,0.0,0.0,0.0,0.0,0.0,0.0,0.0,0.0,0.0,0.0,0.0,0.0,0.0,0.0,0.0,0.0,0.0,0.0,0.0,0.0,0.0,0.0,0.0,0.0,0.0,0.0,0.0,0.0,0.0,0.0,0.0,0.0,0.0,0.0,0.0,0.0,0.0,0.0,0.0,0.0,0.0,0.0,0.0,0.0,0.0,0.0,0.0,0.0,0.0,0.0,0.0,0.0,0.0,0.0,0.0,0.0,0.0,0.0,0.0,0.0,0.0,0.0,0.0,0.0,0.0,0.0,0.0,0.0,0.0,0.0,0.0,0.0,0.0,0.0,0.0,0.0,0.0,0.2114,0.2675,0.2957,0.3049,0.2922,0.2681,0.2649,0.0,0.0,0.0,0.0,0.0,0.0,0.0,0.0,0.0,0.0,0.0,0.0,0.0,0.0,0.0,0.0,0.0,0.0,0.0,0.0,0.0,0.0,0.0,0.0,0.0,0.0,0.0,0.0,0.0,0.0,0.0,0.0,0.0,0.0,0.0,0.0,0.0,0.0,0.0,0.0,0.0,0.0,0.0,0.0,0.0,0.0,0.0,0.0,0.0,0.0,0.0,0.0,0.0,0.0,0.0,0.0,0.0,0.0,0.0,0.0,0.0,0.0,0.0,0.0,0.0,0.0,0.0,0.0,0.0,0.0,0.0,0.0,0.0,0.0,0.0,0.0,0.0,0.0,0.0,0.0,0.0,0.0,0.0,0.0,0.0,0.0,0.0,0.0,0.0,0.0,0.0,0.0,0.0,0.0,0.0,0.0,0.0,0.0,0.0,0.0,0.0,0.0,0.0,0.0,0.0,0.0,0.0,0.0,0.0,0.2856,0.3192,0.3478,0.3631,0.3179,0.3367,0.0,0.0,0.0,0.0,0.0,0.0,0.0,0.0,0.0,0.0,0.0,0.0,0.0,0.0,0.0,0.0,0.0,0.0,0.0,0.0,0.0,0.0,0.0,0.0,0.0,0.0,0.0,0.0,0.0,0.0,0.0,0.0,0.0,0.0,0.0,0.0,0.0,0.0,0.0,0.0,0.0,0.0,0.0,0.0,0.0,0.0,0.0,0.0,0.0,0.0,0.0,0.0,0.0,0.0,0.0,0.0,0.0,0.0,0.0,0.0,0.0,0.0,0.0,0.0,0.0,0.0,0.0,0.0,0.0,0.0,0.0,0.0,0.0,0.0,0.0,0.0,0.0,0.0,0.0,0.0,0.0,0.0,0.0,0.0,0.0,0.0,0.0,0.0,0.0,0.0,0.0,0.0,0.0,0.0,0.0,0.0,0.0,0.0,0.0,0.0,0.0,0.0,0.0,0.0,0.0,0.0,0.0,0.0,0.0,0.4124,0.4335,0.4473,0.4453,0.4224,0.44,0.5051,0.0,0.0,0.0,0.0,0.0,0.0,0.0,0.0,0.0,0.0,0.0,0.0,0.0,0.0,0.0,0.0,0.0,0.0,0.0,0.0,0.0,0.0,0.0,0.0,0.0,0.0,0.0,0.0,0.0,0.0,0.0,0.0,0.0,0.0,0.0,0.0,0.0,0.0,0.0,0.0,0.0,0.0,0.0,0.0,0.0,0.0,0.0,0.0,0.0,0.0,0.0,0.0,0.0,0.0,0.0,0.0,0.0,0.0,0.0,0.0,0.0,0.0,0.0,0.0,0.0,0.0,0.0,0.0,0.0,0.0,0.0,0.0,0.0,0.0,0.0,0.0,0.0,0.0,0.0,0.0,0.0,0.0,0.0,0.0,0.0,0.0,0.0,0.0,0.0,0.0,0.0,0.0,0.0,0.0,0.0,0.0,0.0,0.0,0.0,0.0,0.0,0.0,0.0,0.0,0.0,0.0,0.0,0.0,0.6234,0.6337,0.6074,0.5416,0.5767,0.579,0.0,0.0,0.0,0.0,0.0,0.0,0.0,0.0,0.0,0.0,0.0,0.0,0.0,0.0,0.0,0.0,0.0,0.0,0.0,0.0,0.0,0.0,0.0,0.0,0.0,0.0,0.0,0.0,0.0,0.0,0.0,0.0,0.0,0.0,0.0,0.0,0.0,0.0,0.0,0.0,0.0,0.0,0.0,0.0,0.0,0.0,0.0,0.0,0.0,0.0,0.0,0.0,0.0,0.0,0.0,0.0,0.0,0.0,0.0,0.0,0.0,0.0,0.0,0.0,0.0,0.0,0.0,0.0,0.0,0.0,0.0,0.0,0.0,0.0,0.0,0.0,0.0,0.0,0.0,0.0,0.0,0.0,0.0,0.0,0.0,0.0,0.0,0.0,0.0,0.0,0.0,0.0,0.0,0.0,0.0,0.0,0.0,0.0,0.0,0.0,0.0,0.0,0.0,0.0,0.0,0.0,0.0,0.0,0.0,0.7809,0.9158,0.9079,0.7498,0.7752,0.7948,0.0,0.0,0.0,0.0,0.0,0.0,0.0,0.0,0.0,0.0,0.0,0.0,0.0,0.0,0.0,0.0,0.0,0.0,0.0,0.0,0.0,0.0,0.0,0.0,0.0,0.0,0.0,0.0,0.0,0.0,0.0,0.0,0.0,0.0,0.0,0.0,0.0,0.0,0.0,0.0,0.0,0.0,0.0,0.0,0.0,0.0,0.0,0.0,0.0,0.0,0.0,0.0,0.0,0.0,0.0,0.0,0.0,0.0,0.0,0.0,0.0,0.0,0.0,0.0,0.0,0.0,0.0,0.0,0.0,0.0,0.0,0.0,0.0,0.0,0.0,0.0,0.0,0.0,0.0,0.0,0.0,0.0,0.0,0.0,0.0,0.0,0.0,0.0,0.0,0.0,0.0,0.0,0.0,0.0,0.0,0.0,0.0,0.0,0.0,0.0,0.0,0.0,0.0,0.0,0.0,0.0,0.0,0.0,0.8522,0.9369,1.1122,1.1602,1.0705,1.0515,1.0057,0.0,0.0,0.0,0.0,0.0,0.0,0.0,0.0,0.0,0.0,0.0,0.0,0.0,0.0,0.0,0.0,0.0,0.0,0.0,0.0,0.0,0.0,0.0,0.0,0.0,0.0,0.0,0.0,0.0,0.0,0.0,0.0,0.0,0.0,0.0,0.0,0.0,0.0,0.0,0.0,0.0,0.0,0.0,0.0,0.0,0.0,0.0,0.0,0.0,0.0,0.0,0.0,0.0,0.0,0.0,0.0,0.0,0.0,0.0,0.0,0.0,0.0,0.0,0.0,0.0,0.0,0.0,0.0,0.0,0.0,0.0,0.0,0.0,0.0,0.0,0.0,0.0,0.0,0.0,0.0,0.0,0.0,0.0,0.0,0.0,0.0,0.0,0.0,0.0,0.0,0.0,0.0,0.0,0.0,0.0,0.0,0.0,0.0,0.0,0.0,0.0,0.0,0.0,0.0,0.0,0.0,0.0,0.0,1.014,1.0821,1.2506,1.3669,1.4205,1.3435,1.2122,0.0,0.0,0.0,0.0,0.0,0.0,0.0,0.0,0.0,0.0,0.0,0.0,0.0,0.0,0.0,0.0,0.0,0.0,0.0,0.0,0.0,0.0,0.0,0.0,0.0,0.0,0.0,0.0,0.0,0.0,0.0,0.0,0.0,0.0,0.0,0.0,0.0,0.0,0.0,0.0,0.0,0.0,0.0,0.0,0.0,0.0,0.0,0.0,0.0,0.0,0.0,0.0,0.0,0.0,0.0,0.0,0.0,0.0,0.0,0.0,0.0,0.0,0.0,0.0,0.0,0.0,0.0,0.0,0.0,0.0,0.0,0.0,0.0,0.0,0.0,0.0,0.0,0.0,0.0,0.0,0.0,0.0,0.0,0.0,0.0,0.0,0.0,0.0,0.0,0.0,0.0,0.0,0.0,0.0,0.0,0.0,0.0,0.0,0.0,0.0,0.0,0.0,0.0,0.0,0.0,0.0,0.0,0.0,1.0409,1.1653,1.3594,1.4831,1.5268,1.4587,1.3877,0.0,0.0,0.0,0.0,0.0,0.0,0.0,0.0,0.0,0.0,0.0,0.0,0.0,0.0,0.0,0.0,0.0,0.0,0.0,0.0,0.0,0.0,0.0,0.0,0.0,0.0,0.0,0.0,0.0,0.0,0.0,0.0,0.0,0.0,0.0,0.0,0.0,0.0,0.0,0.0,0.0,0.0,0.0,0.0,0.0,0.0,0.0,0.0,0.7695,0.0,0.0,0.0,0.0,0.0,0.0,0.0,0.0,0.0,0.0,0.0,0.0,0.0,0.0,0.0,0.0,0.0,0.0,0.0,0.0,0.0,0.0,0.0,0.0,0.0,0.0,0.0,0.0,0.0,0.0,0.0,0.0,0.0,0.0,0.0,0.0,0.0,0.0,0.0,0.0,0.0,0.0,0.0,0.0,0.0,0.0,0.0,0.0,0.0,0.0,0.0,0.0,0.0,0.0,0.0,0.0,0.0,0.0,0.0,1.168,1.2932,1.4752,1.5919,1.636,1.5928,1.538,0.0,0.0,0.0,0.0,0.0,0.0,0.0,0.0,0.0,0.0,0.0,0.0,0.0,0.0,0.0,0.0,0.0,0.0,0.0,0.0,0.0,0.0,0.0,0.0,0.0,0.0,0.0,0.0,0.0,0.0,0.0,0.0,0.0,0.0,0.0,0.0,0.0,0.0,0.0,0.0,0.0,0.0,0.0,0.0,0.0,0.0,0.0,0.0,0.0,0.0,0.0,0.0,0.0,0.0,0.0,0.0,0.0,0.0,0.0,0.0,0.0,0.0,0.0,0.0,0.0,0.0,0.0,0.0,0.0,0.0,0.0,0.0,0.0,0.0,0.0,0.0,0.0,0.0,0.0,0.0,0.0,0.0,0.0,0.0,0.0,0.0,0.0,0.0,0.0,0.0,0.0,0.0,0.0,0.0,0.0,0.0,0.0,0.0,0.0,0.0,0.0,0.0,0.0,0.0,0.0,0.0,0.0,1.1846,1.3226,1.4348,1.5916,1.696,1.7374,1.7069,1.6511,1.5724,0.0,0.0,0.0,0.0,0.0,0.0,0.0,0.0,0.0,0.0,0.0,0.0,0.0,0.0,0.0,0.0,0.0,0.0,0.0,0.0,0.0,0.0,0.0,0.0,0.0,0.0,0.0,0.0,0.0,0.0,0.0,0.0,0.0,0.0,0.0,0.0,0.0,0.0,0.7529,0.942,0.0,0.0,0.0,0.0,0.0,0.0,0.0,0.0,1.0411,0.0,0.0,0.0,0.0,0.0,0.0,0.0,0.0,0.0,0.0,0.0,0.0,0.0,0.0,0.0,0.0,0.0,0.0,0.0,0.0,0.0,0.0,0.0,0.0,0.0,0.0,0.0,0.0,0.0,0.0,0.0,0.0,0.0,0.0,0.0,0.0,0.0,0.0,0.0,0.0,0.0,0.0,0.0,0.0,0.0,0.0,0.0,0.0,0.0,0.0,0.0,0.0,0.0,0.0,0.0,0.0,1.0764,1.2575,1.4128,1.5438,1.7008,1.7828,1.7799,1.7215,1.6777,1.6479,0.0,0.0,0.0,0.0,0.0,0.0,0.0,0.0,0.0,0.0,0.0,0.0,0.0,0.0,0.0,0.0,0.0,0.0,0.0,0.0,0.0,0.0,0.0,0.0,0.0,0.0,0.0,0.0,0.0,0.0,0.0,0.0,0.0,0.0,0.0,0.0,0.0,0.0,0.0,1.1855,1.3091,0.0,0.0,0.0,0.0,0.0,0.0,0.0,0.0,1.258,0.0,0.0,0.0,0.0,0.0,0.0,0.0,0.0,0.0,0.0,0.0,0.0,0.0,0.0,0.0,0.0,0.0,0.0,0.0,0.0,0.0,0.0,0.0,0.0,0.0,0.0,0.0,0.0,0.0,0.0,0.0,0.0,0.0,0.0,0.0,0.0,0.0,0.0,0.0,0.0,0.0,0.0,0.0,0.0,0.0,0.0,0.0,0.0,0.0,0.0,0.0,0.0,0.0,0.0,0.0,1.1991,1.3247,1.4541,1.5983,1.7307,1.7959,1.7874,1.654,1.6081,0.0,0.0,0.0,0.0,0.0,0.0,0.0,0.0,0.0,0.0,0.0,0.0,0.0,0.0,0.0,0.0,0.0,0.0,0.0,0.0,0.0,0.0,0.0,0.0,0.0,0.0,0.0,0.0,0.0,0.0,0.0,0.0,0.0,0.0,0.0,0.0,0.0,0.0,0.0,0.0,1.3328,1.488,1.3063,0.0,0.0,0.0,0.0,0.0,0.0,1.2373,1.3816,0.0,0.0,0.0,0.0,0.0,0.0,0.0,0.0,0.0,0.0,0.0,0.0,0.0,0.0,0.0,0.0,0.0,0.0,0.0,0.0,0.0,0.0,0.0,0.0,0.0,0.0,0.0,0.0,0.0,0.0,0.0,0.0,0.0,0.0,0.0,0.0,0.0,0.0,0.0,0.0,0.0,0.0,0.0,0.0,0.0,0.0,0.0,0.0,0.0,0.0,0.0,0.0,0.0,0.0,0.0,1.3194,1.3898,1.4886,1.6229,1.7301,1.7809,1.7626,1.5913,1.5478,0.0,0.0,0.0,0.0,0.0,0.0,0.0,0.0,0.0,0.0,0.0,0.0,0.0,0.0,0.0,0.0,0.0,0.0,0.0,0.0,0.0,0.0,0.0,0.0,0.0,0.0,0.0,0.0,0.0,0.0,0.0,0.0,0.0,0.0,0.0,0.0,0.0,0.0,0.0,0.0,0.0,1.6223,1.5073,1.4143,0.0,0.0,0.0,0.0,1.3122,1.4448,0.0,0.0,0.0,0.0,0.0,0.0,0.0,0.0,0.0,0.0,0.0,0.0,0.0,0.0,0.0,0.0,0.0,0.0,0.0,0.0,0.0,0.0,0.0,0.0,0.0,0.0,0.0,0.0,0.0,0.0,0.0,0.0,0.0,0.0,0.0,0.0,0.0,0.0,0.0,0.0,0.0,0.0,0.0,0.0,0.0,0.0,0.0,0.0,0.0,0.0,0.0,0.0,0.0,0.0,0.0,0.0,1.3851,1.4593,1.5349,1.6131,1.7176,1.7437,1.6857,1.6084,1.5754,0.0,0.0,0.0,0.0,0.0,0.0,0.0,0.0,0.0,0.0,0.0,0.0,0.0,0.0,0.0,0.0,0.0,0.0,0.0,0.0,0.0,0.0,0.0,0.0,0.0,0.0,0.0,0.0,0.0,0.0,0.0,0.0,0.0,0.0,0.0,0.0,0.0,0.0,0.0,0.0,0.0,1.6977,1.6353,1.5805,1.5912,0.0,0.0,2.1168,1.6649,1.7978,0.0,0.0,0.0,0.0,0.0,0.0,0.0,0.0,0.0,0.0,0.0,0.0,0.0,0.0,0.0,0.0,0.0,0.0,0.0,0.0,0.0,0.0,0.0,0.0,0.0,0.0,0.0,0.0,0.0,0.0,0.0,0.0,0.0,0.0,0.0,0.0,0.0,0.0,0.0,0.0,0.0,0.0,0.0,0.0,0.0,0.0,0.0,0.0,0.0,0.0,0.0,0.0,0.0,0.0,0.0,1.2589,1.4646,1.4687,1.5219,1.6404,1.712,1.7212,1.6726,1.5204,1.4988,0.0,0.0,0.0,0.0,0.0,0.0,0.0,0.0,0.0,0.0,0.0,0.0,0.0,0.0,0.0,0.0,0.0,0.0,0.0,0.0,0.0,0.0,0.0,0.0,0.0,0.0,0.0,0.0,0.0,0.0,0.0,0.0,0.0,0.0,0.0,0.0,0.0,0.0,0.0,0.0,0.0,0.0,1.6901,1.7084,0.0,0.0,0.0,2.0715,1.8838,0.0,0.0,0.0,0.0,0.0,0.0,0.0,0.0,0.0,0.0,0.0,0.0,0.0,0.0,0.0,0.0,0.0,0.0,0.0,0.0,0.0,0.0,0.0,0.0,0.0,0.0,0.0,0.0,0.0,0.0,0.0,0.0,0.0,0.0,0.0,0.0,0.0,0.0,0.0,0.0,0.0,0.0,0.0,0.0,0.0,0.0,0.0,0.0,0.0,0.0,0.0,0.0,0.0,0.0,0.0,0.0,0.0,1.542,1.462,1.4925,1.642,1.6859,1.6782,1.6219,1.4485,0.0,0.0,0.0,0.0,0.0,0.0,0.0,0.0,0.0,0.0,0.0,0.0,0.0,0.0,0.0,0.0,0.0,0.0,0.0,0.0,0.0,0.0,0.0,0.0,0.0,0.0,0.0,0.7661,0.0,0.0,0.0,0.0,0.0,0.0,0.0,0.0,0.0,0.0,0.0,0.0,0.0,0.0,1.7678,1.7747,1.8308,1.8887,0.0,0.0,1.9847,2.0271,2.0352,2.0387,0.0,0.0,0.0,0.0,0.0,0.0,0.0,0.0,0.0,0.0,0.0,0.0,0.0,0.0,0.0,0.0,0.0,0.0,0.0,0.0,0.0,0.0,0.0,0.0,0.0,0.0,0.0,0.0,0.0,0.0,0.0,0.0,0.0,0.0,0.0,0.0,0.0,0.0,0.0,0.0,0.0,0.0,0.0,0.0,0.0,0.0,0.0,0.0,0.0,0.0,0.0,0.0,0.0,0.0,1.3484,1.5891,1.4595,1.4501,1.5814,1.6199,1.5913,1.4966,1.448,1.4732,0.0,0.0,0.0,0.0,0.0,0.0,0.0,0.0,0.0,0.0,0.0,0.0,0.0,0.0,0.0,0.0,0.0,0.0,0.0,0.0,0.0,0.0,0.0,0.0,0.0,0.0,0.0,0.0,0.0,0.0,0.0,0.0,0.0,0.0,0.0,0.0,0.0,0.0,0.0,0.0,0.0,1.8412,1.9394,1.9579,2.0193,0.0,2.071,1.9989,2.0792,2.1595,2.1046,1.7926,0.0,0.0,0.0,0.0,0.0,0.0,0.0,0.0,0.0,0.0,0.0,0.0,0.0,0.0,0.0,0.0,0.0,0.0,0.0,0.0,0.0,0.0,0.0,0.0,0.0,0.0,0.0,0.0,0.0,0.0,0.0,0.0,0.0,0.0,0.0,0.0,0.0,0.0,0.0,0.0,0.0,0.0,0.0,0.0,0.0,0.0,0.0,0.0,0.0,0.0,0.0,0.0,0.0,1.4328,1.7115,1.495,1.4619,1.6256,1.6331,1.5807,1.4817,1.4495,1.4769,0.0,0.0,0.0,0.0,0.0,0.0,0.0,0.0,0.0,0.0,0.0,0.0,0.0,0.0,0.0,0.0,0.0,0.0,0.0,0.0,0.0,0.0,0.0,0.0,0.0,0.0,0.0,0.0,0.7756,0.7723,0.8258,0.0,0.0,0.0,0.0,0.0,0.0,0.0,0.0,0.0,0.0,1.9156,2.0324,2.0743,0.0,0.0,2.1174,2.0768,2.0277,2.1166,2.1186,1.9049,1.874,0.0,0.0,0.0,0.0,0.0,0.0,0.0,0.0,0.0,0.0,0.0,0.0,0.0,0.0,0.0,0.0,0.0,0.0,0.0,0.0,0.0,0.0,0.0,0.0,0.0,0.0,0.0,0.0,0.0,0.0,0.0,0.0,0.0,0.0,0.0,0.0,0.0,0.0,0.0,0.0,0.0,0.0,0.0,0.0,0.0,0.0,0.0,0.0,0.0,0.0,0.0,0.0,1.4723,1.7555,1.508,1.4703,1.654,1.6402,1.5875,1.4985,1.4529,1.4763,0.0,0.0,0.0,0.0,0.0,0.0,0.0,0.0,0.0,0.0,0.0,0.0,0.0,0.0,0.0,0.0,0.0,0.0,0.0,0.0,0.0,0.0,0.0,0.0,0.0,0.0,0.0,0.0,0.8473,0.8379,0.8491,0.0,0.0,0.0,0.0,0.0,0.0,0.0,0.0,0.0,0.0,1.9573,2.1013,2.1492,2.1635,2.1519,2.1621,2.1377,2.0445,2.0761,2.0764,1.9774,0.0,0.0,0.0,0.0,0.0,0.0,0.0,0.0,0.0,0.0,0.0,0.0,0.0,0.0,0.0,0.0,0.0,0.0,0.0,0.0,0.0,0.0,0.0,0.0,0.0,0.0,0.0,1.3282,0.0,0.0,1.4831,0.0,0.0,0.0,0.0,0.0,0.0,0.0,0.0,0.0,0.0,0.0,0.0,0.0,0.0,0.0,0.0,0.0,0.0,0.0,0.0,0.0,0.0,1.4528,1.6867,1.4889,1.463,1.6267,1.6294,1.5982,1.5294,1.4667,1.4769,1.5754,0.0,0.0,0.0,0.0,0.0,0.0,0.0,0.0,0.0,0.0,0.0,0.0,0.0,0.0,0.0,0.0,0.0,0.0,0.0,0.0,0.0,0.0,0.0,0.0,0.0,0.0,0.9649,0.9575,0.9366,0.0,0.0,0.0,0.0,0.0,0.0,0.0,0.0,0.0,1.865,1.8898,1.9599,2.1401,2.1694,2.1883,2.2494,2.2059,2.1669,2.156,2.0567,1.9672,0.0,0.0,0.0,0.0,0.0,0.0,0.0,0.0,0.0,0.0,0.0,0.0,0.0,0.0,0.0,0.0,0.0,0.0,0.0,0.0,0.0,0.0,0.0,0.0,0.0,0.0,0.0,1.5173,1.4882,0.0,0.0,0.0,0.0,0.0,0.0,0.0,0.0,0.0,0.0,0.0,1.4718,1.4557,0.0,0.0,0.0,0.0,0.0,0.0,0.0,0.0,0.0,0.0,0.0,0.0,1.5291,1.7817,1.5259,1.4834,1.6868,1.6518,1.5973,1.5313,1.5093,1.5053,1.5248,0.0,0.0,0.0,0.0,0.0,0.0,0.0,0.0,0.0,0.0,0.0,0.0,0.0,0.0,0.0,0.0,0.0,0.0,0.0,0.0,0.0,0.0,0.0,0.0,0.0,1.1071,0.0,0.0,0.0,0.0,0.0,0.0,0.0,0.0,0.0,0.0,1.7084,1.7889,1.8783,1.9583,2.0338,2.0938,2.1151,2.1265,0.0,0.0,0.0,0.0,0.0,0.0,0.0,0.0,0.0,0.0,0.0,0.0,0.0,0.0,2.0047,1.9286,1.8865,1.8613,1.8567,0.0,0.0,0.0,0.0,0.0,0.0,0.0,0.0,0.0,0.0,0.0,0.0,0.0,0.0,1.6651,1.6507,1.6892,0.0,0.0,0.0,0.0,0.0,0.0,0.0,0.0,1.4999,1.5485,1.5641,1.5679,1.5776,0.0,1.5706,1.5197,0.0,0.0,0.0,0.0,0.0,0.0,0.0,0.0,1.6,1.8129,1.5815,1.5522,1.7474,1.6848,1.6295,1.6006,1.5646,1.522,1.4722,1.4899,1.5166,0.0,0.0,0.0,0.0,0.0,0.0,0.0,0.0,0.0,0.0,0.0,0.0,0.0,0.0,0.0,0.0,0.0,0.0,0.0,0.0,0.0,0.0,0.0,1.1714,0.0,0.0,0.0,0.0,0.0,0.0,0.0,0.0,0.0,1.9743,1.9046,1.8912,2.0343,2.0433,2.0518,2.0982,0.0,0.0,0.0,0.0,0.0,0.0,0.0,2.1583,2.2523,2.3299,2.3943,2.4359,2.4105,2.372,2.3272,0.0,0.0,2.1135,2.091,2.0901,2.0863,2.0936,2.1192,2.1845,2.168,2.1691,0.0,0.0,0.0,0.0,0.0,0.0,0.0,0.0,1.6945,1.7692,0.0,1.8204,0.0,0.0,0.0,0.0,1.48,1.5344,0.0,0.0,1.6036,1.6283,1.5896,1.6887,1.7112,1.6604,1.7034,1.6692,1.5591,1.4503,0.0,0.0,0.0,0.0,0.0,0.0,1.655,1.7644,1.6451,1.6591,1.8084,1.725,1.6925,1.7241,1.634,1.5306,1.4285,1.5347,1.5854,1.557,1.6019,0.0,0.0,0.0,0.0,0.0,0.0,0.0,0.0,0.0,0.0,0.0,0.0,0.0,0.0,0.0,0.0,0.0,0.0,0.0,0.0,1.2627,0.0,0.0,0.0,0.0,0.0,0.0,0.0,0.0,0.0,1.9029,2.2842,2.0827,2.0104,2.3112,0.0,0.0,0.0,0.0,2.0199,2.1471,2.2612,2.3334,2.3388,2.3825,2.4109,2.4001,0.0,0.0,2.6688,2.4837,2.3399,2.3333,2.3987,2.4228,2.3458,2.3158,2.3101,2.3128,2.3103,2.3209,2.326,2.3289,2.3383,2.0681,0.0,0.0,0.0,0.0,1.9485,1.994,2.0224,2.0548,2.0251,1.9507,1.9139,0.0,0.0,0.0,0.0,0.0,0.0,1.6323,1.6609,1.7374,1.7639,1.7501,1.7815,1.7877,1.7715,1.7465,1.6968,1.6168,1.5515,1.4938,1.4469,0.0,0.0,0.0,0.0,1.6558,1.7568,1.6861,1.7015,1.8169,1.7915,1.7616,1.7309,1.6743,1.6092,1.5336,1.5801,1.621,1.6486,1.648,0.0,0.0,0.0,0.0,0.0,0.0,0.0,0.0,0.0,0.0,0.0,0.0,0.0,0.0,0.0,0.0,0.0,0.0,0.0,1.4292,1.4307,1.399,0.0,0.0,0.0,0.0,0.0,0.0,0.0,0.0,0.0,2.1869,2.1183,2.1025,0.0,0.0,2.0187,2.1515,2.0959,2.0552,2.0927,2.195,0.0,2.3958,2.4241,2.4709,2.574,2.6345,2.6707,2.6698,2.6126,2.5698,2.5672,2.5882,2.5958,2.5672,2.4289,2.3418,2.3634,2.3881,2.4244,2.4772,2.4896,2.4888,2.3512,2.1988,2.1039,2.0575,2.0609,2.1972,2.265,2.2816,2.3284,2.3159,2.256,2.1482,2.0568,1.9696,1.7806,0.0,0.0,0.0,1.7629,1.8007,1.8572,1.8719,1.8543,1.8744,1.8719,1.8494,1.818,1.7843,1.7462,1.719,1.6843,1.6446,0.0,1.6391,1.6872,1.7018,1.7398,1.8041,1.7705,1.7917,1.8759,1.8547,1.8096,1.7486,1.7225,1.6921,1.6585,1.6672,1.6905,1.7288,1.7139,1.7124,0.0,0.0,0.0,0.0,0.0,0.0,0.0,0.0,0.0,0.0,0.0,1.1348,1.0756,0.0,0.0,0.0,1.183,1.3006,1.5547,1.5418,0.0,0.0,0.0,0.0,0.0,0.0,0.0,1.6258,1.7806,1.9423,2.0732,2.1136,2.1719,2.2902,2.157,2.0881,2.1944,0.0,2.1263,2.1701,2.2533,2.3531,2.4709,2.514,2.5647,2.6539,2.6708,2.6708,2.6708,2.6708,2.6708,2.6708,2.6708,2.6708,2.6708,2.5512,2.4666,2.4955,2.5171,2.5489,2.5948,2.6031,2.5981,2.6061,2.6432,2.4358,2.2769,2.1782,2.4087,2.4791,2.4354,2.5432,2.6135,2.6342,2.4552,2.3606,2.3187,2.0348,0.0,1.9146,1.9133,1.9171,1.9208,1.9723,1.9685,1.9233,1.9673,1.961,1.9146,1.9095,1.9118,1.9154,1.9152,1.9203,1.9204,1.8143,1.7707,1.7912,1.8413,1.8711,1.8702,1.8747,1.9085,1.9678,1.91,1.8463,1.7795,1.778,1.775,1.7699,1.775,1.7834,1.7958,1.7959,1.7782,1.7382,0.0,0.0,0.0,0.0,0.0,0.0,0.0,0.0,0.0,0.0,0.0,0.0,0.0,0.0,1.1396,1.3381,0.0,1.6478,1.613,0.0,0.0,0.0,1.5932,1.6024,1.7301,1.8181,1.8213,0.0,0.0,1.9791,2.0875,2.2114,2.3382,2.2465,2.1929,2.266,2.225,2.2167,2.2943,2.3828,2.4583,2.5288,2.6062,2.659,2.6691,2.6708,2.67,2.6705,2.6707,2.67,2.6708,2.6708,2.6708,2.6708,2.659,2.6691,2.6598,2.6624,2.6666,2.664,2.664,2.6632,2.7171,2.6886,2.7525,2.7125,2.6137,2.7207,2.7901,2.8226,2.8538,2.7786,2.6307,2.5433,2.3703,2.133,2.0141,1.9849,2.0302,2.0289,2.0515,2.0904,2.1041,2.1029,2.0891,2.0615,2.0427,2.0278,1.992,1.9777,1.9782,1.9842,2.0078,2.0443,2.0173,1.9343,1.7964,1.8431,1.8711,1.8711,1.9205,1.9543,1.9684,1.9549,1.9151,1.8484,1.8454,1.8207,1.772,1.82,1.8478,1.8515,1.861,1.8427,1.7933,1.7524,0.0,0.0,0.0,0.0,0.0,0.0,0.0,0.0,0.0,1.3277,1.2211,0.0,1.2943,0.0,1.5169,1.6393,1.7244,1.7091,0.0,0.0,1.7464,1.77,1.8128,1.8489,1.8865,1.9275,1.9548,1.9953,2.0599,2.0964,2.167,2.2942,2.222,2.1951,2.3034,2.3115,2.2667,2.2226,2.3791,2.5127,2.4802,2.578,2.6708,2.6708,2.6708,2.67,2.6708,2.67,2.6708,2.6708,2.6708,2.6708,2.6708,2.6708,2.6708,2.6708,2.6708,2.6708,2.6708,2.6708,2.6708,2.8314,2.8458,2.8952,2.9215,2.9378,2.9728,2.9939,3.0027,3.0313,2.9554,2.7996,2.6682,2.4654,2.2162,2.1556,2.1442,2.1757,2.1784,2.1807,2.187,2.2108,2.1956,2.1482,2.0969,2.0831,2.1019,2.034,2.0405,2.111,2.0985,2.1162,2.1689,2.1699,2.0999,1.9658,1.9589,1.9735,2.0034,1.9794,1.9723,1.9723,1.9723,1.9669,1.9591,1.9301,1.9106,1.9044,1.9106,1.9136,1.9151,1.8998,1.865,1.8125,1.7598,1.7064,0.0,0.0,0.0,0.0,0.0,0.0,0.0,0.0,0.0,0.0,0.0,1.4584,1.6076,1.6826,1.7445,1.7993,1.7807,1.7777,1.8076,1.8308,1.8588,1.8888,1.927,1.9561,1.9684,1.9723,2.0174,2.1409,2.1577,2.1878,2.2742,2.2396,2.2301,2.3044,2.3268,2.3067,2.2556,2.3497,2.4684,2.5118,2.6076,2.6708,2.6708,2.6708,2.6708,2.6708,2.6708,2.6708,2.6708,2.6708,2.6708,2.6708,2.6708,2.675,2.6955,2.7115,2.7091,2.6783,2.6708,2.6708,2.9071,2.9946,2.925,2.9772,3.1132,3.1278,3.0994,3.0517,3.1083,3.0822,2.9831,2.7678,2.58,2.4183,2.3587,2.3306,2.3321,2.3306,2.3058,2.2659,2.311,2.2784,2.1821,2.127,2.1273,2.1701,2.0883,2.1296,2.2842,2.2523,2.2617,2.3052,2.2998,2.2692,2.2188,2.138,2.1201,2.168,2.0561,1.9947,1.9953,1.9887,2.0109,2.0638,2.0034,1.9968,2.0518,2.0004,1.9723,1.969,1.9188,1.8664,1.8112,1.7595,1.7025,0.0,1.6346,0.0,0.0,0.0,0.0,0.0,0.0,0.0,0.0,1.5198,1.621,1.8003,1.8239,1.8409,1.8622,1.838,1.8234,1.8308,1.875,1.9075,1.9112,1.9858,2.0253,1.9901,1.9883,2.054,2.2027,2.2313,2.2396,2.2599,2.2605,2.2637,2.2897,2.314,2.3318,2.3482,2.299,2.3695,2.5916,2.664,2.6708,2.6708,2.6708,2.6708,2.6708,2.6708,2.6708,2.67,2.6758,2.68,2.6783,2.675,2.6866,2.7295,2.7722,2.7755,2.708,2.6906,2.6849,2.8296,2.8527,2.8577,2.8786,2.9159,3.0103,3.0437,3.0365,3.0466,2.9644,2.8096,2.6543,2.5638,2.5247,2.4729,2.4474,2.4462,2.4474,2.444,2.4324,2.444,2.4152,2.3514,2.2922,2.2794,2.3031,2.296,2.3402,2.4294,2.4693,2.4954,2.5035,2.4511,2.444,2.4762,0.0,0.0,0.0,2.144,2.1306,2.1315,2.0787,2.0563,2.0673,2.0049,0.0,1.9878,1.9774,1.9723,1.969,1.9179,0.0,0.0,0.0,0.0,0.0,0.0,0.0,0.0,0.0,0.0,0.0,1.6607,1.6425,1.5543,1.5942,1.6896,1.837,1.9058,1.9234,1.8883,1.8788,1.893,1.935,1.9776,2.0048,2.005,2.0541,2.0829,2.0764,2.0918,2.1385,2.212,2.2313,2.2319,2.2375,2.2375,2.2389,2.244,2.3131,2.3218,2.2275,2.227,2.3447,2.6252,2.6623,2.6691,2.6708,2.6708,2.6708,2.6708,2.6708,2.67,2.6725,2.6971,2.7186,2.7186,2.6931,2.6971,2.7651,2.8326,2.8491,2.7575,2.7528,2.7621,2.8864,2.8782,2.9188,2.9255,0.0,2.9794,2.9659,2.9081,2.9935,2.9317,2.7627,2.6531,2.6042,2.6017,2.5448,2.5193,2.5197,2.518,2.4921,2.4428,2.4958,2.477,2.3979,2.3384,2.3501,2.4213,2.381,2.4126,2.5077,2.544,2.56,2.56,2.5274,2.5247,2.5543,2.4287,2.2996,2.171,2.1704,2.1704,2.1675,2.1066,2.0862,2.1146,2.0223,0.0,0.0,0.0,0.0,0.0,0.0,0.0,0.0,1.7595,0.0,1.6967,1.6669,1.6736,1.7279,1.7061,1.7142,1.7729,1.8355,1.8302,1.7389,1.7301,1.7842,1.9101,1.9523,1.9593,1.9341,1.9471,1.9695,1.9967,2.0389,2.0641,2.0691,2.1031,2.1229,2.1094,2.1508,2.1974,2.2261,2.2313,2.2313,2.2313,2.2313,2.2313,2.2347,2.2709,2.2714,2.2072,2.212,2.2779,2.4289,2.5938,2.6463,2.615,2.637,2.6666,2.6708,2.6865,2.7004,2.7036,2.7334,2.7607,2.7574,2.7416,2.746,2.804,2.8596,2.8851,2.8312,2.8069,2.7989,2.9667,2.95,2.9847,2.9857,2.9635,2.9711,2.9066,2.8076,2.9149,0.0,0.0,2.6934,2.6637,2.66,2.613,2.5854,2.5749,2.5749,2.5288,2.4494,2.5351,2.5238,2.4268,2.3734,2.4199,2.5382,2.4505,2.4722,2.6013,2.6083,2.6111,2.6111,2.6019,2.5854,2.5588,2.5064,2.3932,2.2293,2.2084,2.2034,2.2034,2.1395,2.1261,2.169,2.0522,2.0088,2.0488,1.9974,1.9744,1.9854,1.9246,1.8755,1.8416,1.7821,1.7525,1.7679,1.7699,1.7966,1.8504,1.8533,1.8783,1.9371,1.9932,2.0024,1.946,1.8825,1.8895,1.9956,1.9847,1.9735,1.9785,2.0089,2.0331,2.0416,2.083,2.1094,2.1126,2.1468,2.1606,2.1369,2.1871,2.2313,2.2313,2.2313,2.2313,2.2313,2.2313,2.2313,2.2313,2.2347,2.2381,2.2285,2.2282,2.2347,2.2673,2.4283,2.5643,2.5108,2.5851,2.6562,2.6653,2.6989,2.7286,2.7394,2.7722,2.7954,2.7985,2.8051,2.8188,2.8464,2.8761,2.8987,2.8946,2.852,2.83,2.9788,2.9694,2.9258,2.9049,2.9062,2.9345,2.9332,2.9031,2.7674,2.7139,2.7331,2.7238,2.7198,2.7203,2.711,2.6796,2.6386,2.6373,2.6285,2.616,2.6298,2.6005,2.5376,2.5169,2.5719,2.6765,2.6106,2.6603,2.7999,2.8151,2.8188,2.8098,2.7602,2.6764,2.5693,2.5498,2.5049,2.4201,2.3629,2.3325,2.3325,2.2727,2.2179,2.1704,2.0952,2.0318,1.9863,1.9774,1.9959,2.0494,1.9504,1.9118,1.9581,1.8647,1.831,1.8788,1.8852,1.9152,1.9754,1.9841,2.0075,2.0595,2.0724,2.0734,2.0651,2.0154,2.0053,2.0532,2.009,1.9847,2.0167,2.0296,2.0508,2.087,2.1267,2.1514,2.1521,2.1908,2.2152,2.2087,2.2225,2.2313,2.2313,2.2313,2.2313,2.2313,2.2313,2.2313,2.2313,2.2313,2.2313,2.2313,2.2313,2.2313,2.2486,2.2996,2.3872,2.3988,2.5252,2.6241,2.6346,2.6876,2.738,2.7751,2.8084,2.831,2.8342,2.862,2.8779,2.8863,2.8952,2.8987,2.8987,2.8851,2.8834,2.9779,2.9754,2.9515,2.9195,2.8906,2.8768,2.8692,2.8631,2.7766,2.7512,2.7738,2.7733,2.7587,2.7336,2.7595,2.7449,2.6922,2.6922,2.6788,2.6499,2.6487,2.6185,2.564,2.5463,2.6182,2.7558,2.7563,2.8093,2.9064,2.9144,2.9131,2.9129,2.883,2.8186,2.7275,2.6869,2.618,2.5169,2.447,2.3973,2.3606,2.3007,2.2563,2.2243,2.159,2.1121,2.0791,2.0791,2.0917,2.1231,2.0729,2.0426,2.0412,1.9638,1.9318,1.9631,2.006,2.0243,2.0111,2.0708,2.1319,2.1823,2.218,2.2346,2.2372,2.1505,2.1196,2.17,2.095,2.0519,2.0803,2.0945,2.1094,2.1306,2.172,2.1974,2.1996,2.2142,2.2313,2.2313,2.2313,2.2313,2.2313,2.2313,2.2313,2.2313,2.2313,2.2313,2.2313,2.2313,2.2313,2.2313,2.232,2.2412,2.2584,2.2933,2.3419,2.3966,2.5021,2.5887,2.6342,2.6929,2.7431,2.7975,2.841,2.8682,2.8707,2.8857,2.8969,2.8987,2.8987,2.8987,2.8987,2.8987,2.8989,2.9779,2.9779,2.9779,2.9528,2.9076,2.8524,2.8342,2.8461,2.8348,2.836,2.8461,2.8342,2.8047,2.772,2.8091,2.7996,2.7519,2.7487,2.7261,2.6871,2.6864,2.6595,2.6151,2.5828,2.669,2.8418,2.8661,2.9132,2.9917,2.9892,2.9803,2.9803,2.9803,2.9488,2.8816,2.8156,2.7228,2.6093,2.5393,2.4575,2.3625,2.3127,2.2838,2.2673,2.2198,2.1869,2.1719,2.1704,2.1779,2.1899,2.1779,2.1569,2.1305,2.0627,2.0375,2.0692,2.1233,2.1365,2.1008,2.1751,2.2481,2.2856,2.3336,2.3584,2.352,2.2712,2.2234,2.245,2.1893,2.1464,2.1372,2.148,2.1643,2.1764,2.2061,2.2268,2.2313,2.2313,2.2313,2.2313,2.2313,2.2313,2.2313,2.2313,2.2313,2.2313,2.2313,2.2313,2.2313,2.2313,2.2313,2.2313,2.2313,2.2436,2.2818,2.3236,2.3584,2.4074,2.4947,2.5766,2.6459,2.7,2.7675,2.8291,2.87,2.8916,2.8975,2.8981,2.8895,2.8748,2.8803,2.8987,2.8987,2.8724,2.8723,2.9779,2.9779,2.9779,2.9767,2.9628,2.907,2.9107,2.9503,2.9057,2.9164,2.9503,2.907,2.8775,2.8756,2.8806,2.853,2.8041,2.8034,2.7996,2.7934,2.7959,2.7921,2.7695,2.687,2.7863,3.0033,2.9254,2.9638,3.1183,3.0717,3.0432,3.0417,3.0417,3.0133,2.949,2.8846,2.8128,2.7433,2.6749,2.5495,2.3729,2.355,2.3246,2.2718,2.2658,2.2328,2.1809,2.1704,2.1989,2.2493,2.2034,2.1969,2.2359,2.1563,2.1438,2.2334,2.237,2.255,2.3163,2.3389,2.3436,2.3509,2.355,2.3606,2.3616,2.3486,2.3079,2.265,2.2676,2.2476,2.17,2.1698,2.1934,2.2228,2.2328,2.2313,2.2364,2.2313,2.2313,2.2313,2.2415,2.2313,2.233,2.2313,2.2313,2.2313,2.2313,2.2313,2.2313,2.2313,2.2313,2.2313,2.2313,2.2419,2.2764,2.3538,2.3809,2.3642,2.479,2.5763,2.6333,2.7241,2.8418,2.8597,2.8709,2.8761,2.8987,2.8968,2.8681,2.8301,2.8484,2.895,2.8889,2.8291,2.7939,2.9779,2.9779,2.9779,2.9779,2.9741,2.9528,2.9566,2.9754,2.9541,2.9578,2.9754,2.9541,2.9233,2.8932,2.927,2.912,2.8593,2.858,2.8568,2.8543,2.8273,2.8109,2.8065,2.7943,2.8878,3.072,3.074,3.1196,3.1901,3.1809,3.1466,3.1196,3.148,3.118,3.0193,2.9864,2.9054,2.7645,2.733,2.6405,2.4956,2.4377,2.4077,2.3808,2.3445,2.3127,2.2847,2.2817,2.2951,2.3186,2.2951,2.2947,2.3206,2.2802,2.2755,2.3189,2.3164,2.3419,2.4145,2.3823,2.3763,2.4167,2.3819,2.3709,2.4022,2.3799,2.3625,2.3791,2.3832,2.3753,2.3481,2.3383,2.3237,2.3025,2.2953,2.2946,2.2953,2.2953,2.3004,2.3163,2.318,2.2919,2.2448,2.2313,2.2313,2.2313,2.2313,2.2313,2.2313,2.2313,2.2313,2.2313,2.2313,2.2514,2.2934,2.366,2.3976,2.4005,2.4371,2.5074,2.624,2.6293,2.7049,2.8621,2.8247,2.8235,2.8913,2.8515,2.8136,2.7829,2.7733,2.8064,2.8062,2.7704,2.7715,2.9779,2.9779,2.9779,2.9779,2.9779,2.9779,2.9779,2.9779,2.9779,2.9779,2.9779,2.9779,2.9578,2.9264,2.9616,2.9553,2.9183,2.9145,2.9145,2.9095,2.875,2.8586,2.8592,2.8678,2.9514,3.0813,3.1519,3.2161,3.2675,3.2766,3.2527,3.2198,3.2527,3.2213,3.1151,3.0897,2.9998,2.8545,2.8259,2.7572,2.6512,2.5779,2.5259,2.4889,2.4406,2.4148,2.4133,2.4148,2.4048,2.3894,2.3879,2.3789,2.361,2.3584,2.3584,2.3584,2.3584,2.3793,2.4306,2.3868,2.3804,2.4216,2.3864,2.3826,2.4241,2.4178,2.4378,2.4989,2.5096,2.5085,2.468,2.4582,2.4263,2.3763,2.3705,2.3712,2.3705,2.3695,2.378,2.3949,2.3797,2.356,2.2861,2.2524,2.2356,2.261,2.2438,2.2313,2.2313,2.2303,2.2314,2.2391,2.2487,2.2682,2.3099,2.3742,2.4103,2.4286,2.4409,2.5082,2.6135,2.5773,2.5716,2.7394,2.6995,2.7,2.7565,2.7466,2.7603,2.7383,2.7087,2.6993,2.7567,2.7429,2.7761,2.9779,2.9779,2.9779,2.9779,2.9779,2.9779,2.9779,2.9779,2.9779,2.9779,2.9779,2.9779,2.9767,2.9748,2.9767,2.9767,2.9741,2.9704,2.9704,2.9691,2.9654,2.9691,2.9679,2.9176,2.9709,3.1038,3.1164,3.1929,3.3378,3.347,3.3455,3.3395,3.341,3.311,3.2333,3.1734,3.1092,3.0208,2.9683,2.9114,2.841,2.7735,2.6794,2.5737,2.5513,2.542,2.5438,2.5483,2.5199,2.4563,2.456,2.4287,2.3719,2.364,2.364,2.361,2.3584,2.3625,2.3714,2.3655,2.3655,2.3699,2.3684,2.3847,2.443,2.4776,2.524,2.5886,2.6201,2.5956,2.4911,2.4799,2.4626,2.4491,2.4457,2.4448,2.4465,2.4432,2.4457,2.4491,2.4305,2.4094,2.3814,2.2897,2.2828,2.3047,2.2784,2.2371,2.2361,2.2337,2.2572,2.2653,2.2865,2.3093,2.3045,2.3644,2.4132,2.4268,2.4622,2.5269,2.5613,2.5915,2.608,2.6334,2.6659,2.6683,2.6407,2.6522,2.6963,2.6693,2.568,2.5662,2.7262,2.7435,2.7837,2.9779,2.9779,2.9779,2.9779,2.9779,2.9779,2.9779,2.9779,2.9779,2.9779,2.9779,2.9779,2.9779,2.9779,2.9779,2.9779,2.9779,2.9779,2.9779,2.9779,2.9779,2.9779,2.9767,2.9566,3.0068,3.113,3.1723,3.272,3.3971,3.4144,3.3919,3.3649,3.3934,3.3604,3.2632,3.2258,3.1615,3.0583,3.0253,2.9669,2.8727,2.8366,2.7797,2.6899,2.6033,2.56,2.56,2.56,2.5483,2.5244,2.5244,2.5124,2.4881,2.4481,2.4022,2.3659,2.3584,2.3789,2.4122,2.3838,2.3793,2.4156,2.3838,2.4006,2.4726,2.5109,2.5542,2.6279,2.6581,2.6378,2.6116,2.5912,2.5701,2.5312,2.5211,2.5211,2.5203,2.522,2.5355,2.5735,2.5735,2.565,2.5287,2.4532,2.3858,2.4028,2.3864,2.3347,2.2739,2.3242,2.3684,2.2866,2.297,2.3311,2.3129,2.3716,2.4208,2.425,2.4511,2.4902,2.5283,2.5039,2.5082,2.5871,2.6313,2.624,2.586,2.5834,2.6287,2.6088,2.5021,2.5601,2.7194,2.7482,2.8045,2.9779,2.9779,2.9779,2.9779,2.9779,2.9779,2.9779,2.9779,2.9779,2.9779,2.9779,2.9779,2.9779,2.9779,2.9779,2.9779,2.9779,2.9779,2.9779,2.9779,2.9779,2.9779,2.9779,2.9779,3.012,3.0871,3.2033,3.3223,3.4286,3.4674,3.4562,3.4218,3.4622,3.4143,3.3066,3.302,3.2407,3.1151,3.1031,3.0522,2.937,2.9039,2.8725,2.8156,2.7141,2.6452,2.627,2.6243,2.6123,2.5959,2.5929,2.5722,2.5277,2.4859,2.4291,2.3729,2.3808,2.4003,2.4197,2.3853,2.3883,2.45,2.4025,2.4104,2.5298,2.532,2.57,2.6419,2.6708,2.6708,2.6708,2.6674,2.6488,2.604,2.5947,2.5964,2.5964,2.5939,2.6167,2.6505,2.6573,2.664,2.6606,2.5792,2.5268,2.5082,2.5117,2.4613,2.36,2.3933,2.4764,2.3728,2.3672,2.3737,2.3618,2.3981,2.4208,2.425,2.425,2.4622,2.4732,2.4415,2.4507,2.5314,2.5608,2.5498,2.5406,2.5338,2.5314,2.5346,2.5475,2.5785,2.6848,2.7627,2.8136,2.9779,2.9779,2.9779,2.9779,2.9779,2.9779,2.9779,2.9779,2.9779,2.9779,2.9779,2.9779,2.9779,2.9779,2.9779,2.9779,2.9779,2.9779,2.9779,2.9779,2.9779,2.9779,2.9779,2.9792,2.9895,3.0139,3.1719,3.3017,3.3907,3.4769,3.521,3.535,3.5337,3.4741,3.353,3.3949,3.344,3.2048,3.2019,3.1704,3.0597,2.9877,2.9548,2.9427,2.8786,2.8186,2.763,2.757,2.7228,2.6662,2.6554,2.5959,2.4963,2.4769,2.438,2.3913,2.4231,2.4231,2.3763,2.3659,2.3883,2.45,2.4048,2.4399,2.5674,2.555,2.5617,2.6479,2.6708,2.6708,2.6708,2.6708,2.6683,2.6666,2.6573,2.6573,2.6615,2.6657,2.6691,2.6708,2.6708,2.6708,2.6724,2.6642,2.6457,2.6323,2.6412,2.6117,2.4868,2.4936,2.5144,2.5473,2.5318,2.4901,2.4532,2.4203,2.4226,2.4226,2.4231,2.4365,2.4401,2.4213,2.4231,2.4837,2.5112,2.5021,2.4984,2.4892,2.464,2.4699,2.5146,2.574,2.6481,2.7255,2.7989,2.9779,2.9779,2.9779,2.9779,2.9779,2.9779,2.9779,2.9779,2.9779,2.9779,2.9779,2.9779,2.9779,2.9779,2.9779,2.9779,2.9779,2.9779,2.9779,2.9779,2.9779,2.9779,2.9779,2.9779,3.0139,3.0739,3.1328,3.2123,3.3066,3.401,3.4461,3.456,3.5166,3.5039,3.4233,3.4369,3.3709,3.2422,3.2377,3.1839,3.0628,3.0313,3.0013,2.9623,2.9383,2.9159,2.8964,2.853,2.7976,2.733,2.6839,2.6183,2.5543,2.5734,2.545,2.447,2.4459,2.4548,2.4276,2.3913,2.4137,2.49,2.4664,2.4952,2.5916,2.5605,2.5661,2.6522,2.6708,2.6708,2.6708,2.6708,2.6708,2.6708,2.6708,2.6708,2.6708,2.6708,2.6708,2.6708,2.6708,2.6923,2.7359,2.7497,2.7437,2.7364,2.7524,2.7173,2.6391,2.644,2.6975,2.7214,2.6749,2.5996,2.5205,2.4861,2.4961,2.4704,2.4483,2.4231,2.4194,2.4194,2.4194,2.4268,2.4525,2.4635,2.458,2.4488,2.4286,2.442,2.4987,2.5593,2.6203,2.7034,2.8002,2.9779,2.9779,2.9779,2.9779,2.9779,2.9779,2.9779,2.9779,2.9779,2.9779,2.9779,2.9779,2.9779,2.9779,2.9779,2.9779,2.9779,2.9779,2.9779,2.9779,2.9779,2.9779,2.9779,2.9779,3.0056,3.0639,3.1031,3.1499,3.2123,3.3345,3.3996,3.4163,3.5003,3.516,3.4623,3.4697,3.4128,3.2781,3.2736,3.2213,3.1106,3.0628,3.0433,3.0296,3.0087,2.9817,2.9593,2.9189,2.8665,2.7946,2.7108,2.642,2.6048,2.633,2.612,2.5289,2.5187,2.5274,2.4978,2.4631,2.4765,2.5618,2.5349,2.5471,2.6146,2.5793,2.5677,2.6496,2.6708,2.6708,2.6708,2.6708,2.6708,2.6708,2.6708,2.6708,2.6708,2.6708,2.6708,2.6733,2.6882,2.7288,2.7708,2.7974,2.8035,2.8102,2.8152,2.8229,2.7648,2.7702,2.7868,2.7973,2.7799,2.6826,2.5642,2.5501,2.5714,2.5309,2.4869,2.447,2.4194,2.4194,2.4194,2.4194,2.4378,2.4396,2.436,2.4323,2.4231,2.4585,2.4934,2.5461,2.6172,2.7506,2.8387,2.9779,2.9779,2.9779,2.9779,2.9779,2.9779,2.9779,2.9779,2.9779,2.9779,2.9779,2.9779,2.9779,2.9779,2.9779,2.9779,2.9779,2.9779,2.9779,2.9779,2.9779,2.9779,2.9779,2.9779,2.9856,3.0024,3.0677,3.1063,3.1217,3.2749,3.3876,3.3893,3.4727,3.5173,3.4815,3.519,3.4547,3.314,3.323,3.2781,3.16,3.0913,3.0837,3.1331,3.0852,3.0342,2.9967,2.9638,2.9174,2.8425,2.723,2.6689,2.6584,2.6629,2.6393,2.5839,2.6288,2.6111,2.5782,2.5453,2.5779,2.6479,2.6089,2.6062,2.6783,2.6226,2.5972,2.6859,2.7182,2.7148,2.7029,2.7004,2.697,2.6793,2.6776,2.6725,2.675,2.6851,2.6995,2.6892,2.7161,2.77,2.8037,2.8197,2.8309,2.84,2.8387,2.8473,2.855,2.8323,2.7975,2.8074,2.8348,2.8015,2.6941,2.6462,2.6667,2.6741,2.5946,2.5052,2.4433,2.4305,2.4194,2.4194,2.4194,2.4194,2.4268,2.4328,2.4438,2.4695,2.5062,2.5461,2.641,2.7769,2.8442,2.9779,2.9779,2.9779,2.9779,2.9779,2.9779,2.9779,2.9779,2.9779,2.9779,2.9779,2.9779,2.9779,2.9779,2.9779,2.9779,2.9779,2.9779,2.9779,2.9779,2.9779,2.9779,2.9779,2.9779,2.9779,2.9856,3.0101,3.0158,3.026,3.1481,3.2375,3.2996,3.3993,3.4765,3.5181,3.54,3.4996,3.4054,3.359,3.3125,3.2288,3.1585,3.1316,3.1436,3.1316,3.1122,3.0897,3.0073,2.877,2.7303,2.7345,2.7028,2.6566,2.6956,2.7165,2.7003,2.6719,2.6557,2.6315,2.5914,2.6168,2.7125,2.6711,2.6524,2.7172,2.6931,2.7062,2.7893,2.8975,2.9279,2.823,2.8104,2.807,2.7545,2.7173,2.696,2.7239,2.7912,2.8081,2.7093,2.7915,2.8568,2.8632,2.8748,2.8803,2.881,2.8798,2.8791,2.8833,2.8827,2.8474,2.8615,2.8814,2.879,2.8449,2.783,2.769,2.8075,2.7268,2.5873,2.5144,2.4538,2.436,2.4194,2.4194,2.4194,2.4456,2.4622,2.4768,2.4732,2.5645,2.6264,2.693,2.797,2.8405,2.9779,2.9779,2.9779,2.9779,2.9779,2.9779,2.9779,2.9779,2.9779,2.9779,2.9779,2.9779,2.9779,2.9779,2.9779,2.9779,2.9779,2.9779,2.9779,2.9779,2.9779,2.9779,2.9779,2.9779,2.9779,2.9779,2.9779,2.9798,2.9979,3.0752,3.1683,3.266,3.3536,3.4495,3.5411,3.5474,3.5191,3.4548,3.4069,3.3484,3.2542,3.2138,3.1765,3.1585,3.1481,3.1406,3.1002,3.0117,2.8889,2.7797,2.7527,2.7345,2.6956,2.7285,2.7585,2.757,2.7198,2.7018,2.6971,2.6644,2.694,2.7683,2.7488,2.7626,2.7922,2.7896,2.7973,2.8271,2.9743,2.9813,2.9178,2.8959,2.8764,2.8375,2.8066,2.7866,2.7848,2.8093,2.8403,2.8479,2.9208,2.9691,2.9203,2.9311,2.928,2.9104,2.8952,2.8964,2.8975,2.8987,2.8987,2.8987,2.8987,2.8934,2.891,2.8443,2.8203,2.8583,2.802,2.668,2.5805,2.4965,2.4538,2.436,2.4268,2.4323,2.464,2.4768,2.4543,2.4929,2.608,2.6869,2.7365,2.786,2.8295,2.9779,2.9779,2.9779,2.9779,2.9779,2.9779,2.9779,2.9779,2.9779,2.9779,2.9779,2.9779,2.9779,2.9811,2.9917,2.9924,2.9905,3.008,2.9993,2.998,2.9942,2.9955,2.9955,2.9829,2.9792,2.9779,2.9779,2.9779,2.996,3.0658,3.1481,3.2321,3.3293,3.431,3.5052,3.5375,3.5175,3.4772,3.4488,3.3934,3.3036,3.2587,3.2168,3.1795,3.154,3.1286,3.0762,3.0087,2.9398,2.8845,2.8169,2.7824,2.769,2.76,2.7645,2.76,2.754,2.7548,2.768,2.7634,2.7853,2.8357,2.8517,2.8754,2.896,2.8809,2.8632,2.864,2.9322,2.9914,2.9839,2.9416,2.9158,2.9148,2.9463,2.93,2.8933,2.8329,2.8624,3.0134,3.1078,3.0745,3.0215,2.9763,2.9886,2.9078,2.8987,2.8987,2.8987,2.8987,2.8987,2.8987,2.8987,2.8987,2.8981,2.8913,2.884,2.8858,2.8209,2.7205,2.6379,2.559,2.4947,2.4649,2.4904,2.4964,2.4965,2.4874,2.4735,2.5388,2.6709,2.7016,2.7231,2.7763,2.8235,2.9779,2.9779,2.9779,2.9779,2.9779,2.9779,2.9779,2.9779,2.9779,2.9779,2.9779,2.9779,2.9779,2.9817,3.0193,3.0425,3.0457,3.0721,3.0846,3.0437,3.0412,3.0412,3.0319,3.003,2.9829,2.9817,2.9792,2.9779,2.9914,3.0101,3.0582,3.1573,3.2571,3.3394,3.4327,3.5166,3.5474,3.5205,3.4787,3.4398,3.3874,3.3036,3.2527,3.2258,3.1809,3.1481,3.1212,3.0658,3.0268,2.9983,2.9475,2.877,2.7976,2.8051,2.806,2.7765,2.7648,2.7835,2.8201,2.8319,2.8424,2.8779,2.9012,2.9206,2.9528,2.9552,2.953,2.9753,3.0405,3.0734,3.0676,2.9694,2.9659,3.0092,3.0275,3.0515,3.1039,3.1095,3.1015,3.1304,3.1891,3.2429,3.2521,3.0791,3.0204,2.9299,2.8987,2.8987,2.8987,2.8987,2.8987,2.8987,2.8987,2.8987,2.8987,2.8992,2.8986,2.8986,2.8422,2.804,2.7195,2.6618,2.6112,2.5834,2.5753,2.5714,2.5561,2.5852,2.591,2.6651,2.7187,2.7457,2.7708,2.8014,2.8229,3.003,2.9792,2.9779,2.9779,2.9779,2.9779,2.9779,2.9779,2.9779,2.9779,2.9779,2.9779,2.9779,2.9829,3.0324,3.0588,3.0713,3.1122,3.1097,3.0771,3.0783,3.0683,3.0319,3.0231,3.0168,3.0143,2.9892,2.9792,2.9779,2.9856,3.0324,3.1217,3.2141,3.3136,3.401,3.4986,3.5441,3.5444,3.516,3.4847,3.4368,3.3859,3.3215,3.2916,3.2347,3.1959,3.1929,3.1346,3.1017,3.0882,3.0598,2.9714,2.8336,2.8124,2.8069,2.8087,2.803,2.8319,2.876,2.8954,2.9073,2.9469,2.9656,2.9958,3.0251,3.0405,3.0456,3.0632,3.092,3.1173,3.1159,3.0917,3.0753,3.1063,3.1462,3.1905,3.2404,3.2366,3.2342,3.2453,3.293,3.3291,3.2963,3.1696,3.0369,2.9409,2.9005,2.8987,2.8987,2.8987,2.8987,2.8987,2.8987,2.8987,2.8987,2.8998,2.899,2.8972,2.8764,2.862,2.8316,2.7868,2.7482,2.7044,2.6533,2.6324,2.6266,2.6643,2.6858,2.6861,2.7176,2.7781,2.8185,2.8253,2.8491,3.0274,2.9779,2.9779,2.9779,2.9779,2.9779,2.9779,2.9779,2.9779,2.9779,2.9779,2.9779,2.9779,2.9905,3.0349,3.06,3.0864,3.1248,3.1336,3.0922,3.1148,3.0997,3.0595,3.0545,3.0588,3.0613,3.008,2.9817,2.9779,2.9818,3.0139,3.1026,3.2123,3.2908,3.3822,3.492,3.5489,3.5474,3.5429,3.5236,3.4742,3.4488,3.4039,3.341,3.2976,3.2542,3.2362,3.1914,3.154,3.1376,3.1271,3.0324,2.9141,2.8386,2.8007,2.8549,2.8547,2.8943,2.9395,2.9574,2.9772,3.0372,3.0439,3.0635,3.1014,3.1082,3.1055,3.1089,3.119,3.119,3.1213,3.1355,3.1649,3.2004,3.2685,3.3161,3.3187,3.2771,3.299,3.3451,3.3513,3.366,3.322,3.2235,3.0846,2.9635,2.9244,2.8987,2.8987,2.8987,2.8987,2.8987,2.8987,2.8987,2.8987,2.8987,2.8997,2.8966,2.8917,2.8945,2.9003,2.8658,2.8124,2.7629,2.7226,2.7115,2.7278,2.7778,2.7735,2.7187,2.7372,2.818,2.8436,2.8473,2.8656,3.0262,2.9779,2.9779,2.9779,2.9779,2.9779,2.9779,2.9779,2.9779,2.9779,2.9779,2.9779,2.9779,2.993,3.0369,3.0814,3.1286,3.1725,3.1738,3.1323,3.1436,3.1348,3.1336,3.0896,3.0839,3.0896,3.0357,2.9867,2.9792,2.9818,2.994,3.04,3.1792,3.2784,3.3342,3.4476,3.5489,3.5489,3.5489,3.537,3.519,3.4802,3.4353,3.3739,3.3469,3.3095,3.2632,3.2362,3.1824,3.0776,3.0207,2.9781,2.9523,2.9497,2.927,2.8892,2.9058,2.9518,3.0038,3.0182,3.0466,3.0878,3.0995,3.1005,3.1161,3.119,3.119,3.119,3.119,3.119,3.121,3.1612,3.1977,3.2375,3.2848,3.3332,3.3556,3.3551,3.344,3.377,3.3807,3.3421,3.254,3.1916,3.0999,2.9855,2.928,2.906,2.8987,2.8987,2.8987,2.8987,2.8987,2.8987,2.8987,2.8987,2.8998,2.8998,2.8962,2.8962,2.8984,2.8986,2.8656,2.8198,2.8161,2.829,2.858,2.8822,2.8658,2.8112,2.8381,2.8675,2.8656,2.862,2.8522,3.0281,2.9792,2.9779,2.9779,2.9779,2.9779,2.9779,2.9779,2.9779,2.9779,2.9779,2.9779,2.9779,2.993,3.0369,3.1022,3.1712,3.2051,3.2051,3.1825,3.1825,3.1549,3.1587,3.1085,3.0796,3.062,3.0256,3.0018,2.9804,2.9779,2.9779,3.0254,3.1678,3.2575,3.3031,3.4524,3.5344,3.5489,3.5489,3.5489,3.5489,3.5131,3.4802,3.4562,3.4128,3.3694,3.3095,3.2617,3.2048,3.1116,3.0295,3.0012,3.0092,3.0257,3.028,2.9648,2.9706,3.0123,3.0638,3.0777,3.0908,3.1105,3.119,3.119,3.119,3.119,3.119,3.119,3.119,3.119,3.121,3.1778,3.2222,3.255,3.3083,3.3536,3.3746,3.38,3.3807,3.3807,3.3807,3.3018,3.1158,3.0736,3.0668,3.013,2.939,2.9133,2.9005,2.8987,2.8987,2.8987,2.8987,2.8987,2.8987,2.8987,2.8987,2.8987,2.8987,2.8987,2.8987,2.8987,2.8987,2.8785,2.895,2.8987,2.8974,2.8911,2.8962,2.8987,2.8913,2.8822,2.8803,2.8748,2.8761,3.0382,2.9824,2.9917,2.9892,2.9804,2.9779,2.9779,2.9779,2.9779,2.9779,2.9779,2.9779,2.9779,2.993,3.0394,3.1052,3.1905,3.1993,3.2177,3.2164,3.2152,3.1738,3.1449,3.1009,3.0896,3.057,3.0206,3.0231,2.9867,2.9779,2.9779,3.0298,3.1664,3.2593,3.2996,3.4541,3.523,3.5489,3.5489,3.5489,3.5489,3.5489,3.5489,3.5489,3.4967,3.4338,3.3485,3.3036,3.2183,3.1318,3.0599,3.0267,3.0487,3.0784,3.0794,3.0539,3.0487,3.0777,3.1015,3.1161,3.1114,3.119,3.119,3.119,3.119,3.119,3.119,3.119,3.119,3.119,3.13,3.1994,3.2392,3.2647,3.3225,3.3807,3.38,3.3807,3.3807,3.3807,3.3807,3.2944,3.1396,3.0332,3.043,3.013,2.9427,2.9115,2.8987,2.8987,2.8987,2.8987,2.8987,2.8987,2.8987,2.8987,2.8987,2.8987,2.8987,2.8987,2.8987,2.8987,2.8987,2.8987,2.8987,2.8987,2.8987,2.9005,2.8987,2.8987,2.8987,2.9115,2.9299,2.9403,2.944,3.0708,2.9842,3.0287,3.0244,2.9829,2.9779,2.9779,2.9779,2.9779,2.9779,2.9779,2.9779,2.9779,2.9905,3.0299,3.0651,3.1052,3.165,3.2031,3.2056,3.2114,3.224,3.2353,3.121,3.1085,3.0783,3.0313,2.9917,2.9792,2.9779,2.9856,3.026,3.1591,3.2646,3.2996,3.4591,3.5441,3.5489,3.5489,3.5489,3.5489,3.5489,3.5489,3.5474,3.531,3.4711,3.3709,3.3245,3.2572,3.102,3.0639,3.0467,3.0402,3.0192,3.058,3.0878,3.1112,3.1121,3.1181,3.119,3.119,3.119,3.119,3.119,3.119,3.119,3.119,3.119,3.119,3.119,3.1339,3.2012,3.2375,3.2785,3.3262,3.3694,3.3807,3.3807,3.3807,3.3678,3.3642,3.3183,3.2173,3.1109,3.0222,2.9873,2.9519,2.9207,2.8987,2.8987,2.8987,2.8987,2.8987,2.8987,2.8987,2.8987,2.8987,2.8987,2.8987,2.8987,2.8987,2.8987,2.8987,2.8987,2.8987,2.9097,2.9244,2.9225,2.906,2.9207,2.947,2.9726,2.9983,3.0051,3.0155,3.0495,2.9817,3.0043,3.0018,2.9804,2.9779,2.9779,2.9779,2.9779,2.9779,2.9779,2.9779,2.9779,2.9867,3.008,3.0331,3.0638,3.1115,3.1486,3.175,3.18,3.1934,3.1964,3.1687,3.1524,3.0972,3.0746,3.0357,3.0055,2.9882,2.9991,3.0696,3.1865,3.2947,3.3241,3.4756,3.5344,3.5489,3.5489,3.5489,3.5489,3.5489,3.5489,3.5489,3.5489,3.4741,3.3844,3.3469,3.2974,3.1745,3.1338,3.1233,3.1276,3.1071,3.0888,3.1075,3.1181,3.1181,3.119,3.119,3.1207,3.1207,3.1207,3.119,3.119,3.119,3.119,3.119,3.119,3.119,3.1332,3.2003,3.2333,3.2745,3.3292,3.3592,3.3807,3.3807,3.377,3.3623,3.3451,3.3146,3.2742,3.1806,3.0668,2.9837,2.9537,2.928,2.9078,2.8987,2.8987,2.8987,2.8987,2.8987,2.8987,2.8987,2.8987,2.8987,2.8987,2.8987,2.8987,2.8987,2.8987,2.8987,2.8987,2.917,2.9445,2.9445,2.9299,2.9653,3.0081,3.0405,3.0711,3.0956,3.1066,3.0168,2.9817,2.9942,2.993,2.9811,2.9779,2.9779,2.9779,2.9779,2.9779,2.9779,2.9779,2.9779,2.9792,2.9854,3.0131,3.0608,3.06,3.0947,3.126,3.1524,3.1683,3.1851,3.1918,3.1729,3.0977,3.1198,3.0821,3.0281,3.0064,3.0342,3.094,3.1974,3.2806,3.3736,3.4773,3.5489,3.5489,3.5489,3.5489,3.5489,3.5489,3.5489,3.5489,3.5355,3.4876,3.3739,3.3728,3.3461,3.2544,3.2252,3.2168,3.2133,3.1516,3.1122,3.119,3.119,3.119,3.119,3.1207,3.1292,3.142,3.1427,3.1478,3.119,3.119,3.119,3.119,3.119,3.119,3.1361,3.1986,3.2375,3.2785,3.327,3.3571,3.3807,3.3832,3.3807,3.3715,3.3605,3.3532,3.3036,3.232,3.1292,3.0057,2.9543,2.9378,2.9225,2.9152,2.9133,2.917,2.906,2.9042,2.8987,2.8987,2.8987,2.8987,2.8987,2.8987,2.8987,2.8987,2.8987,2.8987,2.8987,2.9372,2.9726,2.9635,2.9616,3.0283,3.0852,3.1164,3.1476,3.1861,3.2265,2.9829,2.9842,3.0331,3.0231,2.9779,2.9779,2.9779,2.9779,2.9779,2.9779,2.9779,2.9779,2.9779,2.9779,2.9829,3.0068,3.055,3.0588,3.0884,3.1348,3.183,3.1989,3.2102,3.2131,3.2156,3.188,3.1625,3.1072,3.06,3.0294,3.0177,3.0177,3.1618,3.2357,3.3258,3.4409,3.5311,3.5441,3.5489,3.5554,3.5587,3.5619,3.5635,3.5651,3.548,3.4907,3.3681,3.4073,3.4043,3.3029,3.3088,3.2863,3.2525,3.185,3.1475,3.1224,3.1352,3.1369,3.1376,3.1319,3.1539,3.1945,3.2097,3.1792,3.1268,3.119,3.119,3.119,3.119,3.119,3.1447,3.1931,3.2628,3.3011,3.3539,3.3979,3.4082,3.3832,3.3832,3.3788,3.3733,3.3642,3.355,3.2889,3.1971,3.0772,3.0467,3.0301,2.9671,2.9488,2.9451,2.9396,2.9231,2.9115,2.9005,2.8987,2.8987,2.8987,2.8987,2.8987,2.8987,2.8987,2.8987,2.8987,2.9042,2.9525,2.9971,3.0044,3.0338,3.1091,3.1696,3.2216,3.3196,3.4044,3.4293,2.9779,2.9804,3.003,2.9993,2.9779,2.9779,2.9779,2.9779,2.9779,2.9779,2.9779,2.9779,2.9779,2.9779,2.9811,2.988,3.0093,3.0105,3.045,3.0934,3.1399,3.1851,3.2127,3.2441,3.26,3.2177,3.165,3.1122,3.0613,3.0394,3.0068,3.0311,3.1169,3.1979,3.289,3.3922,3.4806,3.5441,3.5554,3.5668,3.6134,3.6212,3.6415,3.689,3.6306,3.6059,3.5518,3.4801,3.4575,3.4383,3.4141,3.3677,3.3062,3.2409,3.183,3.1437,3.1606,3.1775,3.1742,3.1505,3.1352,3.1572,3.1928,3.2046,3.1454,3.1224,3.119,3.119,3.1207,3.119,3.1354,3.2394,3.3346,3.3528,3.3921,3.4479,3.4534,3.4339,3.4089,3.4174,3.3954,3.377,3.3678,3.3532,3.254,3.1568,3.1409,3.117,3.0632,3.0136,3.0173,3.0173,3.0044,2.9488,2.9323,2.9189,2.9023,2.906,2.9078,2.8987,2.8987,2.8987,2.8987,2.8987,2.917,2.969,3.0155,3.0509,3.1097,3.1898,3.2724,3.347,3.4655,3.5899,3.5912,2.9779,2.9779,2.9779,2.9779,2.9779,2.9779,2.9779,2.9779,2.9779,2.9779,2.9779,2.9779,2.9779,2.9779,2.9792,2.9811,2.9829,2.9854,3.0036,3.0444,3.0922,3.1449,3.2001,3.2378,3.2478,3.2152,3.1838,3.1373,3.062,3.0218,2.9993,3.0074,3.0444,3.1236,3.2213,3.3429,3.4493,3.5279,3.5783,3.6006,3.6554,3.6874,3.71,3.7529,3.6919,3.6364,3.6095,3.5561,3.5249,3.5163,3.5005,3.4605,3.39,3.3169,3.2442,3.2063,3.1955,3.2276,3.2209,3.2368,3.2019,3.2273,3.274,3.2605,3.2036,3.1529,3.1275,3.1688,3.1495,3.1336,3.1591,3.2829,3.3527,3.3702,3.4932,3.5514,3.536,3.5165,3.4798,3.4578,3.4376,3.4259,3.4137,3.4045,3.333,3.2467,3.2137,3.21,3.2045,3.1574,3.1225,3.1207,3.1115,3.0411,2.9714,2.9415,2.9225,2.9586,2.9512,2.906,2.8987,2.8987,2.8987,2.8987,2.9299,2.9873,3.0411,3.0913,3.177,3.2717,3.3376,3.3918,3.53,3.6309,3.6596,2.9741,2.9779,2.9754,2.9773,2.9825,2.9811,2.9779,2.9779,2.9779,2.9779,2.9779,2.9779,2.9779,2.9779,2.9779,2.9779,2.9779,2.9811,2.9905,3.0156,3.057,3.0984,3.1507,3.1972,3.2256,3.2227,3.1876,3.1319,3.06,3.0362,3.0143,2.9905,3.0024,3.0501,3.137,3.3084,3.4459,3.5394,3.6024,3.6384,3.6859,3.7353,3.7661,3.7746,3.7218,3.665,3.6362,3.6316,3.597,3.5596,3.6089,3.5632,3.4597,3.3795,3.3061,3.2429,3.23,3.2378,3.2462,3.3654,3.3728,3.3254,3.3501,3.3654,3.3085,3.2324,3.1732,3.2364,3.2195,3.207,3.2564,3.3331,3.3785,3.4454,3.5714,3.642,3.6285,3.6009,3.5661,3.5165,3.5041,3.4986,3.4816,3.4548,3.399,3.3385,3.2938,3.2828,3.2889,3.2841,3.2345,3.2253,3.218,3.1806,3.0999,2.98,2.947,2.9885,2.983,2.9249,2.8987,2.8987,2.8987,2.9005,2.9225,2.961,3.0503,3.139,3.2357,3.3225,3.3492,3.4167,3.5611,3.6769,3.7188,2.8674,2.8712,2.9045,2.9579,3.0117,2.9897,2.9779,2.9779,2.9779,2.9779,2.9779,2.9779,2.9779,2.9779,2.9779,2.9779,2.9779,2.9804,2.988,3.0358,3.0574,3.0922,3.1397,3.1845,3.1948,3.1661,3.1439,3.1201,3.06,3.0312,3.0055,2.9804,2.9856,3.0336,3.1254,3.2522,3.3533,3.4495,3.5383,3.629,3.7279,3.7675,3.8007,3.8386,3.7703,3.7136,3.6897,3.6926,3.66,3.6427,3.7058,3.6349,3.5301,3.4472,3.3687,3.3078,3.2865,3.3271,3.4049,3.4968,3.4562,3.414,3.4049,3.4218,3.3406,3.3041,3.2956,3.3294,3.3632,3.3548,3.3499,3.4603,3.5225,3.5696,3.6609,3.7232,3.7294,3.6927,3.6523,3.5892,3.558,3.4883,3.4523,3.4401,3.3972,3.3807,3.3385,3.2993,3.2938,3.3366,3.3281,3.3281,3.322,3.3036,3.2412,3.0999,3.0118,3.0344,2.9916,2.9133,2.8987,2.906,2.903,2.9043,2.9159,2.9366,3.0638,3.1855,3.2889,3.3652,3.3755,3.4547,3.6083,3.7287,3.814,2.8279,2.8594,2.8908,2.9613,3.0379,3.0328,3.0279,3.0222,2.9972,2.9779,2.9779,2.9779,2.9779,2.9779,2.9779,2.9779,2.9779,2.9804,3.0254,3.0732,3.0816,3.1169,3.1612,3.1907,3.178,3.1354,3.0984,3.0745,3.0294,2.9967,2.9817,2.9792,2.9818,3.0362,3.1217,3.2182,3.3122,3.4199,3.5289,3.6585,3.7397,3.7908,3.8177,3.8344,3.8003,3.7395,3.7562,3.7489,3.7282,3.7607,3.7544,3.6997,3.6124,3.5199,3.4421,3.3863,3.3677,3.4157,3.5103,3.5492,3.5036,3.4495,3.4692,3.4624,3.4258,3.4197,3.418,3.4518,3.5126,3.485,3.4517,3.566,3.6104,3.6515,3.7283,3.7911,3.8046,3.7679,3.7533,3.6865,3.6321,3.5422,3.4339,3.4045,3.3825,3.3807,3.377,3.3403,3.3066,3.3458,3.3807,3.377,3.3752,3.3513,3.2944,3.1959,3.1262,3.0938,3.0234,2.9427,2.9189,2.9262,2.9171,2.9104,2.9244,2.9745,3.1115,3.2313,3.3268,3.3727,3.3785,3.491,3.6523,3.7566,3.8464,2.8564,2.9289,2.9355,2.9829,3.062,3.1021,3.1164,3.0995,3.0158,2.9756,2.9729,2.9691,2.9716,2.9767,2.9779,2.9876,2.9998,2.9979,3.0577,3.111,3.1376,3.1706,3.1919,3.2124,3.1571,3.1023,3.0631,3.0372,2.9886,2.9817,2.9792,2.9779,2.9779,3.026,3.1007,3.2033,3.3013,3.4148,3.537,3.6523,3.7323,3.7632,3.7876,3.796,3.7614,3.7338,3.7482,3.7705,3.782,3.812,3.8434,3.7882,3.7088,3.605,3.5289,3.4759,3.4506,3.4968,3.5408,3.5611,3.5594,3.5205,3.5408,3.5532,3.5414,3.5177,3.5109,3.5143,3.5487,3.5455,3.5482,3.5936,3.6372,3.7097,3.7952,3.8329,3.8537,3.8498,3.8479,3.812,3.7687,3.6732,3.5128,3.4468,3.4183,3.4064,3.4045,3.3752,3.3495,3.355,3.3807,3.3807,3.3788,3.3807,3.3226,3.2565,3.1831,3.1323,3.0803,3.0112,2.9837,2.95,2.9623,2.9599,2.9452,3.01,3.1512,3.2619,3.355,3.3812,3.3817,3.4502,3.5881,3.7342,3.8269,2.7447,2.821,2.8595,2.9624,3.0995,3.1627,3.112,2.994,2.9585,2.9404,2.9139,2.9157,2.9352,2.9786,2.9779,3.0209,3.0564,3.0927,3.1444,3.187,3.2195,3.2304,3.2068,3.1617,3.1037,3.0764,3.049,3.0082,2.9874,2.9779,2.9779,2.9779,2.9914,3.0139,3.0846,3.1829,3.3013,3.4129,3.5383,3.6275,3.6874,3.7084,3.7351,3.7336,3.7587,3.7382,3.7352,3.8147,3.8423,3.8725,3.8853,3.8435,3.7702,3.6405,3.538,3.5346,3.5289,3.5425,3.5577,3.5628,3.5628,3.5628,3.5628,3.5628,3.5611,3.5628,3.5628,3.5628,3.5644,3.5606,3.5958,3.6442,3.6934,3.7635,3.8303,3.8535,3.8699,3.8699,3.8699,3.8615,3.8219,3.743,3.5844,3.503,3.4756,3.4543,3.4259,3.3972,3.3807,3.3807,3.3807,3.3807,3.3807,3.3807,3.377,3.3244,3.2418,3.1684,3.1219,3.0571,2.9715,2.9525,2.9959,3.0381,3.0693,3.1182,3.1941,3.2914,3.377,3.3807,3.3855,3.4461,3.5245,3.6724,3.7919,2.7258,2.8257,2.8926,3.0199,3.1708,3.2407,3.1711,3.026,2.9629,2.9275,2.9065,2.8735,2.88,2.917,2.9718,3.0321,3.08,3.1552,3.2254,3.2961,3.3154,3.3182,3.2589,3.1902,3.1491,3.1063,3.04,2.9861,2.9779,2.9779,2.9779,2.985,3.0056,3.057,3.1341,3.2536,3.3636,3.4493,3.5331,3.6086,3.6569,3.6813,3.6919,3.738,3.7835,3.7557,3.7584,3.8619,3.8965,3.9302,3.9425,3.8891,3.7939,3.649,3.5633,3.5549,3.5549,3.556,3.5628,3.5628,3.5628,3.5628,3.5628,3.5628,3.5628,3.5628,3.5628,3.5611,3.5689,3.5831,3.6443,3.7039,3.7578,3.814,3.8407,3.8666,3.8699,3.8699,3.8699,3.8699,3.8285,3.7661,3.6791,3.5972,3.5096,3.444,3.4075,3.3935,3.3807,3.3807,3.3807,3.3807,3.3807,3.3807,3.3752,3.3568,3.2669,3.2027,3.1953,3.1152,2.9923,2.9935,3.0715,3.1541,3.228,3.2581,3.2675,3.3189,3.3807,3.3848,3.3901,3.4215,3.4963,3.6176,3.7209,2.7685,2.9067,3.0072,3.1409,3.273,3.3322,3.2705,3.132,3.0052,2.9389,2.9162,2.8503,2.8237,2.8564,2.9321,3.0084,3.0811,3.17,3.2811,3.3969,3.4143,3.4143,3.4008,3.3582,3.23,3.1267,3.0406,2.9779,2.9779,2.9779,2.9811,2.9869,3.0671,3.1249,3.1901,3.3119,3.4078,3.4708,3.5478,3.6259,3.701,3.7218,3.7321,3.8286,3.833,3.8119,3.8649,3.9072,3.9328,3.9817,3.988,3.9288,3.7804,3.6659,3.6,3.5746,3.578,3.5729,3.5763,3.578,3.5712,3.5678,3.5628,3.5628,3.5628,3.5628,3.5628,3.5628,3.5667,3.6139,3.6724,3.7078,3.7542,3.8142,3.857,3.8699,3.8699,3.8699,3.8699,3.8699,3.8571,3.7973,3.747,3.6596,3.5613,3.4575,3.4339,3.4339,3.4192,3.4192,3.3935,3.3917,3.3807,3.3788,3.3678,3.3385,3.2669,3.2265,3.243,3.1588,3.0244,3.0694,3.1607,3.2152,3.2613,3.3075,3.336,3.391,3.4225,3.4098,3.4105,3.4035,3.4754,3.5906,3.6449,2.743,2.9178,3.1188,3.2905,3.4051,3.377,3.3114,3.2155,3.0551,2.9434,2.8754,2.846,2.822,2.8142,2.8475,2.9267,3.0639,3.1588,3.2929,3.3945,3.4541,3.4493,3.4591,3.335,3.2618,3.1892,3.0871,2.9779,2.9779,2.9779,2.9818,2.9914,3.079,3.1609,3.192,3.3206,3.4394,3.4942,3.5914,3.6508,3.7039,3.7515,3.7835,3.8274,3.8274,3.8663,3.9139,3.9529,3.9782,4.0096,4.0096,3.9085,3.7398,3.6829,3.6242,3.5847,3.631,3.6214,3.5983,3.605,3.6096,3.5746,3.5628,3.5628,3.5628,3.5628,3.5628,3.5628,3.5827,3.6374,3.6796,3.7087,3.7479,3.81,3.8658,3.8658,3.8666,3.8699,3.8699,3.8699,3.8699,3.8307,3.7822,3.7165,3.6161,3.578,3.5793,3.5716,3.5349,3.5158,3.4369,3.4204,3.3862,3.377,3.3678,3.355,3.2999,3.2981,3.3201,3.2072,3.0658,3.1247,3.2017,3.2299,3.2697,3.341,3.4142,3.4795,3.4941,3.4637,3.4699,3.4801,3.4885,3.5758,3.5989,2.8098,2.9801,3.2067,3.347,3.4085,3.4074,3.3508,3.2444,3.1156,2.9628,2.8023,2.7361,2.7082,2.736,2.7585,2.8352,2.9943,3.1251,3.2131,3.3224,3.3983,3.3986,3.353,3.2816,3.2187,3.1513,3.0558,2.9779,2.9779,2.9779,2.9818,3.0037,3.0927,3.1829,3.2069,3.3567,3.4797,3.526,3.6477,3.7143,3.7438,3.8033,3.8555,3.8816,3.9143,3.9411,3.9529,3.9901,3.9995,4.0064,4.0012,4.0077,3.9026,3.8538,3.7959,3.7661,3.7585,3.7194,3.6633,3.6417,3.6468,3.5966,3.5628,3.5628,3.5628,3.5628,3.5628,3.5628,3.5628,3.6075,3.6239,3.6501,3.7239,3.7921,3.8226,3.8324,3.8512,3.8699,3.8699,3.8699,3.8524,3.8065,3.7775,3.7901,3.6875,3.5819,3.6038,3.6622,3.6376,3.6057,3.5268,3.4571,3.4284,3.3935,3.377,3.3752,3.3623,3.3733,3.3807,3.3031,3.2007,3.2088,3.2352,3.2773,3.3375,3.4188,3.4906,3.5494,3.545,3.5111,3.5369,3.5711,3.5734,3.5725,3.6299,2.9031,3.0911,3.281,3.3675,3.3809,3.4342,3.3732,3.2388,3.1459,2.9646,2.7268,2.5603,2.5481,2.6014,2.6714,2.755,2.8684,3.0281,3.1268,3.193,3.2535,3.2999,3.2696,3.1833,3.1402,3.0908,3.0139,2.9876,2.9779,2.9779,2.9914,3.0235,3.1304,3.2575,3.3185,3.4377,3.5606,3.6275,3.7203,3.8046,3.858,3.9019,3.9411,3.9825,4.0113,4.0113,4.0113,4.0113,4.0113,4.0051,3.9956,3.989,3.9825,3.9297,3.936,3.9005,3.8624,3.7957,3.7278,3.6987,3.6569,3.605,3.578,3.5645,3.5645,3.5628,3.5616,3.5628,3.5628,3.5735,3.59,3.6244,3.7025,3.7846,3.8063,3.8383,3.8684,3.8791,3.8699,3.8699,3.8377,3.7918,3.8004,3.8155,3.759,3.6476,3.6333,3.6863,3.7132,3.678,3.6229,3.5433,3.4864,3.4486,3.3954,3.3807,3.3807,3.3807,3.378,3.3543,3.3285,3.2896,3.2882,3.3415,3.408,3.4879,3.549,3.6036,3.5856,3.5652,3.644,3.6789,3.5824,3.6027,3.6958,2.9375,3.3075,3.3483,3.3902,3.4403,3.4529,3.3451,3.1585,3.0573,2.883,2.6523,2.4708,2.3963,2.4115,2.5052,2.6003,2.7155,2.8974,3.0255,3.102,3.1654,3.2214,3.2177,3.1273,3.0733,3.0279,2.9921,2.9856,2.9779,2.9779,2.9798,2.9921,3.1696,3.266,3.2961,3.4346,3.5863,3.66,3.7278,3.8019,3.8829,3.9319,3.9863,4.0087,4.0113,4.0113,4.0113,4.0113,4.0113,4.0095,4.0109,3.9904,3.9788,3.9721,3.973,3.9755,3.9416,3.8594,3.7928,3.7692,3.72,3.6462,3.6163,3.578,3.5746,3.5633,3.5633,3.5661,3.5712,3.5853,3.6061,3.6356,3.7031,3.8097,3.8687,3.9221,3.9648,3.9148,3.8699,3.8699,3.8589,3.8414,3.8429,3.8501,3.8409,3.7676,3.7654,3.8085,3.8007,3.761,3.7155,3.642,3.5624,3.4644,3.3965,3.3844,3.3807,3.3807,3.378,3.3625,3.3433,3.3229,3.3388,3.396,3.467,3.5446,3.6033,3.6626,3.6518,3.6536,3.765,3.7909,3.6767,3.6626,3.7831]}]]